     2              OBSERVATION DATA                        RINEX VERSION / TYPE
DAT2RIN 1.01d Dan Johnson 14SEP96 4:48:00 GMT               PGM / RUN BY / DATE
Mojave '96 team Central Washington U                        OBSERVER / AGENCY
16311 TRIMBLE 4000SSI Nav 7.09 Sig 3.03                     REC # / TYPE / VERS
64585 TRIMBLE CHOKE                                         ANT # / TYPE
PANA PANAMINT                                               MARKER NAME
 -2351062.0000 -4579715.0000  3755411.0000                  APPROX POSITION XYZ
        0.0814        0.0000        0.0000                  ANTENNA: DELTA H/E/N
     1     1     0                                          WAVELENGTH FACT L1/2
     5    L1    C1    P1    L2    P2                        # / TYPES OF OBSERV
    30                                                      INTERVAL
                                                            COMMENT
PANGA GPS Data Analysis Center                              COMMENT
Department of Geology                                       COMMENT
Central Washington University                               COMMENT
Ellensburg, WA 98926                                        COMMENT
                                                            COMMENT
http://www.panga.cwu.edu                                    COMMENT
ftp://panga.cwu.edu                                         COMMENT
                                                            COMMENT
  1996     9     8     0     0   30.000000                  TIME OF FIRST OBS
  1996     9     8    23    59    0.000000                  TIME OF LAST OBS
    25                                                      # OF SATELLITES
           1   746   748     0   743   743                  PRN / # OF OBS
           2   846   846     0   845   845                  PRN / # OF OBS
           3   917   918     0   909   909                  PRN / # OF OBS
           4   778   779     0   770   770                  PRN / # OF OBS
           5   713   713     0   708   708                  PRN / # OF OBS
           6   777   777     0   774   774                  PRN / # OF OBS
           7   741   741     0   740   740                  PRN / # OF OBS
           9   879   879     0   867   867                  PRN / # OF OBS
          10   887   887     0   876   876                  PRN / # OF OBS
          14   708   708     0   706   706                  PRN / # OF OBS
          15   890   890     0   877   877                  PRN / # OF OBS
          16   899   899     0   881   881                  PRN / # OF OBS
          17   849   850     0   847   847                  PRN / # OF OBS
          18   760   760     0   759   759                  PRN / # OF OBS
          19   845   845     0   842   842                  PRN / # OF OBS
          21   853   853     0   847   847                  PRN / # OF OBS
          22   893   893     0   873   873                  PRN / # OF OBS
          23   799   799     0   797   797                  PRN / # OF OBS
          24   702   702     0   698   698                  PRN / # OF OBS
          25   660   660     0   658   658                  PRN / # OF OBS
          26   938   938     0   925   925                  PRN / # OF OBS
          27   812   812     0   811   811                  PRN / # OF OBS
          28   730     1   732   730   730                  PRN / # OF OBS
          29   846   846     0   844   844                  PRN / # OF OBS
          31   931   932     0   923   923                  PRN / # OF OBS
                                                            END OF HEADER
 96  9  8  0  0 30.0000000  0  6  1 14 15 21 25 29
  22445094.79110  22748183.71100                  17531747.92550  22748187.60240
  -2276655.64210  23337312.22700                  -1759742.26550  23337316.15240
  -3804622.96810  21053716.80500                     81360.80750  21053720.64840
  35123579.97610  23409684.83600                   6926480.38850  23409688.82040
   -529806.40510  20929491.03100                   -359283.13650  20929493.63340
  -1315534.25610  23499454.99200                   -979415.30150  23499458.52040
 96  9  8  0  1  0.0000000  0  6  1 14 15 21 25 29
  22581790.42200  22774196.62500                  17638263.99140  22774200.55140
  -2296418.50600  23333552.11700                  -1775141.84740  23333555.66840
  -3753100.84400  21063521.00000                    121507.92640  21063524.89140
  35269898.80400  23437528.38300                   7040495.00940  23437533.92640
   -478669.37300  20939221.80500                   -319436.08340  20939224.39540
  -1318910.42200  23498812.54700                   -982046.03640  23498816.52040
 96  9  8  0  1 30.0000000  0  6  1 14 15 21 25 29
  22718589.73100  22800227.95300                  17744860.83940  22800231.87940
  -2316110.09900  23329804.36700                  -1790485.93040  23329807.54340
  -3700929.79400  21073448.93800                    162160.69440  21073452.77040
  35416463.81500  23465418.57000                   7154701.42940  23465422.95340
   -426992.48500  20949055.75800                   -279168.36740  20949058.45340
  -1322107.37900  23498202.51600                   -984537.15240  23498205.70340
 96  9  8  0  2  0.0010000  0  6  1 14 15 21 25 29
  22855512.41000  22826283.40300                  17851553.82740  22826287.64640
  -2335707.95200  23326075.49700                  -1805756.95440  23326079.41140
  -3648086.76800  21083504.66100                    203337.08340  21083508.39940
  35563309.88800  23493361.98900                   7269126.94240  23493366.84140
   -374744.18600  20958998.44200                   -238455.39340  20959001.26740
  -1325126.27000  23497629.32500                   -986889.50640  23497632.40740
 96  9  8  0  2 30.0010000  0  6  1 14 15 21 25 29
  22992538.96700  22852358.90300                  17958327.75940  22852363.42740
  -2355222.41900  23322361.44200                  -1820963.00740  23322365.21640
  -3594589.16600  21093684.77100                    245023.52640  21093688.59140
  35710415.71300  23521356.91900                   7383754.74740  23521361.56040
   -321934.12900  20969047.76300                   -197304.68540  20969050.52840
  -1327993.25200  23497084.34100                   -989123.47840  23497088.09140
 96  9  8  0  3  0.0010000  0  6  1 14 15 21 25 29
  23129670.65000  22878454.46600                  18065183.59640  22878458.63840
  -2374669.42100  23318660.77800                  -1836116.46740  23318665.00940
  -3540438.46700  21103989.47400                    287218.88740  21103993.25940
  35857775.11900  23549398.06000                   7498580.22940  23549402.05640
   -268555.54900  20979205.31000                   -155710.97040  20979208.00540
  -1330697.53400  23496568.84100                   -991230.67540  23496571.92340
 96  9  8  0  3 30.0010000  0  6  1 14 15 21 25 29
  23266896.38000  22904567.94200                  18172112.73040  22904571.85640
  -2394047.05800  23314973.28600                  -1851215.90940  23314977.68140
  -3485631.89500  21114418.71600                    329925.31740  21114422.54840
  36005385.55200  23577486.28600                   7613601.26140  23577491.60640
   -214605.71900  20989471.65300                   -113672.12940  20989474.29040
  -1333226.35200  23496087.81700                   -993201.16840  23496090.79440
 96  9  8  0  4  0.0010000  0  6  1 14 15 21 25 29
  23404209.10100  22930697.55200                  18279109.65140  22930701.43140
  -2413360.19600  23311298.38000                  -1866265.06540  23311302.78640
  -3430173.12100  21124972.09900                    373139.95640  21124975.73140
  36153249.93400  23605624.41900                   7728820.25240  23605630.86440
   -160076.59700  20999848.20800                    -71181.89240  20999850.89240
  -1335559.56100  23495643.61400                   -995019.22040  23495647.31740
 96  9  8  0  4 30.0010000  0  6  1 14 15 21 25 29
  23541629.14500  22956847.56000                  18386190.19440  22956851.32140
  -2432597.43700  23307636.77100                  -1881255.08540  23307640.57940
  -3374053.98400  21135651.40300                    416869.17040  21135655.11840
  36301387.27300  23633814.67700                   7844251.88140  23633818.73140
   -104960.54400  21010336.50500                    -28234.30040  21010339.10640
  -1337681.59500  23495239.90300                   -996672.71640  23495243.98140
 96  9  8  0  5  0.0010000  0  6  1 14 15 21 25 29
  23679136.56600  22983014.68500                  18493338.81640  22983018.68140
  -2451774.61500  23303987.27100                  -1896198.31140  23303991.61840
  -3317286.93700  21146453.59100                    461103.23040  21146457.30640
  36449792.28400  23662055.57500                   7959892.09540  23662060.42740
    -49273.28800  21020933.27800                     15158.38040  21020936.02140
  -1339596.03000  23494875.28600                   -998164.45440  23494878.63840
 96  9  8  0  5 30.0010000  0  6  1 14 15 21 25 29
  23816729.80400  23009197.51300                  18600554.31540  23009201.62640
  -2470869.33400  23300354.27100                  -1911077.28540  23300358.12640
  -3259861.16300  21157381.48900                    505850.58840  21157385.22840
  36598494.17400  23690351.56000                   8075763.66040  23690356.36440
      6985.23900  21031638.96600                     58996.20440  21031641.60340
  -1341296.28400  23494552.14600                   -999489.29440  23494555.90740
 96  9  8  0  6  0.0010000  0  6  1 14 15 21 25 29
  23954403.76000  23035396.12200                  18707832.71440  23035400.11840
  -2489885.28400  23296735.62200                  -1925894.87340  23296740.11040
  -3201786.57900  21168432.52800                    551103.51740  21168436.17340
  36747490.56900  23718704.74700                   8191864.68240  23718710.45440
     63806.15700  21042451.68500                    103272.25740  21042454.28640
  -1342805.22700  23494264.39600                  -1000665.05040  23494267.74740
 96  9  8  0  6 30.0010000  0  6  1 14 15 21 25 29
  24092148.22500  23061608.41900                  18815166.04740  23061612.57940
  -2508808.99100  23293134.83300                  -1940640.57840  23293139.39240
  -3143058.40400  21179608.33300                    596865.73740  21179612.18840
  36896767.74600  23747110.89600                   8308184.51240  23747116.95440
    121185.37300  21053370.58300                    147983.34540  21053373.07940
  -1344126.33600  23494013.40300                  -1001694.45040  23494016.89640
 96  9  8  0  7  0.0010000  0  6  1 14 15 21 25 29
  24229954.12400  23087831.45000                  18922547.25540  23087835.36440
  -2527621.13000  23289554.18500                  -1955299.35740  23289558.34540
  -3083668.37600  21190909.79400                    643143.68540  21190913.56740
  37046309.18800  23775569.03600                   8424710.26140  23775573.38440
    179114.25100  21064394.08300                    193122.74540  21064396.61440
  -1345239.82800  23493801.16900                  -1002562.06840  23493804.53240
 96  9  8  0  7 30.0010000  0  6  1 14 15 21 25 29
  24367826.78900  23114068.09100                  19029980.49940  23114072.41540
  -2546328.91000  23285994.59100                  -1969876.83440  23285999.39640
  -3023622.57400  21202336.20000                    689932.61940  21202340.12640
  37196095.51200  23804072.20800                   8541426.83140  23804076.60340
    237586.27400  21075520.71600                    238685.37540  21075523.38840
  -1346158.84300  23493626.06700                  -1003278.13840  23493629.17340
 96  9  8  0  8  0.0010000  0  6  1 14 15 21 25 29
  24505762.65900  23140316.09100                  19137462.96740  23140319.68840
  -2564963.93300  23282448.63800                  -1984397.60040  23282452.61040
  -2962938.89300  21213883.99700                    737218.60840  21213887.86440
  37346089.69700  23832613.66900                   8658305.38640  23832620.04440
    296587.01100  21086748.26300                    284659.98640  21086750.93540
  -1346904.42200  23493484.53600                  -1003859.06340  23493488.27440
 96  9  8  0  8 30.0010000  0  6  1 14 15 21 25 29
  24643788.13200  23166581.88000                  19245015.26440  23166586.07540
  -2583525.53200  23278916.42700                  -1998861.15240  23278920.27140
  -2901602.05800  21225555.80200                    785013.54840  21225559.56340
  37496307.63900  23861199.97400                   8775358.28140  23861204.54440
    356131.22400  21098079.14600                    331058.08740  21098081.72440
  -1347448.53500  23493381.05200                  -1004282.99040  23493384.81340
 96  9  8  0  9  0.0010000  0  6  1 14 15 21 25 29
  24781920.27600  23192867.60600                  19352650.68940  23192871.12240
  -2602028.99200  23275395.04400                  -2013279.40740  23275398.91140
  -2839609.27200  21237352.78600                    833319.61540  21237356.57140
  37646767.84500  23889831.55200                   8892599.93040  23889836.35640
    416224.64300  21109514.69200                    377884.13740  21109517.25940
  -1347804.99200  23493313.00500                  -1004560.69240  23493316.42740
 96  9  8  0  9 30.0010000  0  6  1 14 15 21 25 29
  24920154.28100  23219172.34900                  19460365.49540  23219176.59140
  -2620484.95800  23271883.06700                  -2027660.65040  23271886.88840
  -2776956.87000  21249274.98900                    882139.66940  21249278.81040
  37797493.64000  23918514.12200                   9010048.56940  23918518.15340
    476884.97200  21121057.88800                    425151.93940  21121060.43140
  -1347983.65800  23493280.26300                  -1004699.86540  23493284.21240
 96  9  8  0 10  0.0010000  0  6  1 14 15 21 25 29
  25058476.94000  23245494.61400                  19568149.36140  23245498.11840
  -2638882.19100  23268382.46600                  -2041996.14040  23268385.98140
  -2713643.35500  21261323.06000                    931474.87640  21261326.95040
  37948491.62500  23947248.97400                   9127709.28340  23947254.16540
    538113.05700  21132709.38800                    472862.14940  21132711.95440
  -1347984.37100  23493279.44200                  -1004700.37040  23493282.52440
 96  9  8  0 10 30.0010000  0  6  1 14 15 21 25 29
  25196859.48500  23271828.35600                  19675979.88340  23271831.89640
  -2657212.63000  23264893.75500                  -2056279.55840  23264897.18840
  -2649679.43000  21273495.10600                    981316.89440  21273498.97440
  38099757.15000  23976032.14600                   9245578.50140  23976037.97040
    599906.35600  21144468.09100                    521012.78140  21144470.56340
  -1347828.10400  23493308.89600                  -1004578.55040  23493312.38840
 96  9  8  0 11  0.0010000  0  6  1 14 15 21 25 29
  25335284.16900  23298169.33300                  19783843.26840  23298173.30640
  -2675447.80000  23261424.40300                  -2070488.74640  23261428.64640
  -2585068.93600  21285789.99700                   1031662.72540  21285793.94640
  38251280.93300  24004867.70000                   9363648.90240  24004873.85340
    662251.46000  21156331.94200                    569593.39840  21156334.47440
  -1347528.24900  23493365.63800                  -1004344.84440  23493369.73940
 96  9  8  0 11 30.0010000  0  6  1 14 15 21 25 29
  25473752.18000  23324518.40300                  19891740.39640  23324522.48140
  -2693558.51200  23257977.28600                  -2084600.96340  23257981.52840
  -2519809.13200  21298208.56700                   1082514.50940  21298212.44640
  38403056.15200  24033749.96600                   9481915.26140  24033754.82940
    725151.70400  21168301.42700                    618606.58140  21168303.93540
  -1347064.77700  23493453.52800                  -1003983.65140  23493457.78240
 96  9  8  0 12  0.0010000  0  6  1 14 15 21 25 29
  25612308.15500  23350885.43500                  19999706.07540  23350889.11440
  -2711516.67600  23254560.01300                  -2098594.29740  23254563.98540
  -2453883.65000  21310753.88000                   1133884.99640  21310757.71240
  38555091.29400  24062680.14600                   9600384.16240  24062685.17340
    788621.06100  21180379.10600                    668063.23640  21180381.67340
  -1346415.41600  23493577.49700                  -1003477.59740  23493581.27140
 96  9  8  0 12 30.0010000  0  6  1 14 15 21 25 29
  25750960.99200  23377269.81700                  20107747.22740  23377273.74340
  -2729321.56700  23251171.88000                  -2112468.21740  23251176.12240
  -2387296.34800  21323424.89600                   1185771.19340  21323428.73940
  38707386.73600  24091660.81000                   9719055.88940  24091665.09940
    852647.69700  21192563.12200                    717954.13140  21192565.72440
  -1345572.73800  23493737.71600                  -1002820.92240  23493740.92740
 96  9  8  0 13  0.0010000  0  6  1 14 15 21 25 29
  25889712.42900  23403673.44200                  20215865.21140  23403677.74340
  -2746984.89300  23247810.62200                  -2126231.80540  23247814.78240
  -2320050.69700  21336221.29400                   1238170.40540  21336225.10340
  38859938.97300  24120691.20000                   9837927.73340  24120695.61840
    917218.15100  21204850.55200                    768268.78040  21204853.21240
  -1344524.31600  23493936.92700                  -1002003.91340  23493940.43140
 96  9  8  0 13 30.0010000  0  6  1 14 15 21 25 29
  26028571.94200  23430097.68500                  20324067.41040  23430101.11840
  -2764532.36300  23244471.69200                  -2139905.13140  23244475.99340
  -2252141.22300  21349144.03600                   1291086.87840  21349147.93840
  39012750.58400  24149768.92700                   9957001.64440  24149774.77440
    982353.93800  21217245.24700                    819023.95140  21217247.86040
  -1343260.25500  23494177.47400                  -1001018.89240  23494180.89640
 96  9  8  0 14  0.0020000  0  6  1 14 15 21 25 29
  26167536.74400  23456541.62700                  20432351.66140  23456545.34240
  -2781980.53300  23241151.49400                  -2153501.07140  23241155.73640
  -2183569.83700  21362192.83800                   1344519.12140  21362196.75240
  39165824.88400  24178898.58800                  10076280.25840  24178903.21740
   1048043.55600  21229745.73600                    870210.67440  21229748.35040
  -1341782.52300  23494458.78300                   -999867.36040  23494461.98240
 96  9  8  0 14 30.0020000  0  6  1 14 15 21 25 29
  26306555.61800  23482996.41600                  20540678.04940  23482999.56840
  -2799346.92600  23237846.73600                  -2167033.28740  23237850.27540
  -2114350.09900  21375364.98600                   1398456.57840  21375369.02940
  39319131.64900  24208072.54900                  10195740.04140  24208077.78740
   1114278.38300  21242349.65800                    921822.24040  21242352.26040
  -1340093.51200  23494780.01800                   -998551.21240  23494783.51040
 96  9  8  0 15  0.0020000  0  6  1 14 15 21 25 29
  26445640.91800  23509463.28300                  20649056.18340  23509466.79940
  -2816633.44800  23234557.39300                  -2180503.27740  23234561.20140
  -2044466.53900  21388663.24400                   1452911.30940  21388667.07640
  39472670.85300  24237289.15000                  10315380.87340  24237294.41240
   1181083.10500  21255062.24400                    973877.88040  21255064.88140
  -1338187.57700  23495142.65000                   -997066.01940  23495145.72140
 96  9  8  0 15 30.0020000  0  6  1 14 15 21 25 29
  26584801.48900  23535944.43200                  20757492.98240  23535948.01840
  -2833842.01200  23231282.86900                  -2193912.50540  23231287.12340
  -1973919.53500  21402087.87700                   1507883.00840  21402091.81440
  39626438.18600  24266551.64300                  10435199.54240  24266557.64340
   1248447.58400  21267881.27500                   1026369.69140  21267883.85440
  -1336067.73000  23495546.65000                   -995414.12940  23495550.63540
 96  9  8  0 16  0.0020000  0  6  1 14 15 21 25 29
  26724032.83500  23562439.87700                  20865984.91840  23562444.14340
  -2850952.76600  23228026.37700                  -2207245.52340  23228030.66640
  -1902711.06800  21415638.48600                   1563370.13640  21415642.60040
  39780429.14500  24295854.63500                  10555192.50740  24295861.45540
   1316355.33800  21280803.64300                   1079284.83540  21280806.22140
  -1333743.66700  23495988.57200                   -993603.14140  23495991.52540
 96  9  8  0 16 30.0020000  0  6  1 14 15 21 25 29
  26863346.08100  23588949.36900                  20974540.68940  23588953.54140
  -2867957.97400  23224790.22100                  -2220496.30640  23224793.74840
  -1830835.67400  21429315.83800                   1619376.95240  21429319.83440
  39934645.21800  24325201.14300                  10675360.77140  24325205.46740
   1384824.15000  21293832.76000                   1132637.16640  21293835.36140
  -1331227.46500  23496467.58800                   -991642.41740  23496471.04540
 96  9  8  0 17  0.0020000  0  6  1 14 15 21 25 29
  27002742.97500  23615476.16600                  21083161.62940  23615480.10440
  -2884858.21800  23221574.17400                  -2233665.30640  23221578.04140
  -1758309.26500  21443117.14300                   1675891.04740  21443121.10440
  40089092.42200  24354591.75200                  10795709.20040  24354598.56140
   1453816.70600  21306961.69700                   1186397.61240  21306964.26440
  -1328550.70800  23496977.04900                   -989556.58140  23496980.75240
 96  9  8  0 17 30.0020000  0  6  1 14 15 21 25 29
  27142230.51600  23642019.73600                  21191853.19840  23642022.61940
  -2901617.89600  23218384.97900                  -2246724.77440  23218388.45940
  -1685115.33300  21457045.50200                   1732925.28740  21457049.38140
  40243805.43400  24384032.98600                  10916264.72740  24384037.41640
   1523352.56100  21320193.83800                   1240581.40640  21320196.42840
  -1325695.56500  23497519.83000                   -987331.75840  23497523.27540
 96  9  8  0 18  0.0020000  0  6  1 14 15 21 25 29
  27281785.16700  23668576.49400                  21300597.05240  23668580.01040
  -2918238.18900  23215222.58000                  -2259675.62940  23215226.16640
  -1611256.97600  21471100.43900                   1790477.25240  21471104.27140
  40398785.97800  24413524.46300                  11037028.72740  24413529.08040
   1593454.14300  21333533.91600                   1295206.02440  21333536.48240
  -1322670.78100  23498095.30700                   -984974.74940  23498098.23640
 96  9  8  0 18 30.0020000  0  6  1 14 15 21 25 29
  27421396.92600  23695142.90800                  21409385.43840  23695147.27940
  -2934733.89000  23212083.58800                  -2272529.40140  23212086.77540
  -1536734.82200  21485281.38500                   1848546.46640  21485285.12340
  40554046.38700  24443070.34600                  11158010.85240  24443076.28740
   1664127.26100  21346982.43900                   1350275.99740  21346984.92440
  -1319470.27600  23498703.96300                   -982480.82140  23498707.38540
 96  9  8  0 19  0.0020000  0  6  1 14 15 21 25 29
  27561044.62600  23721717.33800                  21518201.79140  23721721.01840
  -2951102.20200  23208968.39300                  -2285283.91340  23208971.94340
  -1461555.25900  21499587.55700                   1907127.94240  21499591.31840
  40709589.60300  24472667.53300                  11279213.28240  24472673.43940
   1735364.58200  21360538.29100                   1405785.60740  21360540.95140
  -1316083.99500  23499348.51800                   -979842.13440  23499351.98640
 96  9  8  0 19 30.0020000  0  6  1 14 15 21 25 29
  27700738.07800  23748300.78300                  21627053.81340  23748305.22540
  -2967335.71900  23205879.43900                  -2297933.39240  23205883.10740
  -1385711.63000  21514020.19700                   1966226.87240  21514023.97140
  40865406.08000  24502317.91600                  11400628.65440  24502322.85040
   1807195.97000  21374207.36900                   1461758.12440  21374209.91240
  -1312493.08500  23500031.87700                   -977043.99340  23500035.08840
 96  9  8  0 20  0.0020000  0  6  1 14 15 21 25 29
  27840482.56800  23774893.34600                  21735945.59540  23774896.97940
  -2983432.40200  23202816.20500                  -2310476.24140  23202819.59240
  -1309202.72400  21528579.23600                   2025844.20040  21528583.08040
  41021488.05900  24532021.33000                  11522250.93340  24532025.13940
   1879607.62600  21387987.00200                   1518182.80040  21387989.60440
  -1308689.96900  23500756.43900                   -974080.50340  23500759.62740
 96  9  8  0 20 30.0020000  0  6  1 14 15 21 25 29
  27980298.23200  23801498.58000                  21844892.85240  23801501.93240
  -2999370.09700  23199783.01000                  -2322895.20640  23199786.86540
  -1232023.63500  21543266.14300                   2085983.74640  21543270.04540
  41177831.95700  24561770.92400                  11644077.27740  24561776.16240
   1952588.44600  21401874.54900                   1575050.97740  21401877.13940
  -1304661.84100  23501522.60400                   -970941.67740  23501525.87340
 96  9  8  0 21  0.0020000  0  6  1 14 15 21 25 29
  28120186.62900  23828119.54100                  21953896.75140  23828123.37340
  -3015155.41400  23196779.93900                  -2335195.43540  23196783.11540
  -1154190.65700  21558077.16600                   2146632.81240  21558081.08040
  41334401.67000  24591566.41600                  11766079.61740  24591572.85040
   2026119.03000  21415867.12700                   1632347.54140  21415869.63540
  -1300419.55200  23502329.56400                   -967635.96340  23502332.31840
 96  9  8  0 21 30.0020000  0  6  1 14 15 21 25 29
  28260179.38400  23854758.09600                  22062982.00140  23854761.81140
  -3030782.93000  23193805.41600                  -2347372.69340  23193809.14340
  -1075686.48700  21573015.94700                   2207804.89240  21573019.66240
  41491198.18900  24621403.98600                  11888258.71740  24621410.23240
   2100207.57800  21429965.82200                   1690078.88440  21429968.44740
  -1295957.66700  23503178.69700                   -964159.14940  23503181.82640
 96  9  8  0 22  0.0020000  0  6  1 14 15 21 25 29
  28400264.38800  23881415.98600                  22172139.11940  23881419.83040
  -3046271.25600  23190857.99400                  -2359441.50140  23190861.81440
   -996519.82500  21588080.93900                   2269493.19640  21588084.68940
  41648220.16800  24651283.96300                  12010613.36840  24651291.31440
   2174839.12800  21444167.61100                   1748233.34440  21444170.14340
  -1291291.16200  23504066.43900                   -960522.87440  23504069.28740
 96  9  8  0 22 30.0020000  0  6  1 14 15 21 25 29
  28540457.04700  23908093.03300                  22281380.13940  23908096.43240
  -3061638.51900  23187934.14300                  -2371415.96040  23187938.04540
   -916688.65200  21603272.23600                   2331699.30740  21603275.97540
  41805469.18900  24681208.16600                  12133145.07440  24681213.87340
   2250027.16400  21458475.36900                   1806821.42840  21458477.92440
  -1286432.47400  23504991.22900                   -956736.85340  23504994.49840
 96  9  8  0 23  0.0020000  0  6  1 14 15 21 25 29
  28680749.57300  23934790.01000                  22390698.97540  23934793.60740
  -3076894.70200  23185030.79100                  -2383303.86540  23185034.85740
   -836187.31900  21618591.08000                   2394427.61340  21618594.71340
  41962955.10800  24711176.74400                  12255861.31740  24711182.68640
   2325766.16200  21472888.10400                   1865838.83240  21472890.58840
  -1281392.20500  23505950.18900                   -952809.34040  23505953.29540
 96  9  8  0 23 30.0020000  0  6  1 14 15 21 25 29
  28821123.06100  23961502.70500                  22500080.87840  23961506.09240
  -3092031.24100  23182150.83000                  -2395098.54240  23182154.26440
   -755017.16600  21634037.47100                   2457677.07540  21634041.09240
  42120691.52200  24741193.10400                  12378772.74140  24741199.38540
   2402060.91200  21487406.47100                   1925289.29440  21487409.07240
  -1276179.41200  23506942.03300                   -948747.37940  23506945.02140
 96  9  8  0 24  0.0020000  0  6  1 14 15 21 25 29
  28961557.79300  23988226.32200                  22609510.53240  23988229.81440
  -3107025.63100  23179297.10400                  -2406782.45440  23179300.54940
   -673182.85300  21649610.11900                   2521444.06240  21649613.83440
  42278685.06200  24771257.73600                  12501884.55940  24771262.67040
   2478923.26400  21502032.81400                   1985182.04340  21502035.46340
  -1270786.81700  23507968.14300                   -944545.32140  23507971.14340
 96  9  8  0 24 30.0020000  0  6  1 14 15 21 25 29
  29102031.20700  24014957.48600                  22718970.30240  24014961.77540
  -3121871.66200  23176471.79900                  -2418350.76440  23176475.44340
   -590687.90200  21665308.14300                   2585725.82940  21665311.84640
  42436927.25700  24801369.87700                  12625190.11740  24801376.07640
   2556340.10000  21516764.66600                   2045506.85740  21516767.15040
  -1265219.51600  23509028.08000                   -940207.13340  23509031.05740
 96  9  8  0 25  0.0020000  0  6  1 14 15 21 25 29
  29242525.49500  24041692.26000                  22828446.36440  24041696.60740
  -3136537.24800  23173680.98600                  -2429778.46240  23173684.67840
   -507530.57800  21681132.53300                   2650523.72940  21681136.31840
  42595423.59100  24831531.21300                  12748693.70740  24831537.42440
   2634309.57500  21531601.88500                   2106262.29840  21531604.43940
  -1259459.87600  23510123.67400                   -935719.08240  23510126.31140
 96  9  8  0 25 30.0020000  0  6  1 14 15 21 25 29
  29383055.62800  24068435.42400                  22937950.34440  24068440.00640
  -3151015.90200  23170925.61900                  -2441060.50540  23170928.87740
   -423712.77500  21697082.52500                   2715836.29240  21697086.25240
  42754175.08100  24861740.40000                  12872396.06540  24861746.58840
   2712845.46700  21546546.66600                   2167459.10940  21546549.17440
  -1253495.51800  23511258.75200                   -931071.50740  23511261.40040
 96  9  8  0 26  0.0030000  0  6  1 14 15 21 25 29
  29523643.45500  24095188.28800                  23047499.28040  24095191.68740
  -3165315.67100  23168204.52200                  -2452203.15240  23168208.36640
   -339226.70300  21713159.81200                   2781669.57840  21713163.65540
  42913189.96600  24892000.09300                  12996303.78540  24892003.92540
   2791946.87300  21561599.28800                   2229096.57240  21561601.78440
  -1247319.98700  23512433.58500                   -926259.38040  23512436.90140
 96  9  8  0 26 30.0030000  0  6  1 14 15 21 25 29
  29664295.33500  24121952.49100                  23157098.14440  24121956.47640
  -3179456.80000  23165513.75700                  -2463222.19240  23165517.36640
   -254082.25000  21729362.31200                   2848015.89740  21729366.03840
  43072445.50100  24922306.13200                  13120398.91440  24922311.35840
   2871588.33700  21576754.60800                   2291154.86640  21576757.14040
  -1240939.32400  23513648.42100                   -921287.39740  23513651.94840
 96  9  8  0 27  0.0030000  0  6  1 14 15 21 25 29
  29805043.11000  24148736.32700                  23266771.71140  24148740.19440
  -3193434.55700  23162853.60800                  -2474113.92440  23162857.79240
   -168273.91600  21745691.03000                   2914879.52140  21745694.74540
  43231951.97800  24952659.24100                  13244689.65540  24952663.35440
   2951782.99200  21592015.12400                   2353644.21540  21592017.63240
  -1234335.30300  23514904.79600                   -916141.37540  23514908.42940
 96  9  8  0 27 30.0030000  0  6  1 14 15 21 25 29
  29945898.82500  24175541.22600                  23376529.37640  24175545.38640
  -3207254.97600  23160223.61600                  -2484883.06440  23160227.37840
    -81800.02000  21762146.46800                   2982261.76640  21762150.25340
  43391706.58100  24983058.35800                  13369173.74640  24983063.51540
   3032548.63200  21607384.11600                   2416578.49040  21607386.70640
  -1227507.54700  23516203.74900                   -910821.01740  23516206.39740
 96  9  8  0 28  0.0030000  0  6  1 14 15 21 25 29
  30086854.20300  24202363.83500                  23486364.73040  24202367.33940
  -3220914.14100  23157624.60100                  -2495526.55040  23157628.43340
      5342.39100  21778729.03800                   3050164.93940  21778732.83540
  43551706.83800  25013506.39000                  13493849.10940  25013511.32340
   3113883.21900  21622861.66300                   2479956.09840  21622864.24140
  -1220447.69200  23517547.06200                   -905319.81140  23517550.16740
 96  9  8  0 28 30.0030000  0  6  1 14 15 21 25 29
  30227901.34100  24229203.06900                  23596271.58840  24229207.59340
  -3234403.19200  23155057.77200                  -2506037.47740  23155061.67540
     93153.30400  21795439.14000                   3118589.02240  21795442.93740
  43711945.55400  25043999.39000                  13618710.46840  25044004.92140
   3195782.47400  21638446.60800                   2543773.71140  21638449.24540
  -1213138.59800  23518937.89700                   -899624.37640  23518940.60440
 96  9  8  0 29  0.0030000  0  6  1 14 15 21 25 29
  30369027.45200  24256059.81200                  23706239.96740  24256063.99540
  -3247719.15100  23152523.41300                  -2516413.52540  23152527.15140
    181626.95900  21812274.99100                   3187529.53540  21812278.78840
  43872422.53100  25074536.92100                  13743757.40940  25074541.87840
   3278258.15900  21654141.21800                   2608040.48740  21654143.92540
  -1205590.29300  23520374.53000                   -893742.54640  23520377.33140
 96  9  8  0 29 30.0030000  0  6  1 14 15 21 25 29
  30510226.17000  24282928.98300                  23816264.91440  24282932.60440
  -3260863.70500  23150022.34300                  -2526656.02440  23150025.90540
    270759.37200  21829236.31900                   3256983.36240  21829240.15140
  44033138.71500  25105119.53000                  13868990.70740  25105125.56540
   3361299.04600  21669943.29600                   2672747.67640  21669946.00340
  -1197825.71800  23521852.12400                   -887692.18440  23521855.22940
 96  9  8  0 30  0.0030000  0  6  1 14 15 21 25 29
  30651494.45800  24309810.48300                  23926344.08840  24309814.30440
  -3273838.64900  23147553.40500                  -2536766.34440  23147557.74140
    360547.16700  21846322.25700                   3326947.87840  21846326.06540
  44194103.72000  25135750.21800                  13994417.90740  25135755.89040
   3444871.94900  21685846.73300                   2737869.42640  21685849.21840
  -1189855.23400  23523368.99100                   -881481.37340  23523371.65140
 96  9  8  0 30 30.0030000  0  6  1 14 15 21 25 29
  30792833.64700  24336706.55400                  24036478.51540  24336711.34740
  -3286632.80400  23145118.70200                  -2546735.79840  23145122.49940
    450992.24700  21863533.45200                   3397424.55840  21863537.27240
  44355314.50200  25166427.67900                  14120036.69740  25166432.75340
   3528977.31700  21701851.44400                   2803406.08440  21701853.97640
  -1181693.03200  23524922.08500                   -875121.19140  23524924.95640
 96  9  8  0 31  0.0030000  0  6  1 14 15 21 25 29
  30934248.56200  24363617.60800                  24146671.91740  24363621.53440
  -3299247.70700  23142718.32700                  -2556565.58140  23142721.80840
    542094.21700  21880869.54600                   3468413.10140  21880873.48340
  44516770.32900  25197151.17900                  14245846.36040  25197156.58140
   3613619.39200  21717958.38200                   2869360.95540  21717960.96040
  -1173359.87200  23526507.53000                   -868627.79440  23526510.36640
 96  9  8  0 31 30.0030000  0  6  1 14 15 21 25 29
  31075732.81900  24390540.97600                  24256919.36140  24390545.11240
  -3311676.27100  23140353.29600                  -2566250.15940  23140357.11640
    633853.12900  21898330.63200                   3539913.55040  21898334.58140
  44678468.16600  25227922.37400                  14371844.55440  25227928.36240
   3698778.67100  21734163.56900                   2935718.84540  21734166.15940
  -1164846.62300  23528127.71000                   -861994.05640  23528130.52240
 96  9  8  0 32  0.0030000  0  6  1 14 15 21 25 29
  31217261.53500  24417472.38200                  24367201.48440  24417475.38240
  -3323924.43000  23138022.61600                  -2575794.16540  23138026.17940
    726263.93700  21915915.84300                   3611921.97440  21915919.79240
  44840387.92900  25258733.88200                  14498015.78540  25258736.43740
   3784461.67300  21750468.30400                   3002484.82840  21750470.90540
  -1156147.19800  23529782.64700                   -855215.25240  23529785.81240
 96  9  8  0 32 30.0030000  0  6  1 14 15 21 25 29
  31358835.94900  24444412.77200                  24477519.18940  24444417.12040
  -3335992.92500  23135725.78800                  -2585198.17040  23135729.25740
    819327.43700  21933625.39700                   3684438.98940  21933629.12440
  45002516.92800  25289586.10800                  14624350.01840  25289591.24140
   3870692.94100  21766877.78000                   3069678.02940  21766880.38240
  -1147257.30800  23531474.24100                   -848288.03340  23531477.05440
 96  9  8  0 33  0.0030000  0  6  1 14 15 21 25 29
  31500476.21700  24471365.72600                  24587888.22840  24471370.29640
  -3347865.54800  23133466.29600                  -2594449.54240  23133469.78840
    913052.75600  21951460.64000                   3757471.70540  21951464.48340
  45164882.99300  25320484.04600                  14750868.91940  25320488.72240
   3957485.08700  21783393.67100                   3137308.28240  21783396.15540
  -1138157.02900  23533206.57700                   -841196.87540  23533209.29640
 96  9  8  0 33 30.0030000  0  6  1 14 15 21 25 29
  31642173.90600  24498330.71000                  24698301.96040  24498335.38640
  -3359540.54700  23131244.39000                  -2603546.93340  23131248.18740
   1007429.38700  21969419.92900                   3831011.93540  21969423.63240
  45327483.44100  25351425.13200                  14877570.50540  25351431.83540
   4044832.77100  21800015.42100                   3205371.41640  21800017.89440
  -1128855.87700  23534976.81900                   -833949.18640  23534979.45640
 96  9  8  0 34  0.0030000  0  6  1 14 15 21 25 29
  31783934.77700  24525306.57700                  24808764.98640  24525310.78440
  -3371021.31600  23129060.22600                  -2612492.97240  23129063.69440
   1102455.48700  21987502.83500                   3905058.24140  21987506.55040
  45490312.20900  25382411.03000                  15004450.04640  25382418.04240
   4132738.10600  21816743.01500                   3273869.08640  21816745.48740
  -1119354.83600  23536784.46800                   -826545.73840  23536787.78440
 96  9  8  0 34 30.0030000  0  6  1 14 15 21 25 29
  31925788.86200  24552300.43700                  24919300.62840  24552304.43340
  -3382289.45500  23126915.67900                  -2621273.33240  23126919.04240
   1198133.98400  22005709.83500                   3979612.90440  22005713.56240
  45653371.47700  25413439.40500                  15131509.18340  25413444.03440
   4221194.78200  21833575.81900                   3342796.37140  21833578.40940
  -1109644.63100  23538632.28800                   -818979.32040  23538635.12440
 96  9  8  0 35  0.0030000  0  6  1 14 15 21 25 29
  32067724.85400  24579311.12400                  25029900.05140  24579315.56540
  -3393352.31600  23124810.46000                  -2629893.72640  23124814.23340
   1294449.65400  22024038.06200                   4054664.06940  22024041.77640
  45816645.42500  25444510.05400                  15258735.49240  25444514.15540
   4310179.18100  21850509.06900                   3412134.86540  21850511.65940
  -1099741.13100  23540516.44400                   -811262.28540  23540519.26940
 96  9  8  0 35 30.0030000  0  6  1 14 15 21 25 29
  32209736.04600  24606334.99100                  25140558.11040  24606339.05840
  -3404214.63700  23122743.62400                  -2638357.85140  23122747.15140
   1391405.59400  22042488.14700                   4130214.15140  22042492.01540
  45980121.53300  25475618.56900                  15386119.49940  25475624.31240
   4399697.31400  21867543.80400                   3481889.25940  21867546.30040
  -1089643.26500  23542438.32700                   -803393.79640  23542441.39740
 96  9  8  0 36  0.0030000  0  7  1 14 15 21 22 25 29
  32351823.15800  24633373.27200                  25251275.34340  24633376.65940
  -3414874.75900  23120714.82700                  -2646664.42340  23120718.42540
   1489006.37500  22061061.09300                   4206266.69940  22061064.93740
  46143800.73700  25506765.62400                  15513661.68640  25506770.32340
    -10754.28110  25579488.28000
   4489755.96300  21884681.56900                   3552064.83140  21884684.08940
  -1079336.91100  23544399.60100                   -795362.84440  23544402.39040
 96  9  8  0 36 30.0030000  0  7  1 14 15 21 22 25 29
  32493997.94200  24660428.40500                  25362060.86540  24660431.21840
  -3425321.97800  23118726.82700                  -2654805.10040  23118730.27240
   1587267.62900  22079759.42900                   4282833.91040  22079763.23740
  46307715.63400  25537958.33500                  15641387.50140  25537966.02640
    -40091.03600  25573906.10100
   4580377.77000  21901926.30400                   3622679.22740  21901928.80040
  -1068815.07500  23546401.65500                   -787163.98540  23546404.97240
 96  9  8  0 37  0.0030000  0  7  1 14 15 21 22 25 29
  32636213.86800  24687491.10100                  25472878.43740  24687495.85840
  -3435589.84300  23116772.90500                  -2662806.01640  23116776.57340
   1686164.55100  22098578.96000                   4359896.45040  22098582.88640
  46471852.54700  25569191.72600                  15769286.37940  25569195.82740
    -69466.57800  25568315.96800
   4671536.80100  21919273.27200                   3693712.23640  21919275.72240
  -1058105.17800  23548439.57700                   -778818.59640  23548443.15140
 96  9  8  0 37 30.0030000  0  7  1 14 15 21 22 25 29
  32778471.78400  24714561.53800                  25583728.76040  24714565.53440
  -3445675.24900  23114853.53000                  -2670664.76640  23114857.01140
   1785702.57400  22117520.31900                   4437458.54640  22117524.06940
  46636220.88900  25600469.35100                  15897365.62740  25600474.62440
    -98872.72000  25562718.79600                    -19096.65650  25562723.47240
   4763237.40500  21936723.36600                   3765167.25240  21936725.78040
  -1047191.05200  23550517.14700                   -770314.05740  23550520.05440
 96  9  8  0 38  0.0040000  0  6  1 14 15 22 25 29
  32920778.35100  24741641.95700                  25694617.00340  24741645.82440
  -3455582.76200  23112968.61300                  -2678384.88040  23112972.01240
   1885877.65000  22136583.16800                   4515517.04640  22136586.88340
   -128313.80400  25557117.79300                    -42037.74140  25557122.14140
   4855460.20000  21954272.82400                   3837029.17240  21954275.20340
  -1036062.22600  23552634.81600                   -761642.22140  23552637.77040
 96  9  8  0 38 30.0040000  0  6  1 14 15 22 25 29
  33063139.50700  24768731.98000                  25805547.75440  24768735.98840
  -3465299.99700  23111118.98000                  -2685956.73540  23111122.74240
   1986693.73600  22155767.93400                   4594075.03240  22155771.73040
   -157784.49000  25551510.00400                    -65001.81440  25551513.90640
   4948201.32100  21971920.91000                   3909294.98240  21971923.30140
  -1024712.84500  23554794.19100                   -752798.51940  23554797.15640
 96  9  8  0 39  0.0040000  0  6  1 14 15 22 25 29
  33205564.85300  24795834.55900                  25916528.54140  24795838.05140
  -3474817.59800  23109307.98000                  -2693373.03540  23109311.27340
   2088150.14100  22175074.25400                   4673131.96640  22175077.95740
   -187287.36200  25545894.52700                    -87990.97740  25545900.82040
   5041463.52800  21989667.98000                   3981966.84040  21989670.31240
  -1013146.01600  23556995.03500                   -743785.39140  23556997.74240
 96  9  8  0 39 30.0040000  0  6  1 14 15 22 25 29
  33348053.65800  24822949.86300                  26027558.73840  24822952.92240
  -3484132.87500  23107535.19100                  -2700631.67340  23107538.78940
   2190242.92600  22194501.84000                   4752684.77740  22194505.48440
   -216819.66700  25540274.51200                   -111003.21940  25540280.88740
   5135244.83800  22007514.07400                   4055043.19040  22007516.47740
  -1001368.38600  23559236.18400                   -734608.00840  23559239.10240
 96  9  8  0 40  0.0040000  0  6  1 14 15 22 25 29
  33490604.79000  24850076.27000                  26138637.53540  24850080.50040
  -3493233.33600  23105803.84000                  -2707722.92140  23105807.44940
   2292970.53300  22214050.33200                   4832732.25140  22214054.05940
   -246374.76100  25534650.40200                   -134032.98740  25534653.75440
   5229552.17700  22025459.88700                   4128529.43340  22025462.37140
   -989397.74200  23561513.87900                   -725280.20340  23561516.70340
 96  9  8  0 40 30.0040000  0  6  1 14 15 22 25 29
  33633207.25800  24877212.91000                  26249756.30540  24877216.70740
  -3502114.23100  23104113.18400                  -2714643.07240  23104116.80540
   2396328.73100  22233718.78500                   4913271.09540  22233722.58240
   -275942.40200  25529023.11300                   -157072.56640  25529029.40640
   5324396.65900  22043508.38700                   4202434.23140  22043510.77740
   -977265.22200  23563822.73000                   -715826.26340  23563825.97740
 96  9  8  0 41  0.0040000  0  6  1 14 15 22 25 29
  33775858.22600  24904357.69900                  26360912.90540  24904361.96540
  -3510762.46700  23102468.07400                  -2721381.93840  23102471.56640
   2500313.50200  22253506.35500                   4994298.17440  22253510.29340
   -305497.09700  25523399.56600                   -180102.10540  25523404.34840
   5419765.26400  22061656.42600                   4276747.43840  22061658.75840
   -964965.03600  23566163.52000                   -706241.69040  23566166.54340
 96  9  8  0 41 30.0040000  0  6  1 14 15 22 25 29
  33918547.55300  24931510.47300                  26472099.38240  24931514.69140
  -3519171.49800  23100867.66000                  -2727934.40440  23100871.22340
   2604917.73600  22273412.01200                   5075807.95240  22273415.77340
   -335043.09200  25517777.60500                   -203124.92240  25517781.35540
   5515639.52300  22079900.79300                   4351454.66240  22079903.19540
   -952492.08000  23568537.00400                   -696522.48940  23568539.99240
 96  9  8  0 42  0.0040000  0  6  1 14 15 22 25 29
  34061293.65300  24958673.19900                  26583330.12340  24958677.05540
  -3527327.47900  23099315.68400                  -2734289.69640  23099319.32840
   2710147.58900  22293436.44100                   5157805.22340  22293440.29740
   -364563.24800  25512160.34000                   -226127.57740  25512164.72340
   5612030.15000  22098242.99600                   4426564.25040  22098245.45740
   -939832.81800  23570946.17600                   -686658.10840  23570949.18740
 96  9  8  0 42 30.0040000  0  6  1 14 15 22 25 29
  34204095.39100  24985848.52700                  26694604.16240  24985852.16040
  -3535231.19900  23097811.29300                  -2740448.42040  23097815.19540
   2816003.86400  22313580.33200                   5240290.61440  22313584.36340
   -394057.54900  25506547.69900                   -249110.05740  25506553.24240
   5708929.51400  22116682.62900                   4502070.25340  22116685.00840
   -926969.00700  23573394.11300                   -676634.35240  23573397.17240
 96  9  8  0 43  0.0040000  0  6  1 14 15 22 25 29
  34346951.79100  25013032.79300                  26805920.81140  25013037.19940
  -3542881.48400  23096355.77700                  -2746409.66240  23096359.49240
   2922485.18000  22333843.06600                   5323263.05440  22333846.81640
   -423531.85900  25500938.59000                   -272076.93040  25500943.82840
   5806350.63100  22135221.07400                   4577982.82440  22135223.46540
   -913876.07200  23575885.34800                   -666432.04140  23575888.12540
 96  9  8  0 43 30.0040000  0  6  1 14 15 22 25 29
  34489863.31000  25040228.69900                  26917280.44440  25040231.81640
  -3550295.13700  23094944.84000                  -2752186.50940  23094948.41440
   3029587.80800  22354223.77700                   5406719.64040  22354227.58640
   -453008.10300  25495328.77000                   -295045.35440  25495333.90240
   5904322.17500  22153864.35500                   4654324.29940  22153866.65240
   -900562.75500  23578419.09000                   -656058.00940  23578421.97340
 96  9  8  0 44  0.0040000  0  6  1 14 15 22 25 29
  34632835.81600  25067435.32400                  27028687.53240  25067438.85240
  -3557481.06000  23093577.66000                  -2757785.91040  23093581.59840
   3137317.63500  22374724.16800                   5490664.95040  22374728.02340
   -482482.11200  25489720.11300                   -318011.99940  25489725.32840
   6002864.71600  22172616.51200                   4731110.70240  22172618.92640
   -887030.53000  23580993.77000                   -645513.39840  23580996.68740
 96  9  8  0 44 30.0040000  0  6  1 14 15 22 25 29
  34775856.08900  25094651.23800                  27140131.88940  25094654.85940
  -3564459.50800  23092249.42600                  -2763223.65140  23092253.18740
   3245662.04400  22395341.48000                   5575089.15340  22395345.34840
   -511961.46600  25484110.23800                   -340982.85240  25484116.21540
   6101962.45500  22191474.10500                   4808329.72640  22191476.40240
   -873290.03200  23583608.34800                   -634806.51140  23583611.41840
 96  9  8  0 45  0.0040000  0  6  1 14 15 22 25 29
  34918931.44700  25121876.95700                  27251619.17340  25121880.42640
  -3571233.14700  23090960.30900                  -2768501.79440  23090963.98840
   3354618.11900  22416075.26200                   5659989.98040  22416079.16440
   -541451.63700  25478498.67600                   -363962.09140  25478504.75840
   6201604.62400  22210435.29300                   4885972.98040  22210437.63740
   -859354.45700  23586260.65200                   -623947.61640  23586263.39540
 96  9  8  0 45 30.0040000  0  6  1 14 15 22 25 29
  35062069.46700  25149116.01200                  27363155.24940  25149120.02040
  -3577805.62700  23089709.93400                  -2773623.19940  23089713.46140
   3464185.20200  22436925.09800                   5745366.91140  22436929.05940
   -570944.18800  25472886.13700                   -386943.21940  25472891.98440
   6301753.99300  22229493.06600                   4964011.45240  22229495.56240
   -845232.23400  23588947.98000                   -612943.27040  23588950.89840
 96  9  8  0 46  0.0040000  0  6  1 14 15 22 25 29
  35205271.13700  25176366.05100                  27474740.95940  25176370.04740
  -3584168.50300  23088499.14500                  -2778581.26740  23088502.59040
   3574362.08200  22457891.09800                   5831219.02240  22457895.07040
   -600419.91700  25467277.84000                   -409911.23540  25467283.35940
   6402377.55100  22248641.19100                   5042419.42640  22248643.69940
   -830915.05900  23591672.37900                   -601787.02540  23591675.26240
 96  9  8  0 46 30.0040000  0  6  1 14 15 22 25 29
  35348539.96900  25203629.58200                  27586378.98140  25203634.37540
  -3590317.17600  23087329.02700                  -2783372.42240  23087332.59040
   3685144.81500  22478972.21500                   5917543.22240  22478976.11740
   -629868.27300  25461672.66000                   -432857.93140  25461679.43440
   6503457.87600  22267876.01200                   5121183.31740  22267878.43740
   -816402.92600  23594433.78500                   -590478.87740  23594436.56240
 96  9  8  0 47  0.0040000  0  6  1 14 15 22 25 29
  35491877.92500  25230905.23000                  27698070.89040  25230908.39540
  -3596232.68600  23086203.16800                  -2787981.89840  23086206.82440
   3796537.07800  22500169.35500                   6004342.38340  22500173.43440
   -659285.66000  25456074.47300                   -455780.48140  25456078.65640
   6605003.77300  22287199.47300                   5200309.99540  22287201.88740
   -801689.85900  23597233.55100                   -579014.13140  23597236.37540
 96  9  8  0 47 30.0040000  0  6  1 14 15 22 25 29
  35635271.66500  25258193.03500                  27809806.23640  25258197.44140
  -3601923.22000  23085120.20700                  -2792416.07040  23085124.00440
   3908530.42700  22521481.23000                   6091609.92240  22521485.12140
   -688660.62300  25450485.66800                   -478669.97740  25450490.05140
   6707020.25700  22306612.73000                   5279803.36040  22306615.12140
   -786771.40300  23600072.70700                   -567389.33140  23600075.73040
 96  9  8  0 48  0.0040000  0  6  1 14 15 22 25 29
  35778720.28300  25285490.36300                  27921584.36040  25285494.57040
  -3607359.38200  23084086.06600                  -2796652.03240  23084089.37140
   4021129.25000  22542908.09800                   6179349.26040  22542912.07040
   -717981.26000  25444905.50400                   -501517.12340  25444911.21140
   6809535.93600  22326120.77700                   5359685.71140  22326123.21540
   -771642.15600  23602951.32400                   -555600.27640  23602953.76240
 96  9  8  0 48 30.0040000  0  6  1 14 15 22 25 29
  35922196.31200  25312791.64500                  28033383.84940  25312795.26640
  -3612534.71700  23083101.19900                  -2800684.75340  23083104.71540
   4134324.63800  22564448.24600                   6267553.45040  22564452.19540
   -747257.43100  25439334.80900                   -524329.67740  25439339.68440
   6912561.96900  22345725.88700                   5439965.73540  22345728.43040
   -756315.38500  23605867.94100                   -543657.31440  23605870.48440
 96  9  8  0 49  0.0040000  0  6  1 14 15 22 25 29
  36065703.05500  25340101.05100                  28145207.26940  25340105.68040
  -3617433.25500  23082169.00400                  -2804501.78340  23082172.55540
   4248125.66700  22586103.85500                   6356229.57140  22586108.01640
   -776474.13000  25433775.11300                   -547095.85140  25433780.23440
   7016110.80300  22365430.75400                   5520653.13440  22365433.32040
   -740778.84500  23608824.29300                   -531550.88840  23608827.08240
 96  9  8  0 49 30.0050000  0  6  1 14 15 22 25 29
  36209234.26700  25367414.32100                  28257049.74840  25367418.23540
  -3622059.40400  23081288.44600                  -2808106.55540  23081292.18540
   4362518.62400  22607872.26700                   6445366.93140  22607876.33340
   -805636.53100  25428225.11800                   -569819.72040  25428230.19240
   7120152.99400  22385229.23500                   5601724.97340  22385231.81340
   -725054.39000  23611816.93100                   -519298.04140  23611819.70840
 96  9  8  0 50  0.0050000  0  6  1 14 15 22 25 29
  36352787.62900  25394731.46200                  28368909.47440  25394735.91540
  -3626404.10200  23080461.71200                  -2811492.01940  23080465.29840
   4477495.37200  22629751.61800                   6534959.19240  22629755.61440
   -834744.35400  25422685.72000                   -592501.06040  25422690.24340
   7224677.27100  22405119.50100                   5683172.45940  22405122.11440
   -709157.79600  23614841.73500                   -506911.05540  23614844.33740
 96  9  8  0 50 30.0050000  0  6  1 14 15 22 25 29
  36496379.87000  25422055.97000                  28480799.53440  25422060.71640
  -3630486.22900  23079685.18800                  -2814672.88140  23079688.70440
   4593061.55500  22651743.06300                   6625010.75340  22651747.07140
   -863791.41800  25417159.18100                   -615135.08440  25417163.51740
   7329677.01200  22425100.15700                   5764990.43840  22425102.65340
   -693083.73900  23617900.82900                   -494385.79040  23617903.68840
 96  9  8  0 51  0.0050000  0  6  1 14 15 22 25 29
  36640036.22500  25449392.95400                  28592739.50140  25449397.77040
  -3634318.85000  23078955.56300                  -2817659.31840  23078959.11440
   4709218.52000  22673847.14900                   6715522.66240  22673851.16940
   -892775.41800  25411643.08700                   -637719.96340  25411647.78640
   7435145.30500  22445170.34500                   5847173.52340  22445172.92340
   -676831.09200  23620993.39900                   -481721.36540  23620996.66940
 96  9  8  0 51 30.0050000  0  6  1 14 15 22 25 29
  36783757.57300  25476741.66500                  28704730.15240  25476745.89540
  -3637911.54400  23078272.04800                  -2820458.80040  23078275.58740
   4825962.49000  22696062.74300                   6806491.97940  22696066.68140
   -921712.73900  25406137.50100                   -660268.42840  25406143.39540
   7541086.91900  22465330.31300                   5929725.42840  22465332.86840
   -660402.26700  23624119.50900                   -468919.64840  23624122.19240
 96  9  8  0 52  0.0050000  0  6  1 14 15 22 25 29
  36927536.96500  25504102.60300                  28816766.01240  25504107.29040
  -3641285.41200  23077630.02400                  -2823087.77140  23077633.35340
   4943285.30600  22718388.54800                   6897912.34040  22718392.57940
   -950620.20300  25400635.85300                   -682793.63840  25400641.27840
   7647514.78900  22485582.97000                   6012656.23640  22485585.61840
   -643793.91100  23627279.61800                   -455978.04540  23627282.53640
 96  9  8  0 52 30.0050000  0  6  1 14 15 22 25 29
  37071373.70500  25531473.90700                  28928846.58140  25531477.71640
  -3644431.01000  23077031.17300                  -2825538.86540  23077034.73540
   5061189.83400  22740825.09500                   6989785.98240  22740829.00940
   -979487.38900  25395142.17300                   -705287.62540  25395148.58340
   7754431.85500  22505928.25100                   6095968.23440  22505930.77040
   -626988.61200  23630478.03200                   -442882.98740  23630480.86840
 96  9  8  0 53  0.0050000  0  6  1 14 15 22 25 29
  37215257.11100  25558853.51700                  29040963.47740  25558857.24340
  -3647330.90400  23076479.31300                  -2827798.49840  23076482.86440
   5179669.38200  22763370.87600                   7082107.69140  22763374.68540
  -1008321.19800  25389655.80600                   -727755.39140  25389660.55240
   7861844.41200  22526368.47000                   6179666.33040  22526371.03640
   -609994.16400  23633712.38400                   -429640.54440  23633715.17340
 96  9  8  0 53 30.0050000  0  6  1 14 15 22 25 29
  37359186.04900  25586242.80600                  29153115.88140  25586246.73140
  -3649961.72200  23075978.82900                  -2829848.47040  23075982.34540
   5298727.13300  22786026.89900                   7174879.94840  22786030.88440
  -1037103.52300  25384178.79800                   -750183.05940  25384183.87240
   7969760.26300  22546904.09500                   6263756.60440  22546906.77840
   -592809.03800  23636982.14900                   -416249.51340  23636985.07940
 96  9  8  0 54  0.0050000  0  6  1 14 15 22 25 29
  37503145.41800  25613637.26700                  29265292.00040  25613641.56740
  -3652317.20300  23075530.83700                  -2831683.89440  23075534.47040
   5418354.09600  22808791.21200                   7268095.74640  22808794.96240
  -1065816.19300  25378713.73500                   -772556.47840  25378718.10640
   8078167.33200  22567533.34500                   6348229.64040  22567535.99340
   -575445.18700  23640286.22000                   -402719.22840  23640288.79840
 96  9  8  0 54 30.0050000  0  6  1 14 15 22 25 29
  37647140.40600  25641038.03200                  29377495.87040  25641044.58340
  -3654391.24200  23075135.94600                  -2833300.02340  23075139.47440
   5538553.18200  22831664.23500                   7361757.35340  22831668.14940
  -1094445.06300  25373266.45400                   -794864.59440  25373272.44240
   8187057.31100  22588254.36000                   6433078.97940  22588256.86840
   -557906.22900  23643623.97800                   -389052.48640  23643626.72040
 96  9  8  0 55  0.0050000  0  6  1 14 15 22 25 29
  37791177.11700  25668447.79800                  29489732.23540  25668452.26340
  -3656182.77300  23074795.00100                  -2834696.00240  23074798.57540
   5659323.92400  22854646.28200                   7455864.40740  22854650.45440
  -1122995.28900  25367833.64900                   -817111.45140  25367840.18840
   8296428.74700  22609067.04800                   6518303.47240  22609069.60340
   -540191.94900  23646994.69600                   -375249.12840  23646997.47440
 96  9  8  0 55 30.0050000  0  6  1 14 15 22 25 29
  37935254.40100  25695864.74300                  29602000.22840  25695870.28640
  -3657713.84300  23074503.55600                  -2835889.02740  23074507.14240
   5780657.44200  22877735.18100                   7550409.98440  22877739.17740
  -1151473.31800  25362413.39200                   -839302.05040  25362419.25140
   8406259.65000  22629967.23500                   6603885.99440  22629969.81340
   -522301.16300  23650399.39900                   -361308.23440  23650402.39940
 96  9  8  0 56  0.0050000  0  6  1 14 15 22 25 29
  38079375.47900  25723290.04000                  29714302.34140  25723295.00940
  -3658981.87900  23074262.20400                  -2836877.09640  23074265.84940
   5902550.89800  22900931.04800                   7645391.87140  22900935.11440
  -1179888.94300  25357006.80600                   -861444.02340  25357011.66940
   8516547.99800  22650954.43800                   6689824.96740  22650956.98140
   -504218.14300  23653840.18800                   -347217.55840  23653843.08340
 96  9  8  0 56 30.0050000  0  6  1 14 15 22 25 29
  38223554.65500  25750726.60300                  29826649.74740  25750731.16140
  -3659968.24700  23074074.54000                  -2837645.68440  23074078.12640
   6025016.74500  22924235.36000                   7740819.78740  22924239.34540
  -1208240.95600  25351610.53200                   -883536.38940  25351616.09940
   8627298.21500  22672029.48500                   6776123.83940  22672032.05240
   -485914.67500  23657323.33700                   -332955.09240  23657326.00940
 96  9  8  0 57  0.0050000  0  6  1 14 15 22 25 29
  38367784.21600  25778172.00900                  29939036.42440  25778176.52040
  -3660664.98500  23073941.79000                  -2838188.59840  23073945.32940
   6148047.49200  22947647.49300                   7836687.88240  22947651.48940
  -1236532.08100  25346227.32100                   -905581.38640  25346232.04440
   8738510.41300  22693192.38400                   6862782.69440  22693194.90340
   -467386.27500  23660849.11000                   -318517.36240  23660851.77040
 96  9  8  0 57 30.0050000  0  6  1 14 15 22 25 29
  38512041.88200  25805623.64900                  30051445.00240  25805628.47840
  -3661084.81400  23073861.82100                  -2838515.73340  23073865.31340
   6271633.20500  22971164.98500                   7932988.43140  22971168.78240
  -1264758.68900  25340855.60300                   -927576.07540  25340859.58740
   8850182.51200  22714442.78200                   6949799.91840  22714445.37240
   -448640.02900  23664416.55600                   -303909.88240  23664419.28640
 96  9  8  0 58  0.0050000  0  6  1 14 15 22 25 29
  38656305.37500  25833076.65700                  30163858.02740  25833079.49340
  -3661230.15800  23073834.22800                  -2838628.98240  23073837.60340
   6395760.41200  22994785.62600                   8029710.92640  22994789.48140
  -1292919.18600  25335498.05600                   -949519.25840  25335502.49740
   8962308.56600  22735779.79000                   7037170.87140  22735782.42740
   -429685.30500  23668023.53200                   -289139.96640  23668026.28640
 96  9  8  0 58 30.0050000  0  6  1 14 15 22 25 29
  38800577.63800  25860530.53200                  30276278.01740  25860533.49740
  -3661104.44600  23073858.32100                  -2838531.01540  23073861.86040
   6520437.46200  23018510.81300                   8126861.86340  23018514.65740
  -1320989.91900  25330155.72000                   -971392.49940  25330161.42740
   9074891.77700  22757203.57100                   7124898.05540  22757206.17340
   -410532.91300  23671668.09500                   -274216.02040  23671670.87240
 96  9  8  0 59  0.0050000  0  6  1 14 15 22 25 29
  38944859.08700  25887986.63400                  30388705.05640  25887992.00140
  -3660722.00200  23073931.17300                  -2838233.00540  23073934.67740
   6645656.45700  23042339.15700                   8224435.09940  23042342.81340
  -1348962.41700  25324833.28200                   -993189.15440  25324838.22840
   9187931.37100  22778714.37600                   7212980.85840  22778716.79040
   -391205.54900  23675346.04000                   -259155.70940  23675348.84140
 96  9  8  0 59 30.0050000  0  6  1 14 15 22 25 29
  39089141.83100  25915442.77400                  30501133.18540  25915447.93140
  -3660085.40600  23074052.18800                  -2837736.95240  23074055.59940
   6771413.92500  23066270.03200                   8322427.92540  23066273.85340
  -1376824.87300  25319530.29800                  -1014900.07340  25319535.74740
   9301416.24000  22800309.89200                   7301410.63140  22800312.34140
   -371721.80800  23679053.40700                   -243973.56140  23679056.00940
 96  9  8  1  0  0.0050000  0  6  1 14 15 22 25 29
  39233456.33500  25942905.19600                  30613586.00240  25942910.77440
  -3659167.45000  23074226.95400                  -2837021.66040  23074230.50540
   6897719.42100  23090305.16500                   8420847.77940  23090309.02040
  -1404564.78200  25314252.39900                  -1036515.52240  25314258.29440
   9415346.86400  22821990.13400                   7390187.74440  22821992.68840
   -352083.70300  23682790.68100                   -228671.14040  23682793.17740
 96  9  8  1  0 30.0050000  0  6  1 14 15 22 25 29
  39377789.19800  25970370.06300                  30726053.15340  25970375.24340
  -3657979.91700  23074452.97800                  -2836096.30140  23074456.39940
   7024553.89700  23114440.91500                   8519679.83540  23114444.80640
  -1432191.62700  25308994.79000                  -1058042.85740  25309000.12240
   9529705.06100  22843751.98500                   7479298.03540  22843754.51740
   -332316.88900  23686551.71200                   -213268.42340  23686554.33740
 96  9  8  1  1  0.0060000  0  6  1 14 15 22 25 29
  39522157.03600  25997843.15400                  30838547.54140  25997847.03340
  -3656506.83300  23074733.26400                  -2834948.44040  23074736.65040
   7151924.87300  23138678.81100                   8618929.92940  23138682.77140
  -1459696.77200  25303760.42800                  -1079475.32140  25303765.32640
   9644503.72000  22865597.42800                   7568751.53940  22865599.87740
   -312400.03400  23690342.02100                   -197748.79240  23690344.69340
 96  9  8  1  1 30.0060000  0  6  1 14 15 22 25 29
  39666556.58800  26025321.08400                  30951066.67040  26025325.50240
  -3654737.74400  23075070.01400                  -2833569.92140  23075073.44740
   7279818.42400  23163016.12300                   8718587.23340  23163019.94340
  -1487085.02800  25298548.68600                  -1100816.73040  25298553.38540
   9759727.75900  22887523.75600                   7658536.51040  22887526.27540
   -292323.74400  23694162.30300                   -182104.91440  23694165.02140
 96  9  8  1  2  0.0060000  0  6  1 14 15 22 25 29
  39811026.72700  26052813.02100                  31063640.77540  26052815.58840
  -3652650.09100  23075467.11500                  -2831943.17140  23075470.68940
   7408254.85500  23187457.06800                   8818667.55340  23187460.72540
  -1514343.64500  25293361.30300                  -1122057.12140  25293366.31840
   9875401.15100  22909535.60000                   7748671.62440  22909538.06140
   -272044.21000  23698021.56100                   -166302.66540  23698024.40840
 96  9  8  1  2 30.0060000  0  6  1 14 15 22 25 29
  39955555.49100  26080315.71700                  31176260.59540  26080321.67040
  -3650252.08600  23075923.38100                  -2830074.58340  23075926.85040
   7537222.07500  23211998.63100                   8919161.48440  23212002.49840
  -1541474.29300  25288198.77100                  -1143197.77640  25288204.36140
   9991527.92600  22931633.67800                   7839160.02640  22931636.22140
   -251553.31300  23701920.86500                   -150335.71840  23701923.45540
 96  9  8  1  3  0.0060000  0  6  1 14 15 22 25 29
  40100147.53600  26107830.95900                  31288929.70840  26107835.77540
  -3647536.60900  23076440.17000                  -2827958.61340  23076443.60340
   7666717.21800  23236640.68600                   9020066.78140  23236644.86940
  -1568491.33600  25283056.24000                  -1164249.92940  25283061.17440
  10108104.91300  22953817.68600                   7929999.24040  22953820.07640
   -230855.31000  23705859.31800                   -134207.38540  23705861.88540
 96  9  8  1  3 30.0060000  0  6  1 14 15 22 25 29
  40244787.02400  26135355.03700                  31401635.77440  26135358.45940
  -3644508.27200  23077016.56100                  -2825598.85540  23077019.88940
   7796727.66400  23261380.78700                   9121373.61340  23261384.72540
  -1595412.16900  25277933.81800                  -1185227.12940  25277938.48240
  10225125.38200  22976085.88900                   8021184.02340  22976088.39640
   -209961.35300  23709835.35700                   -117926.36440  23709837.91240
 96  9  8  1  4  0.0060000  0  6  1 14 15 22 25 29
  40389453.42300  26162883.63900                  31514362.84940  26162889.02940
  -3641182.12500  23077649.40400                  -2823007.03340  23077652.94340
   7927244.19000  23286217.16200                   9223074.79240  23286221.20540
  -1622235.16900  25272829.92000                  -1206128.06940  25272835.12340
  10342585.37100  22998437.79500                   8112711.28940  22998440.25640
   -188886.82900  23713845.99000                   -101504.63940  23713848.49840
 96  9  8  1  4 30.0060000  0  6  1 14 15 22 25 29
  40534153.94800  26190419.20100                  31627116.44740  26190425.18940
  -3637545.73300  23078341.10000                  -2820173.46440  23078344.43940
   8058288.34400  23311154.21700                   9325187.11540  23311158.16640
  -1648941.70300  25267747.33400                  -1226938.27240  25267752.86540
  10460503.14300  23020876.69300                   8204595.27340  23020879.33040
   -167634.01400  23717890.13900                    -84943.98740  23717892.78740
 96  9  8  1  5  0.0060000  0  6  1 14 15 22 25 29
  40678882.39300  26217960.34200                  31739891.85540  26217964.09240
  -3633611.12400  23079089.98200                  -2817107.51440  23079093.42840
   8189853.88700  23336190.14600                   9427705.70240  23336194.28340
  -1675540.14400  25262685.42000                  -1247664.25440  25262690.55340
  10578858.18900  23043398.91200                   8296819.98040  23043401.45540
   -146208.49400  23721967.24000                    -68248.76140  23721969.77140
 96  9  8  1  5 30.0060000  0  6  1 14 15 22 25 29
  40823619.17200  26245502.49000                  31852673.73040  26245508.13940
  -3629405.05500  23079890.37300                  -2813830.03640  23079893.87740
   8321921.46600  23361321.98200                   9530615.48740  23361325.92040
  -1702021.73400  25257647.30300                  -1268299.19140  25257651.93240
  10697629.75600  23066000.39600                   8389369.25440  23066002.82240
   -124615.26600  23726076.27900                    -51422.85040  23726079.10340
 96  9  8  1  6  0.0060000  0  6  1 14 15 22 25 29
  40968371.48100  26273047.88100                  31965467.74740  26273052.14640
  -3624915.67900  23080744.77900                  -2810331.80440  23080748.21340
   8454494.35000  23386549.74000                   9633919.01840  23386553.54940
  -1728366.91200  25252633.90400                  -1288827.81040  25252637.66640
  10816821.37200  23088682.12300                   8482245.83640  23088684.56140
   -102857.18600  23730216.73200                    -34468.47340  23730219.49840
 96  9  8  1  6 30.0060000  0  6  1 14 15 22 25 29
  41113147.48200  26300598.55300                  32078280.19240  26300604.09640
  -3620127.14900  23081655.92000                  -2806600.46940  23081659.45940
   8587572.44900  23411873.54500                   9737616.21340  23411877.63540
  -1754571.83300  25247646.56800                  -1309247.17440  25247651.58440
  10936435.13400  23111443.78700                   8575451.36840  23111446.27140
    -80919.58100  23734391.14600                    -17374.20840  23734393.88940
 96  9  8  1  7  0.0060000  0  6  1 14 15 22 25 29
  41257941.82100  26328151.88900                  32191106.93040  26328158.40440
  -3615027.88400  23082626.33400                  -2802626.99440  23082629.66240
   8721146.48500  23437291.98200                   9841699.85340  23437296.13140
  -1780626.33700  25242689.29500                  -1329549.29040  25242694.13540
  11056477.70200  23134286.84200                   8668991.02940  23134289.05740
    -58789.26600  23738602.33400                      -129.79040  23738605.07640
 96  9  8  1  7 30.0060000  0  6  1 14 15 22 25 29
  41402762.52300  26355709.63100                  32303954.16840  26355714.54140
  -3609593.31500  23083660.35000                  -2798392.24840  23083663.70140
   8855218.04500  23462804.98200                   9946171.17140  23462808.95540
  -1806515.43600  25237761.42000                  -1349722.53740  25237765.38140
  11176953.88100  23157212.85000                   8762868.57340  23157215.19340
    -36468.15900  23742849.86500                     17263.31140  23742852.29140
 96  9  8  1  8  0.0060000  0  6  1 14 15 22 25 29
  41547607.69400  26383272.85000                  32416820.56140  26383277.49040
  -3603809.57500  23084760.85700                  -2793885.42340  23084764.01040
   8989780.95100  23488411.29500                  10051025.35640  23488415.16240
  -1832258.74600  25232863.14600                  -1369782.21640  25232868.88940
  11297856.21500  23180219.65400                   8857078.18140  23180222.01040
    -13959.36200  23747133.12300                     34802.64840  23747135.50240
 96  9  8  1  8 30.0060000  0  6  1 14 15 22 25 29
  41692479.87400  26410841.39600                  32529707.93640  26410846.82240
  -3597679.04600  23085927.56100                  -2789108.37440  23085930.98240
   9124834.26200  23514111.20100                  10156261.68240  23514115.01040
  -1857853.57600  25227992.68600                  -1389726.15240  25227998.20540
  11419170.57300  23203305.04500                   8951608.84540  23203307.56440
      8741.37500  23751453.09200                     52491.56040  23751455.62340
 96  9  8  1  9  0.0060000  0  6  1 14 15 22 25 29
  41837374.93100  26438414.25600                  32642613.16740  26438419.95140
  -3591197.25800  23087160.91200                  -2784057.61540  23087164.41640
   9260374.88500  23539903.63900                  10261877.73540  23539907.62340
  -1883299.93300  25223149.78700                  -1409554.44340  25223155.78740
  11540880.74100  23226465.60700                   9046447.93140  23226468.09240
     31617.91700  23755806.02900                     70317.46140  23755808.44340
 96  9  8  1  9 30.0060000  0  6  1 14 15 22 25 29
  41982305.17900  26465993.48200                  32755545.80540  26465999.64640
  -3584368.43600  23088460.38900                  -2778736.44340  23088463.78740
   9396403.90400  23565789.20100                  10367874.35040  23565792.93940
  -1908594.87100  25218336.62300                  -1429264.70940  25218341.58040
  11662970.28300  23249698.53700                   9141582.63140  23249700.98640
     54669.48600  23760192.79500                     88279.74540  23760195.16240
 96  9  8  1 10  0.0060000  0  6  1 14 15 22 25 29
  42127260.83400  26493577.02900                  32868498.23440  26493580.62740
  -3577219.70400  23089820.64600                  -2773165.98640  23089823.95140
   9532918.36500  23591767.19300                  10474249.23640  23591771.41240
  -1933744.30400  25213550.13900                  -1448861.58640  25213555.30740
  11785445.46100  23273004.71700                   9237017.82640  23273007.23640
     77896.67900  23764612.67800                    106378.88040  23764615.32640
 96  9  8  1 10 30.0060000  0  6  1 14 15 22 25 29
  42272241.32900  26521165.56800                  32981470.08940  26521170.65440
  -3569772.19100  23091238.18600                  -2767362.71740  23091241.54940
   9669915.55900  23617836.82600                  10581000.27240  23617841.05740
  -1958739.89100  25208794.30300                  -1468338.62940  25208798.59240
  11908305.87200  23296384.31800                   9332753.20440  23296386.67440
    101289.57500  23769064.27900                    124607.12940  23769066.97540
 96  9  8  1 11  0.0060000  0  6  1 14 15 22 25 29
  42417259.84100  26548762.09200                  33094471.48540  26548766.45140
  -3562019.31900  23092713.39600                  -2761321.51340  23092716.76040
   9807397.93000  23643998.51400                  10688129.37140  23644002.63940
  -1983568.69700  25204069.17800                  -1487685.66940  25204072.70540
  12031565.76200  23319840.13100                   9428799.86540  23319842.42840
    124863.90500  23773550.52100                    142976.75240  23773552.95940
 96  9  8  1 11 30.0060000  0  6  1 14 15 22 25 29
  42562296.77900  26576361.52900                  33207487.22640  26576366.31140
  -3553995.19200  23094240.50600                  -2755068.94140  23094243.79940
   9945342.17900  23670248.55300                  10795618.37640  23670252.59640
  -2008240.60300  25199374.99800                  -1506910.47940  25199378.74840
  12155218.79100  23343370.60000                   9525152.86640  23343372.83840
    148600.11800  23778067.16200                    161472.51540  23778069.75240
 96  9  8  1 12  0.0060000  0  6  1 14 15 22 25 29
  42707365.71700  26603968.36500                  33320527.96840  26603973.12340
  -3545672.59400  23095824.04500                  -2748583.79240  23095827.49040
  10083761.66000  23696588.97500                  10903477.69540  23696593.20540
  -2032731.52300  25194714.36500                  -1525994.24840  25194718.85340
  12279279.66100  23366978.50600                   9621823.67240  23366980.90840
    172504.98600  23782616.18600                    180099.70740  23782618.58840
 96  9  8  1 12 30.0060000  0  6  1 14 15 22 25 29
  42852467.49800  26631579.89600                  33433594.24540  26631586.57640
  -3537026.04900  23097469.24800                  -2741846.21340  23097472.63540
  10222650.06700  23723018.64600                  11011702.40940  23723022.57240
  -2057028.93200  25190090.64600                  -1544927.24440  25190094.99440
  12403728.01100  23390660.06100                   9718796.40740  23390662.40440
    196574.21000  23787196.39600                    198854.97640  23787198.96340
 96  9  8  1 13  0.0070000  0  6  1 14 15 22 25 29
  42997594.30300  26659197.19000                  33546680.13740  26659199.96840
  -3528051.78400  23099177.22900                  -2734853.26740  23099180.74540
  10361997.48700  23749535.68300                  11120284.79740  23749539.73740
  -2081137.88900  25185502.81500                  -1563713.39340  25185506.82340
  12528551.44200  23414413.25300                   9816061.41140  23414415.62040
    220804.38500  23791807.26100                    217735.65540  23791809.74540
 96  9  8  1 13 30.0070000  0  6  1 14 15 22 25 29
  43142722.53900  26686813.15100                  33659766.93440  26686818.67140
  -3518749.35300  23100947.35400                  -2727604.61540  23100950.80040
  10501794.47300  23776138.18300                  11229217.49040  23776142.13240
  -2105058.53800  25180951.15100                  -1582352.79240  25180955.85140
  12653739.73100  23438235.83900                   9913610.72240  23438238.32340
    245184.90500  23796446.44800                    236733.47240  23796449.05040
 96  9  8  1 14  0.0070000  0  6  1 14 15 22 25 29
  43287864.84500  26714433.27600                  33772864.87840  26714436.32340
  -3509105.55300  23102782.61200                  -2720089.96440  23102785.99940
  10642045.85300  23802827.22900                  11338504.26140  23802831.30840
  -2128790.78600  25176435.33900                  -1600845.41640  25176439.24140
  12779293.35100  23462127.83900                  10011444.70540  23462130.33540
    269719.02400  23801115.10400                    255850.98140  23801117.78840
 96  9  8  1 14 30.0070000  0  6  1 14 15 22 25 29
  43433018.65900  26742054.94000                  33885971.73940  26742059.22940
  -3499123.64800  23104682.01900                  -2712311.85140  23104685.31140
  10782750.07200  23829602.16700                  11448143.89140  23829606.60840
  -2152339.31100  25171954.81500                  -1619194.84640  25171959.45640
  12905222.73700  23486091.40900                  10109571.49240  23486093.76540
    294415.89100  23805814.88600                    275095.30540  23805817.48740
 96  9  8  1 15  0.0070000  0  6  1 14 15 22 25 29
  43578185.80400  26769678.86200                  33999088.92540  26769682.84740
  -3488802.20800  23106645.99500                  -2704269.16340  23106649.47640
  10923910.07700  23856464.04200                  11558138.67840  23856468.06140
  -2175704.21000  25167508.04200                  -1637401.21540  25167512.51940
  13031540.54200  23510129.01100                  10208000.94640  23510131.39040
    319275.78600  23810545.49500                    294466.65540  23810548.20240
 96  9  8  1 15 30.0070000  0  6  1 14 15 22 25 29
  43723365.76600  26797306.12800                  34112216.18140  26797307.71040
  -3478134.53600  23108676.00300                  -2695956.68440  23108679.39040
  11065520.20500  23883411.72200                  11668484.21640  23883416.08140
  -2198891.96500  25163095.47900                  -1655469.53340  25163099.60440
  13158248.61900  23534240.68300                  10306734.51040  23534243.14440
    344285.67400  23815304.79200                    313954.88840  23815307.37040
 96  9  8  1 16  0.0070000  0  6  1 14 15 22 25 29
  43868574.94300  26824937.23700                  34225366.09840  26824945.22240
  -3467106.53700  23110774.72200                  -2687363.43740  23110778.10840
  11207575.45000  23910443.79200                  11779176.58640  23910447.98740
  -2221908.68300  25158714.96400                  -1673404.58040  25158719.19440
  13285336.11300  23558424.83900                  10405763.72040  23558427.22940
    369458.48100  23820095.07300                    333570.06740  23820097.74540
 96  9  8  1 16 30.0070000  0  6  1 14 15 22 25 29
  44013814.13600  26852576.83100                  34338539.49940  26852583.74940
  -3455707.12900  23112943.87000                  -2678480.78340  23112947.28040
  11350075.81800  23937560.87800                  11890215.81240  23937564.71040
  -2244757.73500  25154366.13600                  -1691208.95240  25154370.34340
  13412802.18600  23582680.56500                  10505087.93140  23582682.97940
    394821.01800  23824921.44000                    353333.09240  23824924.08940
 96  9  8  1 17  0.0070000  0  6  1 14 15 22 25 29
  44159082.98600  26880220.22900                  34451735.99540  26880222.26940
  -3443932.63400  23115184.55000                  -2669305.83740  23115187.89040
  11493013.60400  23964760.98700                  12001595.89040  23964764.96040
  -2267440.78800  25150049.18300                  -1708884.01140  25150053.17940
  13540636.34700  23607006.69800                  10604698.96740  23607009.01940
    420374.00900  23829783.89400                    373244.51840  23829786.29640
 96  9  8  1 17 30.0070000  0  6  1 14 15 22 25 29
  44304385.48100  26907870.77600                  34564958.64740  26907877.33940
  -3431785.87900  23117495.71400                  -2659840.82440  23117499.05440
  11636385.64000  23992043.82300                  12113314.33540  23992048.17140
  -2289951.88300  25145767.47900                  -1726425.07840  25145772.07340
  13668842.68600  23631403.35400                  10704600.00640  23631405.53440
    446137.70800  23834686.61200                    393320.12840  23834689.44840
 96  9  8  1 18  0.0070000  0  6  1 14 15 22 25 29
  44449712.36100  26935525.25300
  -3419271.46200  23119877.44000                  -2650089.31840  23119880.86240
  11780189.00900  24019408.33100                  12225368.88840  24019412.30440
  -2312277.46800  25141517.65900                  -1743821.57440  25141521.51540
  13797414.42000  23655869.92500                  10804785.76940  23655872.46840
    472119.09600  23839630.72900                    413565.37040  23839633.37840
 96  9  8  1 18 30.0070000  0  6  1 14 15 22 25 29
     24218.76910  26963180.94800
  -3406406.98300  23122325.18300                  -2640065.03940  23122328.61640
  11924419.29900  24046854.71400                  12337756.11040  24046858.89740
  -2334397.03300  25137308.81500                  -1761057.53840  25137312.89440
  13926361.85900  23680407.67500                  10905264.29740  23680410.06540
    498293.48700  23844611.52600                    433961.01340  23844614.14040
 96  9  8  1 19  0.0070000  0  6  1 14 15 22 25 29
                  26990837.38600
  -3393203.46900  23124837.80800                  -2629776.57840  23124841.18340
  12069075.72500  24074382.07300                  12450475.38340  24074386.36240
  -2356282.66500  25133143.99500                  -1778111.22140  25133147.89740
  14055690.28400  23705018.29200                  11006039.68740  23705020.57740
    524640.27000  23849625.10400                    454490.98940  23849627.76540
 96  9  8  1 19 30.0070000  0  5 14 15 22 25 29
  -3379666.20300  23127413.94000                  -2619228.05640  23127417.29240
  12214155.34000  24101989.80000                  12563524.40940  24101994.10140
  -2377928.94300  25129024.82300                  -1794978.40440  25129028.17540
  14185398.05100  23729700.65900                  11107110.66940  23729703.24940
    551148.12200  23854669.49500                    475146.46440  23854672.21440
 96  9  8  1 20  0.0070000  0  5 14 15 22 25 29
  -3365801.24500  23130052.12800                  -2608424.17840  23130055.58540
  12359652.36500  24129677.05800                  12676898.68740  24129680.89040
  -2399342.28600  25124950.31500                  -1811664.07440  25124953.96040
  14315473.00900  23754453.19000                  11208467.77340  23754455.59340
    577798.79300  23859740.93300                    495913.24540  23859743.45240
 96  9  8  1 20 30.0070000  0  5 14 15 22 25 29
  -3351604.71000  23132753.85400                  -2597361.93540  23132757.15940
  12505566.05900  24157443.58100                  12790597.64840  24157448.01140
  -2420524.39200  25120919.45600                  -1828169.55340  25120923.06540
  14445917.59500  23779275.87800                  11310112.90340  23779278.53840
    604598.18200  23864840.62000                    516795.89240  23864843.18640
 96  9  8  1 21  0.0070000  0  5 14 15 22 25 29
  -3337064.43900  23135520.80800                  -2586031.84240  23135524.17140
  12651887.85200  24185287.70600                  12904614.60240  24185292.00740
  -2441487.44900  25116930.24500                  -1844504.34340  25116934.62840
  14576715.44600  23804165.90100                  11412033.30140  23804168.33940
    631558.49600  23869970.78400                    537803.94440  23869973.36240
 96  9  8  1 21 30.0070000  0  5 14 15 22 25 29
  -3322152.77600  23138358.01100                  -2574412.36140  23138361.43340
  12798625.27800  24213210.79200                  13018955.43540  24213214.72940
  -2462239.08400  25112980.73700                  -1860674.41940  25112984.95640
  14707866.85900  23829123.40900                  11514229.20240  23829125.68340
    658694.04200  23875134.58900                    558948.53640  23875137.01540
 96  9  8  1 22  0.0070000  0  5 14 15 22 25 29
  -3306868.28400  23141266.66700                  -2562502.35940  23141270.13640
  12945771.15300  24241211.55000                  13133614.53840  24241215.96840
  -2482763.64200  25109074.47200                  -1876667.52340  25109079.46440
  14839362.56500  23854146.18300                  11616693.38240  23854148.50340
    686013.40400  23880333.29200                    580236.37640  23880336.03440
 96  9  8  1 22 30.0070000  0  5 14 15 22 25 29
  -3291193.19800  23144249.62000                  -2550288.00140  23144253.04240
  13093328.93000  24269291.09700                  13248594.60540  24269295.38640
  -2503035.53400  25105217.80800                  -1892463.75440  25105221.74540
  14971208.61400  23879235.77600                  11719430.55740  23879238.26140
    713514.69800  23885566.68300                    601665.96940  23885569.17940
 96  9  8  1 23  0.0070000  0  5 14 15 22 25 29
  -3275134.00400  23147305.60400                  -2537774.33440  23147309.12040
  13241283.64700  24297446.25300                  13363883.97640  24297450.51940
  -2523062.52200  25101406.73700                  -1908069.13640  25101410.95640
  15103384.95800  23904387.68300                  11822425.10340  23904390.08540
    741169.79900  23890829.26900                    623215.41540  23890831.81140
 96  9  8  1 23 30.0070000  0  5 14 15 22 25 29
  -3258686.34000  23150435.49500                  -2524957.96640  23150438.95240
  13389638.59700  24325676.84700                  13479485.21540  24325680.63240
  -2542826.15500  25097645.23700                  -1923469.32840  25097649.05840
  15235889.35600  23929602.58100                  11925675.28040  23929605.04240
    768976.66500  23896120.56500                    644883.11040  23896123.06140
 96  9  8  1 24  0.0080000  0  5 14 15 22 25 29
  -3241857.63400  23153637.99200                  -2511844.67240  23153641.44940
  13538392.51500  24353983.96900                  13595397.34640  24353988.05940
  -2562308.24500  25093937.87500                  -1938650.11240  25093942.24640
  15368728.54400  23954880.93000                  12029186.33140  23954883.33240
    796926.45600  23901439.16400                    666662.18440  23901441.71940
 96  9  8  1 24 30.0080000  0  5 14 15 22 25 29
  -3224635.28800  23156915.10900                  -2498424.65540  23156918.41440
  13687540.80000  24382366.07000                  13711616.77340  24382370.12540
  -2581529.11300  25090280.71900                  -1953627.38240  25090285.11340
  15501906.98500  23980223.88300                  12132961.72940  23980226.36740
    825010.03100  23906783.22700                    688545.51440  23906785.85240
 96  9  8  1 25  0.0080000  0  5 14 15 22 25 29
  -3207014.08300  23160268.36700                  -2484693.83840  23160271.76640
  13837076.68300  24410821.70300                  13828138.22440  24410826.06240
  -2600510.28500  25086668.44500                  -1968417.83840  25086672.45340
  15635418.33400  24005630.50800                  12236996.54340  24005632.92240
    853248.47400  23912156.64100                    710549.51440  23912159.39440
 96  9  8  1 25 30.0080000  0  5 14 15 22 25 29
  -3188994.50500  23163697.33600                  -2470652.60040  23163700.65240
  13986998.28300  24439350.64100                  13944960.22940  24439354.68440
  -2619250.65600  25083101.92200                  -1983020.68340  25083105.69540
  15769280.88700  24031103.69500                  12341305.02140  24031105.91040
    881670.14300  23917565.46900                    732696.28440  23917568.08240
 96  9  8  1 26  0.0080000  0  5 14 15 22 25 29
  -3170572.33200  23167202.85900                  -2456297.65540  23167206.23440
  14137303.07700  24467952.83600                  14062080.83540  24467956.91440
  -2637768.10100  25079578.67200                  -1997449.81040  25079582.45740
  15903509.90000  24056646.75000                  12445899.04940  24056649.24640
    910275.51000  23923009.21100                    754986.19240  23923011.81240
 96  9  8  1 26 30.0080000  0  5 14 15 22 25 29
  -3151743.46900  23170786.00800                  -2441625.80640  23170789.39440
  14287983.01700  24496626.51600                  14179493.75640  24496630.60540
  -2656071.81200  25076095.00800                  -2011712.38440  25076098.81640
  16038093.17500  24082256.96900                  12550769.12940  24082259.67640
    939068.21200  23928488.03900                    777422.07640  23928490.51240
 96  9  8  1 27  0.0080000  0  5 14 15 22 25 29
  -3132514.90600  23174445.30500                  -2426642.50640  23174448.68040
  14439041.21100  24525371.85200                  14297201.42640  24525375.84840
  -2674119.20500  25072661.08600                  -2025775.24540  25072664.80140
  16173025.33200  24107933.79700                  12655911.06940  24107936.07040
    968063.25200  23934005.51600                    800015.63540  23934008.00040
 96  9  8  1 27 30.0080000  0  5 14 15 22 25 29
  -3112905.89400  23178176.59400                  -2411362.75340  23178180.00440
  14590475.00500  24554189.10200                  14415201.76440  24554193.03940
  -2691898.89900  25069278.14100                  -2039629.50640  25069282.10240
  16308293.50500  24133674.30500                  12761314.84040  24133676.90640
    997231.17200  23939555.96100                    822743.89840  23939558.42240
 96  9  8  1 28  0.0080000  0  5 14 15 22 25 29
  -3092914.78200  23181980.76600                  -2395785.26240  23181984.11740
  14742280.25500  24583076.40600                  14533491.54140  24583080.30940
  -2709397.58300  25065947.43000                  -2053264.79240  25065951.20340
  16443871.99800  24159474.21100                  12866960.41440  24159476.67240
   1026551.09700  23945135.57800                    845590.60740  23945138.08640
 96  9  8  1 28 30.0080000  0  5 14 15 22 25 29
  -3072564.81000  23185853.22700                  -2379928.14340  23185856.63740
  14894440.31800  24612031.44500                  14652057.80140  24612035.62940
  -2726613.82000  25062671.93700                  -2066679.98840  25062676.41440
  16579731.96200  24185327.33600                  12972825.31740  24185329.93740
   1056025.15600  23950744.01600                    868557.41740  23950746.39440
 96  9  8  1 29  0.0080000  0  5 14 15 22 25 29
  -3051846.54600  23189795.65600                  -2363784.03540  23189799.00840
  15046969.14100  24641056.60200                  14770911.41340  24641060.72740
  -2743533.20000  25059451.93000                  -2079863.88840  25059455.62140
  16715878.34700  24211235.13300                  13078913.40240  24211237.76940
   1085676.85400  23956386.53100                    891662.66440  23956389.12140
 96  9  8  1 29 30.0080000  0  5 14 15 22 25 29
  -3030743.71800  23193811.55500                  -2347340.26740  23193814.93040
  15199854.29700  24670149.60900                  14890042.67640  24670154.02740
  -2760184.13200  25056283.78100                  -2092838.58340  25056287.82440
  16852309.14100  24237197.07000                  13185223.10640  24237199.73040
   1115496.75900  23962061.01600                    914898.96740  23962063.41840
 96  9  8  1 30  0.0080000  0  5 14 15 22 25 29
  -3009234.00900  23197904.70300                  -2330579.45040  23197907.99640
  15353097.07300  24699311.06200                  15009452.60540  24699315.03540
  -2776562.65700  25053165.64800                  -2105601.03340  25053169.50440
  16989043.34000  24263216.56200                  13291769.22340  24263218.96540
   1145502.75700  23967770.73400                    938280.27140  23967773.27740
 96  9  8  1 30 30.0080000  0  5 14 15 22 25 29
  -2987320.19800  23202074.65600                  -2313503.74440  23202078.10240
  15506691.36800  24728538.80500                  15129136.44840  24728542.90640
  -2792673.37300  25050100.48400                  -2118154.78940  25050104.83240
  17126082.25800  24289294.39100                  13398552.78840  24289296.89840
   1175692.16300  23973515.79700                    961804.50040  23973518.41040
 96  9  8  1 31  0.0080000  0  5 14 15 22 25 29
  -2964976.69100  23206326.54700                  -2296093.21740  23206330.07440
  15660641.20400  24757834.58600                  15249097.32640  24757838.53540
  -2808499.51300  25047089.76600                  -2130486.80440  25047093.86740
  17263442.04500  24315433.06200                  13505586.38040  24315435.61740
   1206051.43400  23979293.03100                    985461.08640  23979295.56240
 96  9  8  1 31 30.0080000  0  5 14 15 22 25 29
  -2942203.32000  23210660.08600                  -2278347.72440  23210663.54340
  15814926.86400  24787194.61700                  15369319.90040  24787199.00040
  -2824045.38200  25044130.66400                  -2142600.43640  25044134.60240
  17401124.18400  24341632.82000                  13612871.15840  24341635.46940
   1236552.24600  23985097.00000                   1009227.96940  23985099.50840
 96  9  8  1 32  0.0080000  0  5 14 15 22 25 29
  -2919012.46400  23215073.39800                  -2260276.92540  23215076.91440
  15969546.69900  24816617.57000                  15489802.85840  24816621.95340
  -2839293.62000  25041229.60200                  -2154482.12640  25041233.63340
  17539123.96400  24367893.57000                  13720403.45140  24367896.06640
   1267192.32100  23990927.41400                   1033103.35540  23990929.92240
 96  9  8  1 32 30.0080000  0  6 14 15 18 22 25 29
  -2895399.04400  23219566.79700                  -2241876.85340  23219570.24240
  16124503.80300  24846105.06200                  15610548.63340  24846109.17640
        -0.28210  27263133.54700
  -2854224.09000  25038388.29700                  -2166116.22140  25038392.78540
  17677443.37500  24394215.01600                  13828184.80540  24394217.45340
   1297972.26500  23996785.07800                   1057087.73240  23996787.57440
 96  9  8  1 33  0.0080000  0  6 14 15 18 22 25 29
  -2871348.83000  23224143.35200                  -2223136.42340  23224146.69140
  16279794.67200  24875655.42200                  15731554.47940  24875659.89840
    -13330.28000  27260596.85900                     -2419.17250  27260600.85540
  -2868841.45700  25035606.20300                  -2177506.32940  25035610.23440
  17816085.79500  24420597.74200                  13936217.85640  24420600.37940
   1328899.77800  24002670.18700                   1081187.09940  24002672.63740
 96  9  8  1 33 30.0080000  0  6 14 15 18 22 25 29
  -2846864.45100  23228802.78100                  -2204057.68040  23228806.13340
  16435422.37700  24905270.68000                  15852822.80640  24905274.88740
    -26605.44400  27258069.18000                    -12763.44240  27258070.73840
  -2883145.28800  25032884.70300                  -2188652.12040  25032888.24240
  17955040.09200  24447039.83600                  14044493.92940  24447042.13340
   1359999.24300  24008588.30500                   1105420.46240  24008590.75440
 96  9  8  1 34  0.0080000  0  6 14 15 18 22 25 29
  -2821974.89400  23233539.02300                  -2184663.21440  23233542.42240
  16591374.18200  24934947.25000                  15974343.67040  24934951.44540
    -39852.46500  27255548.85900                    -23085.67640  27255553.45340
  -2897151.59200  25030219.60900                  -2199566.08940  25030223.71140
  18094278.78700  24473536.10200                  14152991.61140  24473538.53940
   1391262.06100  24014537.34400                   1129781.10540  24014539.67640
 96  9  8  1 34 30.0080000  0  6 14 15 18 22 25 29
  -2796676.87200  23238352.85900                  -2164950.46340  23238356.31640
  16747644.50800  24964684.45300                  16096112.72740  24964688.41440
    -53075.57700  27253033.00800                    -33389.34140  27253035.92640
  -2910870.38300  25027608.39100                  -2210256.01240  25027612.39840
  18233799.38800  24500085.72700                  14261708.95840  24500088.32840
   1422698.88200  24020519.50000                   1154277.33140  24020521.91440
 96  9  8  1 35  0.0080000  0  6 14 15 18 22 25 29
  -2770990.12300  23243240.83600                  -2144934.80640  23243244.15240
  16904215.94300  24994479.43000                  16218116.43340  24994483.44940
    -66287.21000  27250519.07000                    -43684.12540  27250521.25040
  -2924328.29100  25025047.60200                  -2220742.65340  25025051.36340
  18373571.15700  24526683.51600                  14370622.02240  24526686.11740
   1454302.97800  24026533.66400                   1178903.89340  24026535.99640
 96  9  8  1 35 30.0090000  0  6 14 15 18 22 25 29
  -2744897.32500  23248206.30200                  -2124602.74540  23248209.73540
  17061111.59200  25024335.62200                  16340372.75140  25024339.41940
    -79468.74100  27248011.41100                    -53955.39740  27248016.81340
  -2937491.19600  25022542.50500                  -2230999.42140  25022546.23140
  18513623.42700  24553334.63000                  14479753.65940  24553337.26740
   1486092.57000  24032582.96600                   1203675.00540  24032585.46240
 96  9  8  1 36  0.0090000  0  6 14 15 18 22 25 29
  -2718402.73900  23253248.13800                  -2103957.60240  23253251.46640
  17218310.83400  25054249.73900                  16462865.64840  25054253.71240
    -92618.86600  27245508.45800                    -64202.16940  27245511.97440
  -2950350.49400  25020095.85600                  -2241019.61840  25020099.82940
  18653954.78100  24580038.57500                  14589102.76540  24580041.30640
   1518035.03700  24038661.45800                   1228565.25440  24038663.86040
 96  9  8  1 36 30.0090000  0  6 14 15 18 22 25 29
  -2691471.25400  23258372.97400                  -2082972.02740  23258376.23140
  17375827.49700  25084223.77800                  16585605.88840  25084228.13840
   -105713.85300  27243015.76300                    -74406.04040  27243021.56340
  -2962874.98300  25017712.08300                  -2250778.91840  25017715.77440
  18794579.65500  24606798.88800                  14698680.58340  24606801.61840
   1550147.54800  24044772.30200                   1253588.00040  24044774.90340
 96  9  8  1 37  0.0090000  0  6 14 15 18 22 25 29
  -2664110.16300  23263579.59900                  -2061651.68840  23263582.86840
  17533651.40300  25114256.62200                  16708585.53340  25114261.01740
   -118763.51000  27240533.41100                    -84574.55540  27240538.22740
  -2975050.20700  25015394.82500                  -2260266.07140  25015398.43540
  18935485.93600  24633612.74700                  14808477.67940  24633615.54840
   1582411.14000  24050911.99700                   1278728.46940  24050914.39940
 96  9  8  1 37 30.0090000  0  6 14 15 18 22 25 29
  -2636322.02100  23268867.73100                  -2039998.58940  23268871.00140
  17691775.13800  25144347.08300                  16831798.81140  25144351.73540
   -131779.15300  27238055.46600                    -94716.51640  27238059.41540
  -2986870.54200  25013146.09900                  -2269476.68540  25013150.16540
  19076671.44600  24660478.96600                  14918492.35540  24660481.80240
   1614816.25800  24057078.41100                   1303979.21440  24057080.84940
 96  9  8  1 38  0.0090000  0  6 14 15 18 22 25 29
  -2608112.42700  23274235.53600                  -2018017.08140  23274238.79440
  17850192.79800  25174492.57500                  16955241.11840  25174497.26340
   -144750.75100  27235588.28600                   -104824.23940  27235592.96240
  -2998341.14100  25010962.86400                  -2278414.78940  25010966.66140
  19218116.84800  24687395.28600                  15028709.55140  24687397.57140
   1647369.64700  24063273.06000                   1329345.48940  24063275.38040
 96  9  8  1 38 30.0090000  0  6 14 15 18 22 25 29
  -2579478.32800  23279684.40300                  -1995704.78940  23279687.54440
  18008900.93400  25204693.34100                  17078909.78640  25204697.78240
   -157669.13300  27233128.41100                   -114890.45740  27233132.67740
  -3009479.44500  25008843.63800                  -2287093.95440  25008847.29440
  19359818.27000  24714360.29400                  15139126.24440  24714362.55640
   1680105.05100  24069502.16900                   1354853.60140  24069504.59540
 96  9  8  1 39  0.0090000  0  6 14 15 18 22 25 29
  -2550406.86400  23285216.54400                  -1973051.70240  23285219.67340
  18167911.86200  25234952.58300                  17202814.37640  25234956.97740
   -170522.89600  27230683.83300                   -124906.31340  27230687.50140
  -3020290.28600  25006786.15300                  -2295517.95340  25006789.91540
  19501791.06700  24741376.82500                  15249754.39940  24741379.25140
   1713041.74600  24075770.05200                   1380518.57340  24075772.53640
 96  9  8  1 39 30.0090000  0  6 14 15 18 22 25 29
  -2520901.64900  23290831.35600                  -1950060.62140  23290834.54440
  18327205.88300  25265265.44200                  17326939.56240  25265269.31040
   -183323.99200  27228247.62200                   -134881.18840  27228251.50140
  -3030804.92800  25004785.46600                  -2303711.14640  25004789.38040
  19644024.67900  24768443.06700                  15360585.78540  24768445.58740
   1746166.64800  24082073.40300                   1406330.20040  24082075.81740
 96  9  8  1 40  0.0090000  0  6 14 15 18 22 25 29
  -2490943.97400  23296531.92700                  -1926716.97440  23296535.16140
  18486788.34200  25295632.91100                  17451289.52140  25295637.41140
   -196058.38500  27225823.99700                   -144804.02040  27225828.08740
  -3041013.37500  25002842.69200                  -2311665.74040  25002846.60640
  19786532.56000  24795561.09900                  15471630.88740  24795563.46640
   1779489.84200  24088414.73900                   1432296.32640  24088417.13040
 96  9  8  1 40 30.0090000  0  6 14 15 18 22 25 29
  -2460537.73000  23302317.98100                  -1903023.79840  23302321.14540
  18646645.76700  25326052.52000                  17575853.71840  25326057.06740
   -208752.40200  27223409.09100                   -154695.41140  27223412.70040
  -3050930.50400  25000955.40300                  -2319393.34540  25000959.21240
  19929307.49300  24822730.17700                  15582884.07640  24822732.52040
   1812980.91900  24094787.85600                   1458393.26840  24094790.37640
 96  9  8  1 41  0.0090000  0  6 14 15 18 22 25 29
  -2429689.97400  23308188.33300                  -1878986.58940  23308191.53240
  18806769.22000  25356522.82500                  17700625.22440  25356527.12640
   -221434.27900  27220994.42700                   -164577.37040  27220999.67740
  -3060534.35900  24999127.61400                  -2326876.82640  24999131.66940
  20072334.36700  24849947.19200                  15694333.59440  24849949.65340
   1846602.89000  24101185.89500                   1484592.21140  24101188.43840
 96  9  8  1 41 30.0090000  0  6 14 15 18 22 25 29
  -2398380.84600  23314146.16900                  -1854589.86740  23314149.38040
  18967178.39300  25387047.89500                  17825619.37040  25387051.92740
   -234078.96800  27218589.77000                   -174430.31640  27218595.60640
  -3069773.70100  24997369.69200                  -2334076.28640  24997373.48940
  20215643.18400  24877218.34900                  15806002.80240  24877220.98540
   1880370.19500  24107611.56700                   1510904.41340  24107614.00540
 96  9  8  1 42  0.0090000  0  6 14 15 18 22 25 29
  -2366633.66300  23320187.46600                  -1829851.80940  23320190.71240
  19127850.17200  25417622.96600                  17950818.11640  25417627.51340
   -246709.74500  27216184.82500                   -184272.43340  27216186.97040
  -3078653.08500  24995680.33300                  -2340995.25840  24995683.95440
  20359201.93600  24904536.59900                  15917866.75840  24904538.97740
   1914261.62100  24114060.74700                   1537313.32640  24114063.12640
 96  9  8  1 42 30.0090000  0  6 14 15 18 22 25 29
  -2334447.20900  23326312.26300                  -1804771.45740  23326315.52040
  19288782.72600  25448246.91900                  18076220.07440  25448251.39540
   -259328.97400  27213784.41100                   -194105.50740  27213788.47740
  -3087161.26900  24994061.16100                  -2347624.97440  24994064.87640
  20503001.25300  24931900.92700                  16029918.17140  24931903.38840
   1948278.89400  24120533.88800                   1563820.29640  24120536.39540
 96  9  8  1 43  0.0090000  0  6 14 15 18 22 25 29
  -2301823.37200  23332520.29400                  -1779350.28540  23332523.55240
  19449978.26000  25478921.65300                  18201826.96440  25478926.00140
   -271920.43700  27211387.81700                   -203917.03740  27211392.21240
  -3095269.80900  24992518.16900                  -2353943.28640  24992522.01340
  20647040.70600  24959310.73100                  16142156.70440  24959313.04040
   1982445.19800  24127035.79400                   1590443.40540  24127038.25540
 96  9  8  1 43 30.0090000  0  6 14 15 18 22 25 29
  -2268757.23500  23338812.73100                  -1753584.46940  23338815.87240
  19611432.11300  25509645.61400                  18327635.12240  25509650.58340
   -284463.14600  27209001.01300                   -213690.49740  27209004.63440
  -3102991.30700  24991048.03600                  -2359960.01240  24991051.73940
  20791311.11800  24986764.38000                  16254575.19640  24986766.86440
   2016774.52500  24133568.37200                   1617193.54140  24133570.76340
 96  9  8  1 44  0.0090000  0  6 14 15 18 22 25 29
  -2235246.06600  23345189.46600                  -1727471.86640  23345192.70040
  19773146.44800  25540418.88000                  18453646.27240  25540423.07540
   -296959.64100  27206622.75500                   -223428.06840  27206625.49740
  -3110330.92400  24989652.61400                  -2365679.16940  24989656.28240
  20935809.28500  25014261.23900                  16367171.16440  25014263.56040
   2051283.68200  24140135.16900                   1644083.79440  24140137.70040
 96  9  8  1 44 30.0090000  0  6 14 15 18 22 25 29
  -2201301.52000  23351649.05200                  -1701021.56540  23351652.48540
  19935113.35600  25571240.08300                  18579854.22040  25571244.43140
   -309414.57700  27204252.42700                   -233133.13240  27204257.40740
  -3117293.72300  24988326.85600                  -2371104.69240  24988330.79440
  21080531.63600  25041801.37200                  16479941.82640  25041803.86840
   2085967.43100  24146735.34900                   1671110.10840  24146737.76340
 96  9  8  1 45  0.0090000  0  6 14 15 18 22 25 29
  -2166929.24300  23358189.84900                  -1674237.97240  23358193.11840
  20097319.09000  25602106.91900                  18706248.27540  25602111.51340
   -321840.15800  27201888.23100                   -242815.38540  27201891.87640
  -3123888.48400  24987071.88000                  -2376243.44140  24987075.45440
  21225474.95700  25069383.10600                  16592884.67140  25069385.11040
   2120817.01800  24153367.02000                   1698265.64640  24153369.37640
 96  9  8  1 45 30.0090000  0  6 14 15 18 22 25 29
  -2132112.15700  23364815.47400                  -1647107.77440  23364818.75540
  20259766.34600  25633019.69200                  18832830.53040  25633023.78240
   -334239.82100  27199528.01300                   -252477.40740  27199532.25540
  -3130121.56800  24985885.85600                  -2381100.35940  24985889.71240
  21370658.08500  25097010.31700                  16706014.37340  25097012.48540
   2155835.26000  24160030.78600                   1725552.59540  24160033.24740
 96  9  8  1 46  0.0090000  0  6 14 15 18 22 25 29
  -2096836.06700  23371528.29400                  -1619619.91640  23371531.56340
  20422469.78300  25663980.71600                  18959612.39240  25663985.34540
   -346609.98100  27197174.23100                   -262116.46240  27197179.01340
  -3135976.59200  24984771.16100                  -2385662.69240  24984774.73540
  21516115.65200  25124690.05200                  16819357.92240  25124692.44240
   2191037.33000  24166729.36400                   1752982.80040  24166731.80240
 96  9  8  1 46 30.0090000  0  6 14 15 18 22 25 29
  -2061089.20100  23378330.62200                  -1591765.20840  23378333.88040
  20585425.74400  25694990.48900                  19086591.03940  25694994.54440
   -358946.11900  27194826.95800                   -271729.00340  27194829.22040
  -3141451.30300  24983729.40300                  -2389928.67240  24983733.41140
  21661846.90800  25152422.02000                  16932914.74540  25152424.20040
   2226414.76500  24173461.60600                   1780549.64340  24173464.09140
 96  9  8  1 47  0.0100000  0  6 14 15 18 22 25 29
  -2024879.81600  23385221.07200                  -1563550.10640  23385224.28340
  20748617.70400  25726045.08800                  19213753.57440  25726049.67040
   -371269.97100  27192481.61900                   -281331.98640  27192485.13540
  -3146567.59500  24982755.83800                  -2393915.36940  24982759.68240
  21807839.34900  25180203.57200                  17046675.08240  25180205.71740
   2261954.92900  24180224.62700                   1808243.28840  24180227.02940
 96  9  8  1 47 30.0100000  0  6 14 15 18 22 25 29
  -1988205.40400  23392200.02500                  -1534972.63840  23392203.17840
  20912034.96500  25757142.24400                  19341091.67240  25757147.02540
   -383569.30300  27190142.04100                   -290915.87540  27190146.71740
  -3151318.74700  24981851.76000                  -2397617.53340  24981855.67440
  21954079.29400  25208032.09600                  17160628.28140  25208034.33440
   2297664.65500  24187019.90800                   1836069.05640  24187022.34640
 96  9  8  1 48  0.0100000  0  6 14 15 18 22 25 29
  -1951053.26300  23399269.82200                  -1506022.91940  23399272.95140
  21075682.77200  25788283.48600                  19468609.41640  25788288.38540
   -395826.67800  27187808.11900                   -300467.01240  27187812.81840
  -3155689.98500  24981020.07200                  -2401023.66740  24981023.91640
  22100555.56500  25235905.35300                  17274765.63040  25235907.56840
   2333543.89400  24193847.39300                   1864026.91740  24193849.77140
 96  9  8  1 48 30.0100000  0  6 14 15 18 22 25 29
  -1913413.98100  23406432.26800                  -1476693.59940  23406435.38540
  21239551.57200  25819466.29900                  19596299.35740  25819471.11540
   -408041.40000  27185484.86900                   -309984.95440  27185489.24040
  -3159671.78700  24980262.79100                  -2404126.34140  24980266.50640
  22247246.35600  25263819.84600                  17389070.13740  25263821.96740
   2369582.77700  24200705.45500                   1892109.16240  24200707.93940
 96  9  8  1 49  0.0100000  0  6 14 15 18 22 25 29
  -1875283.28800  23413688.32200                  -1446981.36440  23413691.54540
  21403636.07500  25850690.34600                  19724157.38740  25850694.93940
   -420208.49100  27183168.69700                   -319465.78640  27183174.42840
  -3163262.62700  24979578.90800                  -2406924.37040  24979582.63540
  22394146.29600  25291773.69700                  17503537.61640  25291775.94740
   2405791.15700  24207595.75200                   1920323.50240  24207598.21340
 96  9  8  1 49 30.0100000  0  6 14 15 18 22 25 29
  -1836655.13400  23421039.15000                  -1416881.50440  23421042.43240
  21567942.76100  25881957.40800                  19852188.53040  25881962.17840
   -432309.09000  27180866.84600                   -328894.82440  27180869.98640
  -3166455.17100  24978972.22100                  -2409412.03640  24978976.08840
  22541261.70100  25319768.97100                  17618172.98940  25319771.37340
   2442169.72400  24214518.17400                   1948670.45040  24214520.72840
 96  9  8  1 50  0.0100000  0  6 14 15 18 22 25 29
  -1797529.70100  23428484.28300                  -1386394.14040  23428487.47140
  21732468.82600  25913265.54900                  19980390.62240  25913269.87340
   -444361.45100  27178572.54100                   -338286.19040  27178577.93240
  -3169256.55200  24978438.53300                  -2411594.90540  24978442.45940
  22688590.24700  25347805.01000                  17732974.45740  25347807.50640
   2478708.44700  24221471.23600                   1977142.18140  24221473.73240
 96  9  8  1 50 30.0100000  0  6 14 15 18 22 25 29
  -1757937.76000  23436018.30700                  -1355543.26440  23436021.49440
  21897198.21900  25944612.52500                  20108751.15440  25944617.09640
   -456399.21000  27176282.04100                   -347666.27340  27176286.40040
  -3171678.32700  24977977.10300                  -2413481.97240  24977980.95940
  22836120.87700  25375878.93200                  17847933.38340  25375881.31040
   2515393.99000  24228452.51000                   2005728.31640  24228454.95940
 96  9  8  1 51  0.0100000  0  6 14 15 18 22 25 29
  -1717888.03900  23443639.64300                  -1324335.68140  23443642.84240
  22062137.60400  25975999.67400                  20237275.32640  25976004.32640
   -468420.84500  27173995.24400                   -357033.73740  27173998.08040
  -3173713.40900  24977589.61900                  -2415067.72240  24977593.14640
  22983864.32500  25403993.61100                  17963058.13940  25403995.92040
   2552235.94800  24235463.31400                   2034436.34640  24235465.83440
 96  9  8  1 51 30.0100000  0  6 14 15 18 22 25 29
  -1677396.76100  23451344.86900                  -1292784.03040  23451348.08040
  22227279.78800  26007425.06400                  20365957.49240  26007429.11940
   -480443.44400  27171705.98600                   -366401.95240  27171710.11140
  -3175356.76500  24977277.69700                  -2416348.24240  24977281.23640
  23131819.61500  25432148.44700                  18078347.97440  25432150.70940
   2589223.23300  24242501.58800                   2063257.61340  24242503.93240
 96  9  8  1 52  0.0100000  0  6 14 15 18 22 25 29
  -1636448.34700  23459136.94700                  -1260876.16640  23459139.99440
  22392629.52400  26038890.04100                  20494801.41740  26038894.36540
   -492460.50700  27169420.16600                   -375765.85940  27169423.31840
  -3176579.53000  24977044.73600                  -2417301.01540  24977048.20540
  23279986.55600  25460343.68200                  18193802.72640  25460345.79140
   2626373.66800  24249571.12700                   2092206.01140  24249573.54140
 96  9  8  1 52 30.0100000  0  6 14 15 18 22 25 29
  -1595049.49600  23467014.86900                  -1228617.32140  23467017.98640
  22558175.55900  26070392.51800                  20623798.29340  26070397.14640
   -504451.44400  27167137.85300                   -385109.41340  27167141.90840
  -3177376.25900  24976893.13500                  -2417921.81340  24976896.75640
  23428360.78800  25488578.50200                  18309419.00840  25488581.05740
   2663686.23500  24256671.41600                   2121280.74340  24256673.80740
 96  9  8  1 53  0.0100000  0  6 14 15 18 22 25 29
  -1553180.15600  23474982.44700                  -1195991.85140  23474985.69340
  22723913.42200  26101931.30700                  20752944.63640  26101935.45540
   -516394.68300  27164865.85300                   -394415.76340  27164870.43540
  -3177755.88100  24976821.11100                  -2418217.59140  24976824.47540
  23576937.52500  25516851.28300                  18425193.09040  25516853.77940
   2701172.98300  24263804.94700                   2150491.20640  24263807.32640
 96  9  8  1 53 30.0100000  0  6 14 15 18 22 25 29
  -1510817.65200  23483043.90000                  -1162982.10340  23483046.99440
  22889844.88900  26133507.14300                  20882241.85240  26133510.72840
   -528265.72300  27162606.05700                   -403665.92140  27162610.66240
  -3177709.25800  24976829.64300                  -2418181.23340  24976833.22840
  23725711.71700  25545162.11100                  18541121.02040  25545164.17440
   2738842.38800  24270973.34600                   2179843.98140  24270975.66640
 96  9  8  1 54  0.0100000  0  6 14 15 18 22 25 29
  -1467947.87600  23491201.66600                  -1129577.07440  23491204.84240
  23055967.62200  26165119.12700                  21011688.09740  26165123.99040
   -540052.36300  27160362.58000                   -412850.24840  27160366.90440
  -3177236.27600  24976919.67400                  -2417812.65340  24976923.50640
  23874683.65600  25573510.68900                  18657203.05040  25573513.16240
   2776692.94700  24278175.95500                   2209337.93240  24278178.47540
 96  9  8  1 54 30.0100000  0  6 14 15 18 22 25 29
  -1424584.02000  23499453.51800                  -1095787.05240  23499456.65840
  23222262.39600  26196764.58800                  21141268.41940  26196769.12340
   -551776.42800  27158132.66600                   -421985.86040  27158134.89340
  -3176358.20800  24977086.97100                  -2417128.41840  24977090.47540
  24023846.10000  25601895.45500                  18773433.51040  25601897.52940
   2814703.37000  24285409.01000                   2238956.44940  24285411.48240
 96  9  8  1 55  0.0100000  0  6 14 15 18 22 25 29
  -1380696.95300  23507804.90800                  -1061589.33240  23507808.07240
  23388747.29100  26228445.58800                  21270996.87440  26228450.06440
   -563431.16400  27155913.92400                   -431067.42940  27155918.81040
  -3175052.53100  24977334.76000                  -2416110.97440  24977338.39340
  24173212.66500  25630319.01000                  18889823.03340  25630321.55340
   2852891.18700  24292675.81400                   2268713.19340  24292678.14640
 96  9  8  1 55 30.0100000  0  6 14 15 18 22 25 29
  -1336299.88400  23516253.51800                  -1026994.21140  23516256.70540
  23555411.18100  26260160.58800                  21400864.80540  26260164.90040
   -575035.43500  27153706.00200                   -440109.65940  27153708.20540
  -3173311.19700  24977666.61100                  -2414754.06340  24977670.27940
  24322790.18100  25658782.40800                  19006376.94440  25658784.86940
   2891234.75400  24299972.52500                   2298591.30040  24299974.91640
 96  9  8  1 56  0.0100000  0  6 14 15 18 22 25 29
  -1291403.34200  23524796.86900                   -992009.88840  23524800.05740
  23722246.49100  26291908.01800                  21530866.31240  26291912.44740
   -586605.85600  27151504.11100                   -449125.53840  27151507.74440
  -3171139.19000  24978079.48600                  -2413061.56740  24978082.72140
  24472575.90000  25687285.72800                  19123093.08040  25687288.21340
   2929720.04700  24307295.86100                   2328579.84840  24307298.32240
 96  9  8  1 56 30.0100000  0  6 14 15 18 22 25 29
  -1246011.78300  23533434.51800                   -956639.84740  23533437.71740
  23889252.05900  26323688.53300                  21661000.47140  26323692.56440
   -598140.00600  27149309.93900                   -458113.15340  27149312.96340
  -3168529.37700  24978576.56400                  -2411027.92740  24978580.15040
  24622557.54800  25715826.43200                  19239961.88040  25715828.62340
   2968349.34300  24314646.86100                   2358680.60040  24314649.17040
 96  9  8  1 57  0.0100000  0  6 14 15 18 22 25 29
  -1200136.50600  23542164.54100                   -920892.88040  23542167.68240
  24056423.42000  26355500.47800                  21791263.85040  26355506.05740
   -609628.72200  27147122.98600                   -467065.33740  27147126.77140
  -3165483.48600  24979155.97800                  -2408654.47940  24979159.61140
  24772731.16700  25744403.33000                  19356980.28240  25744405.80340
   3007126.63100  24322026.01000                   2388896.67240  24322028.38940
 96  9  8  1 57 30.0100000  0  6 14 15 18 22 25 29
  -1153777.66300  23550986.18900                   -884769.10840  23550989.40040
  24223765.91000  26387344.14300                  21921660.57140  26387349.29940
   -621062.83200  27144947.91600                   -475975.02140  27144951.53740
  -3161994.94000  24979819.84600                  -2405936.10640  24979823.47840
  24923103.05000  25773018.65000                  19474153.15940  25773021.24040
   3046068.33800  24329436.45500                   2419240.86440  24329438.89340
 96  9  8  1 58  0.0100000  0  6 14 15 18 22 25 29
  -1106953.69700  23559896.46300                   -848282.90040  23559899.68540
  24391260.33900  26419217.40800                  22052175.68540  26419222.48240
   -632453.09900  27142778.99400                   -484850.53140  27142782.72140
  -3158079.43200  24980564.83800                  -2402885.03840  24980568.62340
  25073639.66600  25801664.28300                  19591454.42140  25801667.17840
   3085178.91500  24336878.79900                   2449716.65340  24336881.09640
 96  9  8  1 58 30.0110000  0  6 14 15 18 22 25 29
  -1059650.39500  23568898.10800                   -811423.18440  23568901.37840
  24558909.30000  26451120.14700                  22182811.19640  26451124.84740
   -643799.59100  27140621.71800                   -493691.94240  27140624.43640
  -3153733.51600  24981391.56900                  -2399498.58440  24981395.08540
  25224359.81200  25830345.24100                  19708898.68040  25830348.04240
   3124482.92600  24344358.14700                   2480343.16240  24344360.38640
 96  9  8  1 59  0.0110000  0  6 14 15 18 22 25 29
  -1011854.48000  23577993.28800                   -774179.61240  23577996.48740
  24726711.56300  26483051.64700                  22313566.17340  26483055.99540
   -655087.44400  27138471.58500                   -502487.62540  27138475.49940
  -3148952.49000  24982301.96800                  -2395773.08640  24982305.39040
  25375275.17700  25859063.52200                  19826495.06440  25859065.86640
   3164000.03000  24351877.91300                   2511135.71940  24351880.24540
 96  9  8  1 59 30.0110000  0  6 14 15 18 22 25 29
   -963558.68900  23587183.75700                   -736546.52840  23587186.94440
  24894664.97600  26515011.81900                  22444438.93340  26515016.61240
   -666324.57100  27136334.74900                   -511243.81040  27136336.64740
  -3143726.82900  24983296.24900                  -2391701.11940  24983299.49540
  25526374.56800  25887817.13200                  19944234.84140  25887819.83940
   3203724.51600  24359437.20200                   2542089.87840  24359439.46440
 96  9  8  2  0  0.0110000  0  6 14 15 18 22 25 29
   -914759.30300  23596469.81100                   -698521.03340  23596473.04640
  25062764.08500  26547000.01500                  22575425.21640  26547004.52640
   -677513.15400  27134205.09300                   -519962.17540  27134209.32340
  -3138049.14300  24984376.52200                  -2387276.93040  24984379.76840
  25677650.46800  25916603.78800                  20062112.15940  25916606.54240
   3243640.90000  24367033.17100                   2573193.56140  24367035.40940
 96  9  8  2  0 30.0110000  0  6 14 15 18 22 25 29
   -865463.76300  23605850.39700                   -660108.92740  23605853.62040
  25230996.81300  26579014.21000                  22706515.61540  26579019.12040
   -688672.84500  27132081.38200                   -528657.99840  27132083.39740
  -3131928.87300  24985541.36600                  -2382507.85940  24985544.82340
  25829087.59700  25945420.93600                  20180115.12040  25945423.66740
   3283705.99600  24374657.29600                   2604413.12340  24374659.52240
 96  9  8  2  1  0.0110000  0  6 14 15 18 22 25 29
   -815670.89100  23615325.61600                   -621309.28740  23615328.81540
  25399368.22900  26611054.17100                  22837714.09440  26611057.92140
   -699793.37600  27129965.37400                   -537323.32140  27129968.63240
  -3125348.15900  24986793.42900                  -2377380.01140  24986796.74540
  25980672.53400  25974267.17100                  20298233.25340  25974269.91340
   3323907.74600  24382307.42100                   2635739.17840  24382309.70640
 96  9  8  2  1 30.0110000  0  6 14 15 18 22 25 29
   -765374.24800  23624897.12400                   -582117.09840  23624900.33540
  25567869.64600  26643118.68600                  22969013.87440  26643123.16340
   -710900.56700  27127851.07700                   -545978.23540  27127854.95640
  -3118301.23500  24988134.17900                  -2371888.87440  24988137.51840
  26132392.88600  26003138.15500                  20416456.91040  26003140.67540
   3364224.87500  24389979.52200                   2667155.13740  24389981.77240
 96  9  8  2  2  0.0110000  0  6 14 15 18 22 25 29
   -714555.89200  23634567.35800                   -542518.38440  23634570.47640
  25736508.23700  26675209.85800                  23100420.54340  26675214.08940
   -721997.79800  27125739.92900                   -554625.42940  27125742.09740
  -3110792.01500  24989562.89700                  -2366037.51340  24989566.17940
  26284265.54500  26032038.72600                  20534799.22640  26032041.62040
   3404672.99400  24397676.52200                   2698673.15740  24397678.64340
 96  9  8  2  2 30.0110000  0  6 14 15 18 22 25 29
   -663211.07400  23644337.92900                   -502509.43140  23644341.23340
  25905278.20900  26707325.70200                  23231929.58340  26707330.29640
   -733089.67000  27123628.68600                   -563268.39740  27123632.33140
  -3102825.23800  24991079.32700                  -2359829.61040  24991082.89040
  26436298.38000  26060969.74100                  20653266.37740  26060972.42540
   3445263.90700  24405400.76500                   2730302.45140  24405402.96840
 96  9  8  2  3  0.0110000  0  6 14 15 18 22 25 29
   -611340.28100  23654208.59300                   -462090.63140  23654211.76840
  26074168.89800  26739464.52200                  23363532.67440  26739469.29240
   -744176.62200  27121519.15500                   -571907.55940  27121523.31540
  -3094403.79900  24992681.93600                  -2353267.42540  24992685.32340
  26588496.59600  26089932.24900                  20771862.39140  26089934.95640
   3486026.28900  24413157.50700                   2762065.35840  24413159.79240
 96  9  8  2  3 30.0110000  0  6 14 15 18 22 25 29
   -558937.48100  23664180.64000                   -421257.27940  23664183.76840
  26243182.08900  26771626.90500                  23495231.25940  26771630.66740
   -755250.97700  27119411.62400                   -580536.91040  27119413.92140
  -3085520.89800  24994372.28000                  -2346345.65840  24994375.56140
  26740870.16500  26118928.07700                  20890595.03240  26118930.38640
   3526991.28400  24420952.89700                   2793986.14040  24420955.10140
 96  9  8  2  4  0.0110000  0  6 14 15 18 22 25 29
   -506011.48200  23674252.03800                   -380016.23240  23674255.21440
  26412319.95800  26803811.96800                  23627026.95940  26803816.46840
   -766275.82700  27117313.73300                   -589127.66040  27117317.77640
  -3076165.24000  24996152.36600                  -2339055.51040  24996155.67140
  26893428.81900  26147958.78000                  21009471.91940  26147962.07340
   3568176.29400  24428790.10800                   2826078.37040  24428792.24140
 96  9  8  2  4 30.0110000  0  6 14 15 18 22 25 29
   -452573.68700  23684420.86600                   -338376.38840  23684424.00740
  26581583.32200  26836022.04600                  23758920.43740  26836027.36640
   -777228.34700  27115229.60800                   -597662.08340  27115233.24140
  -3066318.50800  24998026.26500                  -2331382.71540  24998029.54640
  27046172.42300  26177025.56100                  21128492.90140  26177027.84740
   3609576.66900  24436668.26500                   2858338.40640  24436670.42140
 96  9  8  2  5  0.0110000  0  6 14 15 18 22 25 29
   -398643.90000  23694683.39000                   -296353.17540  23694686.58940
  26750952.71600  26868252.10100                  23890896.55340  26868257.43340
   -788119.19400  27113158.26500                   -606148.39740  27113161.56940
  -3056001.73400  24999989.71000                  -2323343.64940  24999993.24940
  27199066.49000  26206119.64000                  21247631.13240  26206122.00740
   3651164.96500  24444582.35100                   2890744.88540  24444584.55440
 96  9  8  2  5 30.0110000  0  6 14 15 18 22 25 29
   -344222.68300  23705039.35800                   -253947.02740  23705042.59340
  26920435.03100  26900503.37400                  24022960.66140  26900509.90140
   -798936.04000  27111098.78000                   -614577.09640  27111103.44440
  -3045207.50400  25002043.21000                  -2314932.53740  25002046.31540
  27352111.58200  26235242.95200                  21366887.05340  26235245.88240
   3692923.02300  24452528.53000                   2923283.64440  24452530.80440
 96  9  8  2  6  0.0110000  0  6 14 15 18 22 25 29
   -289313.85300  23715488.17100                   -211160.91940  23715491.37040
  27090025.75900  26932775.53000                  24155109.23540  26932780.37040
   -809685.51300  27109052.51500                   -622953.27540  27109056.40540
  -3033940.66800  25004187.43600                  -2306153.16140  25004190.71840
  27505304.43200  26264395.28000                  21486258.09240  26264398.15140
   3734828.14800  24460502.97600                   2955937.00440  24460505.14340
 96  9  8  2  6 30.0110000  0  6 14 15 18 22 25 29
   -233907.94300  23726031.57700                   -167987.48140  23726034.75340
  27259720.19700  26965067.07700                  24287338.62040  26965072.24540
   -820394.78900  27107015.05400                   -631298.09440  27107018.54640
  -3022194.51600  25006422.33500                  -2297000.29740  25006425.86240
  27658637.98100  26293573.27200                  21605738.78840  26293575.52240
   3776882.29800  24468505.57700                   2988706.48640  24468507.69840
 96  9  8  2  7  0.0110000  0  6 14 15 18 22 25 29
   -178004.18800  23736669.51500                   -124426.10740  23736672.80840
  27429500.94900  26997375.87400                  24419635.26740  26997380.62040
   -831088.62600  27104979.93600                   -639630.94040  27104984.35440
  -3009980.50300  25008746.81900                  -2287482.86540  25008749.97240
  27812096.75200  26322774.85800                  21725317.06840  26322777.27240
   3819080.52800  24476535.59300                   3021588.23040  24476537.80840
 96  9  8  2  7 30.0110000  0  6 14 15 18 22 25 29
   -121589.28900  23747405.05400                    -80466.44040  23747408.38240
  27599368.91700  27029700.85800                  24551999.89040  27029704.65540
   -841768.96100  27102947.99900                   -647953.20540  27102950.81140
  -2997268.51800  25011165.86600                  -2277577.39840  25011169.15940
  27965700.16100  26352005.48300                  21845008.02240  26352007.95640
   3861436.65200  24484595.65500                   3054593.00940  24484597.80040
 96  9  8  2  8  0.0110000  0  6 14 15 18 22 25 29
    -64637.09400  23758242.56100                    -36088.10340  23758245.87840
  27769325.93200  27062042.33500                  24684433.87640  27062047.49140
   -852435.26900  27100917.20200                   -656264.58640  27100920.92940
  -2984042.89300  25013682.67900                  -2267271.68840  25013685.84340
  28119446.91100  26381262.73300                  21964810.67640  26381264.28040
   3903972.62900  24492689.99100                   3087737.93340  24492692.15940
 96  9  8  2  8 30.0110000  0  6 14 15 18 22 25 29
     -7125.97400  23769186.67900                      8725.76440  23769189.94840
  27939371.42900  27094401.17900                  24816936.82140  27094405.93640
   -863076.05400  27098893.36600                   -664556.03740  27098896.76540
  -2970303.69000  25016297.28800                  -2256565.79740  25016300.51140
  28273340.26600  26410546.78000                  22084727.58840  26410549.15940
   3946704.06500  24500821.32700                   3121035.16840  24500823.62440
 96  9  8  2  9  0.0110000  0  6 14 15 18 22 25 29
     50963.11100  23780240.66300                     53989.98640  23780244.00340
  28109516.31600  27126778.60800                  24949517.21140  27126784.04640
   -873653.28100  27096880.04600                   -672797.98140  27096884.40540
  -2956047.24000  25019009.79600                  -2245456.84640  25019013.20640
  28427387.41200  26439861.67100                  22204764.32940  26439864.35440
   3989634.83100  24508990.89700                   3154487.72540  24508993.13640
 96  9  8  2  9 30.0110000  0  6 14 15 18 22 25 29
    109605.19100  23791399.91300                     99685.10840  23791403.15940
  28279739.94300  27159171.20200                  25082158.94040  27159175.70240
   -884173.64900  27094878.32700                   -680995.62340  27094880.71840
  -2941291.57000  25021817.67900                  -2233958.89940  25021820.83140
  28581561.74900  26469200.68600                  22324900.16040  26469203.47640
   4032736.52100  24517192.81100                   3188073.45940  24517195.12040
 96  9  8  2 10  0.0120000  0  6 14 15 18 22 25 29
    168795.54900  23802663.44100                    145807.46240  23802666.71140
  28450047.16000  27191580.07400                  25214865.82140  27191584.34040
   -894617.08600  27092890.56600                   -689133.32240  27092894.24640
  -2926047.44000  25024718.72300                  -2222080.33440  25024721.98040
  28735856.88300  26498560.99600                  22445130.14740  26498563.49240
   4076008.23500  24525427.04300                   3221791.68740  24525429.38740
 96  9  8  2 10 30.0120000  0  6 14 15 18 22 25 29
    228519.96500  23814028.73800                    192345.96740  23814031.91440
  28620429.50300  27224002.37100                  25347631.23940  27224007.04740
   -904963.37100  27090923.58200                   -697195.31340  27090925.87940
  -2910307.92300  25027713.87900                  -2209815.74840  25027717.46540
  28890283.98800  26527947.22300                  22565462.95940  26527950.46940
   4119435.25200  24533690.85500                   3255630.92440  24533693.29340
 96  9  8  2 11  0.0120000  0  6 14 15 18 22 25 29
    288765.50000  23825492.98000                    239290.54140  23825496.14440
  28790896.51700  27256440.98800                  25480462.66340  27256446.51940
   -915216.82400  27088972.01900                   -705184.96440  27088974.86740
  -2894052.81800  25030807.12900                  -2197149.40640  25030810.36340
  29044855.19000  26557361.66000                  22685908.03640  26557364.57840
   4163013.39700  24541983.41800                   3289587.92940  24541985.73840
 96  9  8  2 11 30.0120000  0  6 14 15 18 22 25 29
    349513.99400  23837052.92600                    286627.02840  23837056.12540
  28961434.91200  27288893.41800                  25613349.68140  27288898.03540
   -925409.45900  27087031.76900                   -713127.24240  27087035.40240
  -2877285.87100  25033997.80900                  -2184084.22940  25034001.16040
  29199566.80400  26586803.23800                  22806462.53640  26586805.75840
   4206748.91700  24550306.15200                   3323667.55840  24550308.55540
 96  9  8  2 12  0.0120000  0  6 14 15 18 22 25 29
    410763.25700  23848708.41000                    334353.72140  23848711.68040
  29132029.97100  27321356.70700                  25746280.83740  27321360.70340
   -935563.20100  27085098.98800                   -721039.18840  27085103.01940
  -2860019.97600  25037283.30900                  -2170630.26040  25037286.59040
  29354422.04600  26616270.60500                  22927128.96340  26616272.14140
   4250649.47400  24558660.23800                   3357875.79340  24558662.59440
 96  9  8  2 12 30.0120000  0  6 14 15 18 22 25 29
    472527.36200  23860461.80100                    382481.58640  23860465.02340
  29302686.44800  27353831.62900                  25879259.87440  27353836.18740
   -945694.65600  27083171.87100                   -728933.80940  27083176.30140
  -2842241.92600  25040666.46500                  -2156777.21540  25040669.53540
  29509426.33500  26645766.12100                  23047911.54240  26645768.80540
   4294731.29800  24567048.74600                   3392225.27140  24567051.14840
 96  9  8  2 13  0.0120000  0  6 14 15 18 22 25 29
    534818.69800  23872315.41800                    431020.28740  23872318.66440
  29473400.56100  27386317.24600                  26012283.82640  27386322.97640
   -955822.00200  27081244.87900                   -736825.19040  27081248.50040
  -2823956.87500  25044146.00400                  -2142529.10140  25044149.25040
  29664552.83800  26675285.43400                  23168789.33540  26675287.89440
   4339017.34500  24575476.30900                   3426733.88640  24575478.52340
 96  9  8  2 13 30.0120000  0  6 14 15 18 22 25 29
    597663.10000  23884274.42600                    479989.94440  23884277.54340
  29644175.83000  27418814.38700                  26145355.41540  27418818.88740
   -965926.69200  27079320.52700                   -744698.94440  27079324.86340
  -2805155.76400  25047723.74600                  -2127878.85940  25047726.92240
  29819805.03600  26704830.19100                  23289765.05640  26704833.48440
   4383521.96200  24583945.14400                   3461412.81140  24583947.44140
 96  9  8  2 14  0.0120000  0  6 14 15 18 22 25 29
    661060.86900  23896338.56600                    529390.80040  23896341.78940
  29815009.19100  27451323.43400                  26278472.27640  27451328.22640
   -975997.33900  27077403.42600                   -752546.20140  27077407.29340
  -2785835.88800  25051400.06600                  -2112824.38740  25051403.38340
  29975178.24400  26734397.12100                  23410835.07940  26734400.48440
   4428220.94400  24592451.03500                   3496243.19940  24592453.33240
 96  9  8  2 14 30.0120000  0  6 14 15 18 22 25 29
    725004.80300  23908506.72300                    579217.24440  23908509.93440
  29985894.21300  27483842.18400                  26411629.42240  27483846.01640
   -986030.04400  27075495.36300                   -760363.89040  27075498.56240
  -2765985.56900  25055177.50400                  -2097356.57840  25055180.76240
  30130652.02000  26763982.80100                  23531983.49440  26763985.10940
   4473088.58400  24600989.07400                   3531205.00640  24600991.37140
 96  9  8  2 15  0.0120000  0  6 14 15 18 22 25 29
    789484.04600  23920776.60500                    629460.80540  23920779.79340
  30156818.44600  27516367.55900                  26544817.07640  27516372.14140
   -996020.93900  27073593.13700                   -768148.95940  27073596.18440
  -2745611.42200  25059054.35500                  -2081480.59740  25059057.54340
  30286230.17200  26793587.01900                  23653213.24840  26793589.71540
   4518101.91900  24609554.86300                   3566280.34040  24609557.13740
 96  9  8  2 15 30.0120000  0  6 14 15 18 22 25 29
    854493.91400  23933147.51900                    680117.85040  23933150.80140
  30327783.07900  27548901.39400                  26678036.24540  27548905.94140
  -1005959.70500  27071703.10500                   -775893.42540  27071707.46540
  -2724703.92000  25063032.90200                  -2065189.01540  25063036.05540
  30441930.42700  26823215.24600                  23774538.11940  26823218.05940
   4563250.67400  24618146.37100                   3601461.19640  24618148.70340
 96  9  8  2 16  0.0120000  0  6 14 15 18 22 25 29
    920026.15000  23945617.94100                    731181.92540  23945621.18740
  30498781.96600  27581441.65200                  26811282.10240  27581444.92240
  -1015850.93600  27069820.34800                   -783600.87640  27069824.09840
  -2703260.81000  25067113.41800                  -2048480.07740  25067116.48840
  30597743.12300  26852865.85500                  23895950.60940  26852867.83640
   4608530.13800  24626762.68400                   3636743.90540  24626764.81640
 96  9  8  2 16 30.0120000  0  6 14 15 18 22 25 29
    986087.87200  23958189.10500                    782658.59140  23958192.41040
  30669811.72800  27613987.15200                  26944552.00840  27613992.43740
  -1025693.95700  27067947.34000                   -791270.74440  27067950.62140
  -2681282.53200  25071295.57400                  -2031354.12640  25071298.59840
  30753655.22300  26882535.37900                  24017440.56640  26882537.74640
   4653957.82900  24635407.36300                   3672142.12140  24635409.61340
 96  9  8  2 17  0.0120000  0  6 14 15 18 22 25 29
   1052677.50700  23970860.54300                    834546.61540  23970863.73040
  30840863.33700  27646537.30900                  27077838.94540  27646542.21940
  -1035490.59600  27066083.46500                   -798904.44640  27066087.43740
  -2658792.63300  25075575.34800                  -2013829.50240  25075578.50040
  30909661.67200  26912221.75400                  24139004.02940  26912225.76240
   4699553.11300  24644083.63700                   3707670.92440  24644085.84040
 96  9  8  2 17 30.0120000  0  6 14 15 18 22 25 29
   1119810.33000  23983635.69100                    886857.90940  23983638.89140
  31011941.73600  27679092.00400                  27211146.76040  27679095.63740
  -1045220.86100  27064231.98800                   -806486.46140  27064235.37540
  -2635786.61000  25079952.91000                  -1995902.70640  25079956.33240
  31065750.69700  26941925.38700                  24260631.83340  26941927.91840
   4745340.21500  24652796.65200                   3743349.19640  24652799.00840
 96  9  8  2 18  0.0120000  0  6 14 15 18 22 25 29
   1187504.14100  23996517.12900                    939606.33440  23996520.31640
  31183054.74100  27711654.25400                  27344481.54640  27711658.32040
  -1054860.37200  27062396.59800                   -813997.73740  27062400.23040
  -2612252.75300  25084431.41800                  -1977564.61240  25084434.94540
  31221929.93000  26971645.70700                  24382329.95040  26971648.63740
   4791343.14800  24661550.66800                   3779195.64440  24661553.09440
 96  9  8  2 18 30.0120000  0  6 14 15 18 22 25 29
   1255730.06900  24009500.41800                    992769.40440  24009503.64140
  31354180.02700  27744218.09000                  27477825.88940  27744221.92240
  -1064423.31100  27060576.65200                   -821449.38240  27060580.96540
  -2588223.33100  25089004.05900                  -1958840.36640  25089007.21140
  31378186.01000  27001380.46500                  24504087.93040  27001382.84440
   4837565.72300  24670346.56600                   3815213.24740  24670348.80540
 96  9  8  2 19  0.0120000  0  6 14 15 18 22 25 29
   1324496.95900  24022586.19900                   1046353.99140  24022589.28140
  31525326.35100  27776785.84800                  27611186.61840  27776790.57040
  -1073899.02900  27058773.66800                   -828833.06040  27058778.18040
  -2563685.36100  25093673.48000                  -1939719.84440  25093676.75040
  31534548.29700  27031134.67600                  24625928.69040  27031137.94540
   4884012.81800  24679185.23000                   3851405.79140  24679187.63340
 96  9  8  2 19 30.0120000  0  6 14 15 18 22 25 29
   1393787.71200  24035771.79300                   1100346.77740  24035774.98040
  31696482.20100  27809355.93400                  27744554.76940  27809361.21940
  -1083305.56900  27056983.59000                   -836162.81240  27056986.05140
  -2538630.65900  25098441.23800                  -1920196.67440  25098444.29740
  31691009.74000  27060908.37900                  24747846.67940  27060910.38340
   4930657.86800  24688061.41800                   3887752.59640  24688063.66840
 96  9  8  2 20  0.0120000  0  6 14 15 18 22 25 29
   1463604.38600  24049057.42600                   1154749.38440  24049060.55540
  31867653.20300  27841928.67600                  27877934.73140  27841932.44940
  -1092657.23200  27055204.09000                   -843449.78240  27055206.73840
  -2513041.16000  25103310.85500                  -1900256.77640  25103314.18440
  31847582.68000  27090703.06600                  24869851.57040  27090705.15240
   4977497.51600  24696974.86300                   3924251.03540  24696977.09040
 96  9  8  2 20 30.0120000  0  6 14 15 18 22 25 29
   1533960.52000  24062445.80100                   1209572.35040  24062448.90640
  32038840.75500  27874504.89400                  28011327.60740  27874510.14440
  -1101967.55300  27053432.73000                   -850704.54740  27053436.19940
  -2486899.59600  25108285.21500                  -1879886.70240  25108288.68440
  32004264.72600  27120519.26200                  24991941.47440  27120521.74640
   5024518.69800  24705922.44900                   3960890.92040  24705924.66440
 96  9  8  2 21  0.0130000  0  6 14 15 18 22 25 29
   1604876.15100  24075940.45400                   1264831.28440  24075943.54840
  32210049.97000  27907085.11800                  28144737.36240  27907090.83740
  -1111257.13300  27051664.87600                   -857943.15840  27051668.05240
  -2460173.85700  25113371.11800                  -1859061.42440  25113374.63440
  32161046.84800  27150353.10200                  25114109.36740  27150355.85640
   5071710.83400  24714902.92300                   3997664.02640  24714905.11440
 96  9  8  2 21 30.0130000  0  6 14 15 18 22 25 29
   1676329.04300  24089537.63400                   1320508.86840  24089540.73940
  32381248.77500  27939662.86000                  28278138.98440  27939668.39240
  -1120549.25100  27049896.82100                   -865183.73840  27049900.43140
  -2432872.54200  25118566.15700                  -1837787.64240  25118569.70840
  32317892.57600  27180200.14900                  25236326.80940  27180202.28240
   5119068.68700  24723914.82900                   4034566.25840  24723916.97440
 96  9  8  2 22  0.0130000  0  6 14 15 18 22 25 29
   1748343.02800  24103241.39900                   1376623.66140  24103244.45840
  32552451.95700  27972242.00900                  28411544.02940  27972248.57140
  -1129823.30400  27048131.92300                   -872410.22140  27048135.41540
  -2404987.84400  25123872.53200                  -1816059.28440  25123875.80240
  32474816.35500  27210061.28200                  25358605.06940  27210063.25140
   5166621.55800  24732963.82100                   4071620.44740  24732965.91940
 96  9  8  2 22 30.0130000  0  6 14 15 18 22 25 29
   1820924.17200  24117053.05600                   1433180.40440  24117056.19640
  32723657.44000  28004820.97000                  28544950.86140  28004825.68140
  -1139065.57700  27046373.98500                   -879611.95340  27046377.13840
  -2376525.58200  25129289.06300                  -1793880.87040  25129292.43840
  32631821.05400  27239938.79000                  25480946.38040  27239941.46240
   5214384.81800  24742052.81300                   4108838.57740  24742054.94640
 96  9  8  2 23  0.0130000  0  6 14 15 18 22 25 29
   1894049.84000  24130968.57900                   1490161.44640  24130971.60240
  32894858.78800  28037399.62600                  28678354.47040  28037405.22740
  -1148261.72000  27044622.03200                   -886777.73940  27044625.93440
  -2347506.64000  25134810.82900                  -1771268.68040  25134814.25140
  32788913.64900  27269832.19600                  25603356.19640  27269834.73940
   5262358.88400  24751182.12600                   4146220.98140  24751184.34140
 96  9  8  2 23 30.0130000  0  6 14 15 18 22 25 29
   1967713.17200  24144986.19600                   1547561.44840  24144989.32540
  33066047.03900  28069975.43100                  28811747.87340  28069979.35640
  -1157384.95800  27042887.07900                   -893886.70240  27042890.91140
  -2317968.68400  25140431.63400                  -1748252.07040  25140434.90340
  32946099.26200  27299744.00100                  25725838.49140  27299745.68840
   5310510.43100  24760345.14900                   4183741.67340  24760347.32940
 96  9  8  2 24  0.0130000  0  6 14 15 18 22 25 29
   2041926.64900  24159108.63400                   1605390.13740  24159111.71640
  33237227.26900  28102549.97000                  28945135.00640  28102555.29040
  -1166418.95800  27041168.14900                   -900926.15540  27041172.19240
  -2287902.04800  25146153.15700                  -1724823.50140  25146156.47440
  33103373.80600  27329672.35200                  25848390.08440  27329674.90740
   5358822.11000  24769538.38400                   4221387.13640  24769540.54040
 96  9  8  2 24 30.0130000  0  6 14 15 18 22 25 29
   2116686.46300  24173334.72000                   1663644.54440  24173337.69640
  33408394.08300  28135122.57100                  29078511.68940  28135126.62640
  -1175367.69500  27039464.75900                   -907899.16540  27039468.66140
  -2257291.33700  25151978.22700                  -1700970.97640  25151981.72040
  33260733.96900  27359616.75900                  25971008.37540  27359619.05640
   5407279.77600  24778759.51700                   4259146.36940  24778761.63840
 96  9  8  2 25  0.0130000  0  6 14 15 18 22 25 29
   2191994.44800  24187665.36000                   1722326.08040  24187668.38440
  33579545.84700  28167691.86800                  29211876.67640  28167697.49340
  -1184232.49700  27037778.71200                   -914806.76340  27037782.13440
  -2226124.04600  25157909.08700                  -1676684.75940  25157912.39240
  33418187.01200  27389579.41500                  26093699.05540  27389582.62640
   5455877.70500  24788007.46200                   4297014.88640  24788009.57140
 96  9  8  2 25 30.0130000  0  7  4 14 15 18 22 25 29
        -1.82110  28775675.31300
   2267860.42200  24202102.19600                   1781442.41840  24202105.16140
  33750673.74800  28200255.90700                  29345223.03940  28200260.51340
  -1193038.22200  27036103.39200                   -921668.31740  27036106.73140
  -2194384.51700  25163949.08700                  -1651952.63740  25163952.35640
  33575719.59600  27419555.87600                  26216451.73940  27419557.98540
   5504633.14500  24797285.29800                   4335006.15440  24797287.34940
 96  9  8  2 26  0.0130000  0  7  4 14 15 18 22 25 29
     32834.39200  28781924.66500                     11134.23250  28781927.73540
   2344293.04700  24216647.08700                   1841000.30940  24216650.15740
  33921785.86700  28232817.45400                  29478557.11740  28232821.68440
  -1201799.79100  27034435.86800                   -928495.46440  27034439.17340
  -2162039.44300  25170104.02400                  -1626748.66040  25170107.29440
  33733341.95700  27449550.84500                  26339274.34540  27449553.18840
   5553598.51000  24806603.05600                   4373160.99140  24806605.11840
 96  9  8  2 26 30.0130000  0  7  4 14 15 18 22 25 29
     66177.24600  28788268.94600                     37115.72740  28788271.71240
   2421281.16400  24231297.33700                   1900991.04940  24231300.47740
  34092873.36200  28265374.79800                  29611872.00540  28265379.94240
  -1210521.06600  27032776.46200                   -935291.21640  27032779.86040
  -2129106.92800  25176371.03200                  -1601086.93540  25176374.27840
  33891061.96800  27479564.18800                  26462173.05140  27479567.03640
   5602780.34200  24815962.02400                   4411484.50040  24815964.26340
 96  9  8  2 27  0.0130000  0  7  4 14 15 18 22 25 29
    100008.34900  28794706.17300                     63477.62240  28794710.28640
   2498816.02000  24246051.67300                   1961407.82740  24246054.68440
  34263922.94000  28297924.14200                  29745157.34040  28297928.30240
  -1219214.28200  27031121.96200                   -942065.09640  27031125.06740
  -2095613.73000  25182744.14900                  -1574988.31640  25182747.43140
  34048858.43700  27509591.89900                  26585131.35340  27509594.57140
   5652169.44900  24825360.47000                   4449969.52140  24825362.68440
 96  9  8  2 27 30.0130000  0  7  4 14 15 18 22 25 29
    134328.03300  28801236.86800                     90220.29640  28801240.25540
   2576899.89900  24260910.64200                   2022252.41440  24260913.68840
  34434938.78600  28330467.32900                  29878416.42040  28330472.77840
  -1227864.23900  27029474.86000                   -948805.28540  27029477.35640
  -2061559.09600  25189224.82100                  -1548452.21140  25189228.04440
  34206719.28400  27539631.66500                  26708139.80940  27539634.09140
   5701776.14900  24834800.19600                   4488624.10540  24834802.47040
 96  9  8  2 28  0.0130000  0  7  4 14 15 18 22 25 29
    169135.54700  28807861.03200                    117343.09340  28807865.19240
   2655520.06200  24275871.45400                   2083514.88540  24275874.60640
  34605915.29000  28363003.32900                  30011644.81940  28363007.65340
  -1236453.89500  27027840.63400                   -955498.47840  27027843.57540
  -2026954.35500  25195809.85200                  -1521487.45640  25195812.99340
  34364638.01200  27569682.54000                  26831193.33840  27569684.91940
   5751576.95500  24844277.07900                   4527429.94040  24844279.25940
 96  9  8  2 28 30.0130000  0  7  4 14 15 18 22 25 29
    204425.84200  28814577.74300                    144842.09240  28814576.61840
   2734677.53800  24290934.60200                   2145196.03740  24290937.73140
  34776857.33800  28395533.42300                  30144846.36640  28395538.04040
  -1244955.67800  27026222.11000                   -962123.21340  27026226.14240
  -1991787.83600  25202501.58700                  -1494084.94740  25202504.78640
  34522618.65300  27599745.42300                  26954295.16240  27599748.36440
   5801562.05900  24853788.87600                   4566379.36940  24853791.07940
 96  9  8  2 29  0.0130000  0  7  4 14 15 18 22 25 29
    240195.09400  28821383.82100
   2814378.17500  24306101.30600                   2207300.42740  24306104.37640
  34947764.98300  28428054.83700                  30278021.10940  28428060.61440
  -1253363.34800  27024622.76700                   -968674.60240  27024626.64540
  -1956047.63300  25209303.04800                  -1466235.42140  25209306.21240
  34680659.49700  27629819.25900                  27077443.88140  27629820.81740
   5851744.34000  24863338.33700                   4605482.45540  24863340.57540
 96  9  8  2 29 30.0130000  0  7  4 14 15 18 22 25 29
    276452.90600  28828281.03200
   2894615.23800  24321370.11000                   2269822.80940  24321373.16940
  35118633.10100  28460570.49300                  30411165.06540  28460575.63840
  -1261680.72600  27023040.27400                   -975155.63840  27023044.08340
  -1919722.85900  25216215.14200                  -1437930.37340  25216218.29440
  34838768.19200  27659906.48500                  27200645.44840  27659909.48540
   5902124.27200  24872924.99300                   4644739.54740  24872927.24340
 96  9  8  2 30  0.0130000  0  7  4 14 15 18 22 25 29
    313180.91100  28835272.07100                     16261.51750  28835276.37240
   2975376.77400  24336738.29000                   2332753.86640  24336741.34940
  35289443.74700  28493074.60200                  30544264.23740  28493079.87640
  -1269932.41100  27021469.62600                   -981585.50940  27021472.23940
  -1882824.15200  25223236.87600                  -1409178.11240  25223239.89940
  34996936.72900  27690005.18100                  27323893.67640  27690008.42740
   5952676.92300  24882545.09500                   4684131.23640  24882547.28640
 96  9  8  2 30 30.0130000  0  7  4 14 15 18 22 25 29
    350399.98900  28842354.33700                     45263.26840  28842356.86840
   3056697.37600  24352212.97000                   2396120.55940  24352216.04040
  35460205.75800  28525570.09500                  30677325.47540  28525574.98140
  -1278118.75200  27019911.55600                   -987964.44840  27019915.15340
  -1845338.61300  25230370.18100                  -1379968.57940  25230373.39240
  35155169.58700  27720116.09500                  27447192.00040  27720118.67340
   6003427.48600  24892202.64200                   4723677.13840  24892204.84540
 96  9  8  2 31  0.0130000  0  7  4 14 15 18 22 25 29
    388134.92300  28849534.54000                     74667.10740  28849537.36440
   3138595.54000  24367797.68800                   2459937.31540  24367800.74740
  35630921.35200  28558055.47000                  30810350.59340  28558061.68140
  -1286254.17900  27018363.59500                   -994303.72940  27018367.16940
  -1807264.59700  25237615.25100                  -1350300.50040  25237618.40340
  35313462.06600  27750238.61800                  27570536.77540  27750241.51340
   6054389.90000  24901900.36000                   4763388.11740  24901902.62240
 96  9  8  2 31 30.0130000  0  7  4 14 15 18 22 25 29
    426388.39000  28856814.22000                    104475.07740  28856816.37640
   3221077.47500  24383493.63400                   2524208.95740  24383496.70440
  35801588.08000  28590532.44600                  30943337.58640  28590537.98940
  -1294344.06300  27016825.00900                  -1000607.49140  27016828.71240
  -1768606.35400  25244971.45400                  -1320177.17540  25244974.51340
  35471807.64400  27780369.62600                  27693922.95840  27780372.69640
   6105559.74600  24911637.64900                   4803260.73840  24911639.92340
 96  9  8  2 32  0.0130000  0  7  4 14 15 18 22 25 29
    465158.96400  28864192.61000                    134685.91540  28864195.90340
   3304154.87900  24399302.66500                   2588944.60440  24399305.78240
  35972200.62000  28622998.17300                  31076282.37040  28623004.48940
  -1302379.24900  27015294.86000                  -1006868.66940  27015298.68140
  -1729377.30900  25252436.68100                  -1289609.06640  25252439.78640
  35630199.38000  27810510.98500                  27817345.09340  27810513.55240
   6156942.09700  24921415.30600                   4843298.94440  24921417.46240
 96  9  8  2 32 30.0140000  0  7  4 14 15 18 22 25 29
    504448.95200  28871668.56800                    165301.54640  28871671.51040
   3387823.12900  24415224.06800                   2654140.64740  24415227.16240
  36142753.45000  28655454.28700                  31209180.59540  28655458.37740
  -1310365.35600  27013774.95900                  -1013091.57940  27013779.20140
  -1689585.34200  25260008.83400                  -1258602.31740  25260011.96340
  35788638.61700  27840661.38900                  27940804.21440  27840664.34240
   6208538.84200  24931233.79500                   4883504.21040  24931236.01040
 96  9  8  2 33  0.0140000  0  7  4 14 15 18 22 25 29
    544230.92600  28879238.67000                    196300.50940  28879243.61540
   3472045.83600  24431251.06800                   2719768.73140  24431254.13940
  36313224.14300  28687894.16200                  31342014.87940  28687899.33040
  -1318300.29200  27012265.26400                  -1019274.63340  27012268.99040
  -1649241.87400  25267685.95100                  -1227165.82940  25267688.99840
  35947118.27700  27870818.83400                  28064294.86740  27870822.20940
   6260328.69000  24941089.29500                   4923859.94340  24941091.51040
 96  9  8  2 33 30.0140000  0  7  4 14 15 18 22 25 29
    584500.39900  28886901.40400                    227679.33940  28886905.33040
   3556830.35200  24447385.00600                   2785834.59240  24447388.19340
  36483624.57300  28720319.74000                  31474794.40440  28720325.43540
  -1326154.23600  27010770.94300                  -1025394.58840  27010774.16640
  -1608339.82800  25275469.44300                  -1195294.08840  25275472.43240
  36105653.05300  27900987.07600                  28187828.46640  27900988.65840
   6312306.03200  24950980.08400                   4964361.77240  24950982.28740
 96  9  8  2 34  0.0140000  0  7  4 14 15 18 22 25 29
    625257.92900  28894658.72500                    259438.45740  28894661.88940
   3642172.98000  24463625.24000                   2852335.34640  24463628.49840
  36653958.19300  28752733.69300                  31607521.80740  28752739.01440
  -1333926.39500  27009292.05300                  -1031450.79040  27009295.66240
  -1566856.85200  25283363.23200                  -1162969.67440  25283366.42040
  36264246.43200  27931165.86500                  28311407.73140  27931168.92440
   6364472.34700  24960906.96700                   5005010.86440  24960909.12340
 96  9  8  2 34 30.0140000  0  7  4 14 15 18 22 25 29
    666482.38500  28902502.13100                    291561.41640  28902508.11940
   3728060.24100  24479968.91200                   2919260.48440  24479972.08840
  36824217.68300  28785132.27100                  31740191.56140  28785137.81440
  -1341619.69600  27007828.02900                  -1037445.55640  27007831.18240
  -1524785.79400  25291369.16200                  -1130187.01540  25291372.20940
  36422893.27200  27961355.79500                  28435028.61640  27961357.84640
   6416817.93100  24970868.09200                   5045799.64640  24970870.24840
 96  9  8  2 35  0.0140000  0  7  4 14 15 18 22 25 29
    708183.51500  28910438.51400                    324055.82540  28910442.48640
   3814500.30800  24496417.92000                   2986616.37740  24496421.08440
  36994405.23200  28817518.35000                  31872805.15240  28817524.56040
  -1349219.53500  27006381.58400                  -1043367.50640  27006384.32640
  -1482115.03900  25299488.98200                  -1096937.05740  25299492.11140
  36581585.81600  27991553.49800                  28558685.17640  27991556.28740
   6469351.56500  24980865.08400                   5086734.96540  24980867.17040
 96  9  8  2 35 30.0140000  0  7  4 14 15 18 22 25 29
    750382.15300  28918468.86500                    356937.87740  28918471.66640
   3901500.46800  24512973.53700                   3054408.70640  24512976.67840
  37164519.67700  28849889.69300                  32005361.74740  28849894.65040
  -1356728.06900  27004952.51400                  -1049218.28240  27004955.93540
  -1438834.74100  25307725.09200                  -1063212.12840  25307728.16240
  36740316.93300  28021758.84200                  28682371.75940  28021761.23240
   6522073.66200  24990897.61500                   5127817.13040  24990899.74840
 96  9  8  2 36  0.0140000  0  7  4 14 15 18 22 25 29
    793078.02600  28926593.43500                    390207.39940  28926596.27140
   3989044.13900  24529632.69300                   3122624.55340  24529635.95140
  37334546.59000  28882245.06800                  32137850.18340  28882250.57640
  -1364160.92000  27003538.13100                  -1055010.10940  27003541.82240
  -1394941.46500  25316077.51400                  -1029009.55340  25316080.63140
  36899086.05200  28051972.13900                  28806087.92940  28051974.99840
   6574991.23900  25000967.52900                   5169051.61540  25000969.62740
 96  9  8  2 36 30.0140000  0  7  4 14 15 18 22 25 29
    836308.18200  28934819.77100                    423893.26040  28934822.71340
   4077143.67500  24546397.37300                   3191273.54240  24546400.58440
  37504496.07100  28914585.82600                  32270278.24340  28914591.12340
  -1371493.05200  27002143.20900                  -1060723.46140  27002146.47840
  -1350423.29200  25324548.99800                   -994320.05140  25324552.09240
  37057904.78900  28082194.27900                  28929842.82740  28082196.28340
   6628121.01200  25011077.81800                   5210451.44940  25011079.89240
 96  9  8  2 37  0.0140000  0  8  4 14 15 18 19 22 25 29
    880079.81900  28943149.65400                    458001.04740  28943153.70940
   4165782.04800  24563264.68500                   3260342.40840  24563267.96740
  37674357.13400  28946908.22500                  32402637.41040  28946913.99040
  -1378742.79100  27000763.52900                  -1066372.59440  27000766.47140
     -8318.81210  28970327.84200
  -1305294.11100  25333136.75600                   -959154.42440  25333139.82640
  37216756.61900  28112423.13100                  29053623.44840  28112425.67440
   6681444.61400  25021225.22500                   5252002.30840  25021227.20540
 96  9  8  2 37 30.0140000  0  8  4 14 15 18 19 22 25 29
    924386.51900  28951580.63100                    492525.72340  28951584.06440
   4254952.88600  24580233.34200                   3329826.17640  24580236.54140
  37844130.63200  28979215.13900                  32534928.51440  28979223.29940
  -1385915.33600  26999398.69300                  -1071961.55840  26999401.83440
    -30934.38300  28966025.71700
  -1259557.04700  25341840.59200                   -923515.13740  25341843.52140
  37375648.17600  28142658.53700                  29177435.06040  28142660.43540
   6734964.36400  25031409.42800                   5293706.02540  25031411.50240
 96  9  8  2 38  0.0140000  0  8  4 14 15 18 19 22 25 29
    969210.31000  28960108.30300                    527453.36640  28960112.35740
   4344663.08900  24597304.48200                   3399730.23640  24597307.74040
  38013816.58700  29011506.40400                  32667151.33740  29011514.26040
  -1393010.66000  26998048.37300                  -1077490.36940  26998051.16240
    -53444.74300  28961740.69300
  -1213211.81200  25350659.49800                   -887401.94540  25350662.54540
  37534583.33100  28172903.39600                  29301280.62440  28172905.13140
   6788692.25800  25041633.45900                   5335571.92840  25041635.46340
 96  9  8  2 38 30.0140000  0  8  4 14 15 18 19 22 25 29
   1014539.58600  28968736.09200                    562774.88640  28968739.76040
   4434929.77700  24614481.74800                   3470067.91540  24614485.00640
  38183410.92800  29043777.96700                  32799302.64340  29043782.24440
  -1400040.59500  26996711.06000                  -1082968.20840  26996714.33040
    -75838.61800  28957479.81000                    -14535.22950  28957482.86940
  -1166274.02400  25359591.57600                   -850827.02740  25359594.52940
  37693549.26500  28203153.40400                  29425150.17540  28203155.73640
   6842626.71500  25051896.70100                   5377598.79040  25051898.82240
 96  9  8  2 39  0.0140000  0  8  4 14 15 18 19 22 25 29
   1060350.58500  28977452.56800                    598471.78440  28977454.13940
   4525770.60600  24631768.26400                   3540852.97540  24631771.59240
  38352911.63700  29076034.37300                  32931381.05940  29076042.24040
  -1407013.79000  26995383.76400                  -1088401.84040  26995386.86940
    -98093.94200  28953243.13900                    -31876.92340  28953248.90440
  -1118741.14500  25368636.65400                   -813788.40140  25368639.71340
  37852556.73500  28233411.88900                  29549052.12740  28233414.51440
   6896785.18100  25062202.67800                   5419800.20040  25062204.63540
 96  9  8  2 39 30.0140000  0  8  4 14 15 18 19 22 25 29
   1106633.49200  28986261.70100                    634536.37840  28986264.70140
   4617193.40200  24649165.16200                   3612091.51740  24649168.43240
  38522305.80200  29108268.17000                  33063376.49140  29108272.40040
  -1413934.22200  26994066.89600                  -1093794.34840  26994070.09640
   -120219.14000  28949033.24000                    -49117.32440  28949036.66240
  -1070609.13700  25377795.98200                   -776282.92040  25377799.10040
  38011608.69100  28263678.17000                  29672988.69340  28263681.19340
   6951178.79900  25072553.70100                   5462184.85240  25072555.81040
 96  9  8  2 40  0.0140000  0  8  4 14 15 18 19 22 25 29
   1153401.70500  28995160.35000                    670979.07440  28995164.06440
   4709207.42100  24666675.24000                   3683790.75340  24666678.53340
  38691591.56200  29140482.67000                  33195287.42440  29140487.39240
  -1420800.97600  26992760.14600                  -1099145.03240  26992763.08840
   -142211.66500  28944848.88900                    -66254.24540  28944857.58840
  -1021866.07100  25387071.20100                   -738301.29740  25387074.22540
  38170707.52000  28293953.36500                  29796961.78840  28293955.61540
   7005808.36600  25082949.23200                   5504753.35240  25082951.28340
 96  9  8  2 40 30.0140000  0  7  4 14 18 19 22 25 29
   1200685.22300  29004158.84200                    707823.41540  29004162.26440
   4801805.25200  24684295.85000                   3755944.90640  24684299.07240
  -1427606.18200  26991465.48200                  -1104447.73340  26991467.97840
   -164063.59800  28940689.31000                    -83281.64140  28940694.09240
   -972505.23600  25396464.26400                   -699838.28640  25396467.27540
  38329861.90100  28324239.75600                  29920978.22340  28324241.99440
   7060674.37000  25093389.96700                   5547506.09140  25093392.04140
 96  9  8  2 41  0.0140000  0  7  4 14 18 19 22 25 29
   1248485.72900  29013255.56000                    745070.56440  29013257.81040
   4894956.02700  24702021.85700                   3828529.92140  24702025.06840
  -1434332.27300  26990185.23200                  -1109688.80840  26990187.95140
   -185786.80000  28936556.92800                   -100208.70240  28936560.36140
   -922529.81300  25405974.30300                   -660896.38640  25405977.23240
  38489075.24200  28354537.30300                  30045040.54740  28354539.71740
   7115756.69600  25103871.67000                   5590427.39140  25103873.67440
 96  9  8  2 41 30.0140000  0  7  4 14 18 19 22 25 29
   1296816.04300  29022451.99000                    782730.53040  29022455.17840
   4988644.52200  24719850.16200                   3901533.93940  24719853.50240
  -1440964.61500  26988923.51400                  -1114856.83740  26988927.07640
   -207380.67600  28932447.56800                   -117035.02140  28932454.63940
   -871951.52200  25415599.09200                   -621484.70340  25415602.18540
  38648335.14400  28384842.80300                  30169139.17640  28384846.14240
   7171035.76800  25114391.04500                   5633502.00640  25114393.20140
 96  9  8  2 42  0.0140000  0  7  4 14 18 19 22 25 29
   1345663.60900  29031748.09200                    820793.59240  29031751.57240
   5082865.07300  24737779.83400                   3974952.55340  24737783.09240
  -1447500.12600  26987679.31800                  -1119949.41240  26987682.65840
   -228830.32000  28928365.70100                   -133748.93940  28928370.58840
   -820783.81200  25425336.03700                   -581613.74340  25425338.86140
  38807628.52700  28415155.70900                  30293263.87240  28415158.87340
   7226501.21600  25124945.58400                   5676721.84740  25124947.77540
 96  9  8  2 42 30.0140000  0  7  4 14 18 19 22 25 29
   1395018.70700  29041138.41200                    859252.11440  29041143.29940
   5177631.98700  24755813.28700                   4048796.90740  24755816.58040
  -1453917.45000  26986458.35000                  -1124949.87440  26986461.61940
   -250108.45500  28924315.60700                   -150329.24040  28924320.15440
   -769021.79600  25435185.95900                   -541279.68840  25435189.01740
  38966955.21500  28445474.25600                  30417414.55240  28445477.20940
   7282160.14000  25135537.16200                   5720092.44840  25135539.34240
 96  9  8  2 43  0.0140000  0  7  4 14 18 19 22 25 29
   1444857.21400  29050623.36500                    898087.29740  29050625.07640
   5272950.90000  24773951.96700                   4123071.39340  24773955.26040
  -1460231.41300  26985256.64600                  -1129869.80440  26985260.06840
   -271224.35600  28920297.52100                   -166783.11740  28920305.68240
   -716673.30400  25445147.43500                   -500488.62840  25445150.65840
  39126291.29900  28475794.88900                  30541572.53540  28475797.88940
   7338008.47100  25146164.85000                   5763610.64640  25146167.05340
 96  9  8  2 43 30.0140000  0  7  4 14 18 19 22 25 29
   1495190.58700  29060201.31000                    937308.08740  29060206.51440
   5368858.21700  24792202.56800                   4197804.36440  24792205.72140
  -1466448.29700  26984073.70900                  -1134714.10940  26984076.81440
   -292150.77500  28916315.87300                   -183089.36340  28916318.36940
   -663716.16300  25455224.62300                   -459223.30640  25455227.78740
  39285637.99900  28506117.74000                  30665738.76940  28506120.77540
   7394085.60200  25156835.81000                   5807307.12240  25156837.95540
 96  9  8  2 44  0.0150000  0  7  4 14 18 19 22 25 29
   1546017.91300  29069872.18300                    976913.77440  29069876.23740
   5465361.94100  24810566.47900                   4273002.06640  24810569.64340
  -1472587.77000  26982903.99500                  -1139498.08040  26982907.34740
   -312890.96200  28912369.54200                   -199250.52240  28912371.05440
   -610133.78100  25465421.69000                   -417470.78740  25465424.74940
  39445002.84100  28536444.19000                  30789919.19640  28536446.81540
   7450409.52700  25167553.79200                   5851195.90540  25167556.01840
 96  9  8  2 44 30.0150000  0  7  4 14 18 19 22 25 29
   1597336.50500  29079637.53400                   1016902.23440  29079641.92940
   5562441.65100  24829040.25300                   4348648.60140  24829043.38240
  -1478661.10000  26981749.47200                  -1144230.49240  26981752.16740
   -333475.72000  28908451.42500                   -215290.44840  28908457.70640
   -555926.89300  25475736.50300                   -375231.63440  25475739.67940
  39604369.64100  28566770.20600                  30914101.07640  28566773.15940
   7506976.77100  25178318.33100                   5895274.28440  25178320.58140
 96  9  8  2 45  0.0150000  0  7  4 14 18 19 22 25 29
   1649154.06300  29089499.61200                   1057279.62940  29089503.46840
   5660082.90000  24847620.75300                   4424732.69140  24847623.81140
  -1484675.00600  26980605.18300                  -1148916.61840  26980608.00740
   -353929.52300  28904560.56500                   -231228.48140  28904565.39340
   -501106.00900  25486168.55000                   -332514.04040  25486171.32740
  39763744.48800  28597098.58100                  31038289.30340  28597101.06540
   7563791.86200  25189129.62800                   5939545.79940  25189131.93640
 96  9  8  2 45 30.0150000  0  7  4 14 18 19 22 25 29
   1701479.20600  29099455.90900                   1098052.44840  29099460.33940
   5758277.33300  24866306.49500                   4501247.82840  24866309.56540
  -1490608.24200  26979475.98700                  -1153539.89940  26979478.69440
   -374245.16200  28900693.12000                   -247058.85440  28900698.99140
   -445663.07100  25496718.72900                   -289311.73340  25496721.63640
  39923147.08900  28627431.30800                  31162499.11240  28627434.36640
   7620855.45000  25199988.69000                   5984010.94940  25199990.92940
 96  9  8  2 46  0.0150000  0  7  4 14 18 19 22 25 29
   1754315.98500  29109510.19800                   1139223.95740  29109515.62440
   5857008.63400  24885094.46400                   4578181.31140  24885097.53440
  -1496445.29200  26978365.22900                  -1158088.22340  26978368.01840
   -394438.39100  28896851.23700                   -262793.79540  28896856.89740
   -389594.70300  25507388.47900                   -245622.07740  25507391.59740
  40082586.68600  28657772.75300                  31286737.76040  28657776.14040
   7678143.81500  25210890.14300                   6028651.24440  25210892.44040
 96  9  8  2 46 30.0150000  0  7  4 14 18 19 22 25 29
   1807650.65500  29119660.90900                   1180783.43740  29119663.56940
   5956258.22300  24903981.14300                   4655518.65540  24903984.20240
  -1502181.99800  26977273.91700                  -1162558.33440  26977277.21040
   -414520.52400  28893030.47900                   -278442.13740  28893035.01540
   -332921.40100  25518173.03400                   -201461.04540  25518176.10440
  40242053.98100  28688117.48700                  31410998.00540  28688119.81940
   7735631.32700  25221829.62800                   6073446.71340  25221831.81940
 96  9  8  2 47  0.0150000  0  7  4 14 18 19 22 25 29
   1861489.03100  29129906.26100                   1222735.41140  29129910.83140
   6056021.16800  24922965.34700                   4733256.01040  24922968.54640
  -1507815.99300  26976201.75300                  -1166948.43740  26976204.63640
   -434464.86600  28889234.41700                   -293983.14940  28889237.46440
   -275645.55700  25529071.99500                   -156830.49340  25529074.91340
  40401549.31200  28718468.49500                  31535280.07040  28718471.13240
   7793305.44200  25232804.82300                   6118387.59240  25232807.14340
 96  9  8  2 47 30.0150000  0  7  4 14 18 19 22 25 29
   1915850.04200  29140250.01100                   1265094.65540  29140252.71840
   6156321.04900  24942051.80800                   4811411.76940  24942054.94840
  -1513340.02300  26975150.14300                  -1171252.86040  26975153.19040
   -454247.13500  28885470.58100                   -309397.88440  28885477.30840
   -217741.16300  25540091.10400                   -111710.17040  25540094.17540
  40561083.30100  28748826.85400                  31659592.28640  28748830.64040
   7851182.73900  25243818.50300                   6163486.79740  25243820.68340
 96  9  8  2 48  0.0150000  0  7  4 14 18 19 22 25 29
   1970723.13800  29150691.27600                   1307852.88340  29150696.29240
   6257159.90900  24961240.71400                   4889987.50240  24961243.80840
  -1518777.46700  26974115.70600                  -1175489.81240  26974118.90540
   -473882.17200  28881733.25300                   -324697.81040  28881739.06540
   -159231.13400  25551224.97900                    -66117.92040  25551227.83940
  40720633.72000  28779188.24500                  31783917.29740  28779189.86240
   7909260.05200  25254870.20600                   6208741.84540  25254872.44440
 96  9  8  2 48 30.0150000  0  7  4 14 18 19 22 25 29
   2026122.43400  29161233.65900                   1351021.17740  29161236.76540
   6358560.35300  24980536.65900                   4969000.83040  24980539.74140
  -1524117.74500  26973099.40900                  -1179651.04240  26973102.67940
   -493350.51300  28878028.93300                   -339867.87940  28878033.39740
   -100120.42300  25562473.55000                    -20057.60540  25562476.39740
  40880202.88900  28809553.50300                  31908256.87840  28809555.28440
   7967560.74700  25265964.47200                   6254170.96440  25265966.58140
 96  9  8  2 49  0.0150000  0  7  4 14 18 19 22 25 29
   2082040.05100  29171872.96400                   1394593.30140  29171876.56140
   6460530.27700  24999940.87000                   5048457.90940  24999943.89340
  -1529366.36900  26972100.42500                  -1183740.85440  26972103.82340
   -512657.90600  28874354.54200                   -354912.54840  28874359.47540
    -40417.76600  25573834.47200                     26463.96840  25573837.36640
  41039783.11300  28839920.58100                  32032605.10440  28839922.99540
   8026092.36800  25277102.72200                   6299780.02440  25277104.86640
 96  9  8  2 49 30.0150000  0  7  4 14 18 19 22 25 29
   2138472.19500  29182612.23700                   1438566.43640  29182616.85440
   6563084.21100  25019456.22200                   5128370.06340  25019459.35040
  -1534531.49100  26971117.26800                  -1187765.61240  26971120.50340
   -531819.08600  28870707.80000                   -369843.27740  28870714.40940
     19870.60100  25585306.96400                     73441.93240  25585309.95240
  41199367.17400  28870288.67500                  32156956.41040  28870291.35840
   8084863.64200  25288286.39300                   6345575.83040  25288288.58540
 96  9  8  2 50  0.0150000  0  7  4 14 18 19 22 25 29
   2195424.64900  29193450.80000                   1482944.98140  29193453.68340
   6666223.04500  25039083.00300                   5208737.98840  25039086.05040
  -1539593.11600  26970154.12000                  -1191709.71040  26970157.13240
   -550832.36700  28867089.77600                   -384658.77040  28867093.14040
     80757.94200  25596893.33900                    120886.62540  25596896.11640
  41358962.64800  28900658.09700                  32281316.47740  28900660.66340
   8143873.95700  25299515.77600                   6391557.89940  25299517.87440
 96  9  8  2 50 30.0150000  0  7  4 14 18 19 22 25 29
   2252899.11900  29204387.20600                   1527730.22840  29204390.72240
   6769936.24400  25058818.82300                   5289553.46940  25058821.96440
  -1544540.95100  26969212.87800                  -1195565.15640  26969215.89040
   -569688.33400  28863501.78400                   -399351.64840  28863504.52640
    142275.61100  25608600.01800                    168822.49040  25608602.91340
  41518572.13400  28931031.51800                  32405687.49140  28931034.56540
   8203121.09300  25310790.05800                   6437724.50740  25310792.10840
 96  9  8  2 51  0.0150000  0  7  4 14 18 19 22 25 29
   2310877.72100  29215419.27600                   1572908.38040  29215423.20240
   6874193.02700  25078658.28400                   5370792.50940  25078661.57740
  -1549400.10700  26968288.53400                  -1199351.48940  26968291.69840
   -588402.55900  28859941.00300                   -413934.09240  28859944.21440
    204423.77900  25620426.44000                    217249.65340  25620429.31140
  41678173.47200  28961402.12800                  32530052.18040  28961403.10040
   8262581.98200  25322105.12800                   6484057.67440  25322107.08540
 96  9  8  2 51 30.0150000  0  7  4 14 18 19 22 25 29
   2369384.46900  29226553.64300                   1618498.05240  29226557.22940
   6978997.63500  25098601.80800                   5452458.44040  25098605.01840
  -1554143.05700  26967385.64300                  -1203047.27940  26967388.59740
   -606954.67200  28856409.64300                   -428390.23440  28856415.97240
    267233.52500  25632378.36200                    266192.32940  25632381.23340
  41837783.04700  28991774.61200                  32654423.31240  28991778.02240
   8322273.51400  25333464.07300                   6530570.56740  25333466.18340
 96  9  8  2 52  0.0150000  0  7  4 14 18 19 22 25 29
   2428393.90700  29237782.58100                   1664479.41140  29237785.97940
   7084319.42200  25118643.84700                   5534527.35440  25118647.10440
  -1558779.81300  26966503.01800                  -1206660.32440  26966505.93640
   -625352.50000  28852908.97900                   -442726.15940  28852912.41340
    330700.62800  25644455.77600                    315647.22340  25644458.68340
  41997391.87900  29022147.43300                  32778793.82240  29022150.64340
   8382182.30800  25344864.32300                   6577252.74940  25344866.37440
 96  9  8  2 52 30.0150000  0  7  4 14 18 19 22 25 29
   2487905.71900  29249106.59700                   1710852.25840  29249111.22540
   7190172.73400  25138787.07300                   5617010.44540  25138790.40140
  -1563319.09700  26965639.36200                  -1210197.39740  26965642.45640
   -643582.79100  28849440.11200                   -456931.48340  28849443.30040
    394818.84200  25656657.14300                    365609.48840  25656659.99140
  42157002.06800  29052519.96400                  32903165.44140  29052523.53840
   8442327.49400  25356309.52600                   6624119.13540  25356311.56540
 96  9  8  2 53  0.0150000  0  7  4 14 18 19 22 25 29
   2547909.28800  29260525.64300                   1757608.29040  29260530.67140
   7296564.34800  25159032.64300                   5699913.00740  25159035.97240
  -1567765.50100  26964793.27600                  -1213662.09640  26964795.98340
   -661656.22300  28846000.49500                   -471014.65140  28846004.94840
    459556.02600  25668976.21400                    416054.06040  25668979.09740
  42316607.79300  29082892.25300                  33027533.57240  29082894.47940
   8502709.00900  25367799.73700                   6671169.67340  25367801.68340
 96  9  8  2 53 30.0150000  0  7  4 14 18 19 22 25 29
   2608406.07000  29272038.24500
   7403505.69900  25179383.13600                   5783243.93340  25179386.37040
  -1572102.28000  26963968.03400                  -1217041.38340  26963970.68340
   -679570.12100  28842591.27600                   -484973.48340  28842595.46040
    524916.59700  25681414.09700                    466984.39740  25681416.87440
  42476215.76700  29113264.03400                  33151903.39840  29113265.68640
   8563341.42700  25379337.69000                   6718415.72740  25379339.81140
 96  9  8  2 54  0.0150000  0  7  4 14 18 19 22 25 29
   2669398.78300  29283644.95600
   7511009.97000  25199840.53400                   5867013.49040  25199843.71040
  -1576334.06400  26963162.64300                  -1220338.86340  26963165.72540
   -697320.94400  28839213.57300                   -498805.20940  28839218.87040
    590895.77600  25693969.44800                    518396.75740  25693972.24940
  42635817.55200  29143635.33100                  33276268.42240  29143638.05040
   8624221.36000  25390922.79200                   6765854.64740  25390924.84340
 96  9  8  2 54 30.0150000  0  7  4 14 18 19 22 25 29
   2730888.95300  29295345.30800                      8011.85950  29295344.97940
   7619076.96400  25220405.08900                   5951221.53540  25220408.28840
  -1580447.43700  26962379.94800                  -1223544.06140  26962383.21840
   -714914.12300  28835865.67500                   -512514.14340  28835869.74140
    657477.93700  25706639.62800                    570278.98640  25706642.40540
  42795398.68100  29174003.09700                  33400617.35740  29174007.03440
   8685338.62600  25402552.90100                   6813478.50540  25402554.89340
 96  9  8  2 55  0.0150000  0  7  4 14 18 19 22 25 29
   2792885.64100  29307143.50300                     56320.96340  29307147.12440
   7727695.96000  25241074.42500                   6035859.71240  25241077.65940
  -1584416.27200  26961624.55000                  -1226636.64340  26961627.49140
   -732342.81400  28832548.90100                   -526094.88540  28832553.26140
    724671.75900  25719426.44000                    622637.81740  25719429.26540
  42954961.66100  29204365.95600                  33524952.22440  29204367.28040
   8746693.32600  25414228.48700                   6861287.37040  25414230.39740
 96  9  8  2 55 30.0160000  0  7  4 14 18 19 22 25 29
   2855377.24700  29319035.63300                    105015.67740  29319037.39140
   7836844.30800  25261844.64100                   6120910.37940  25261847.81640
  -1588263.89300  26960892.71900                  -1229634.76940  26960895.91840
   -749622.49100  28829260.48400                   -539559.50340  28829264.48040
    792483.05900  25732330.02300                    675477.80640  25732332.81240
  43114502.14400  29234725.96100                  33649269.47940  29234728.97340
   8808278.02700  25425947.52300                   6909275.46340  25425949.53940
 96  9  8  2 56  0.0160000  0  7  4 14 18 19 22 25 29
   2918351.42100  29331018.68700                    154086.44440  29331020.38740
   7946514.61400  25282714.16400                   6206367.76140  25282717.44540
  -1591998.52200  26960181.93700                  -1232544.85140  26960184.87940
   -766746.59000  28826002.76600                   -552902.94840  28826007.18340
    860906.30500  25745350.46100                    728794.63740  25745353.29740
  43274020.31500  29265081.22600                  33773569.33440  29265082.73840
   8870080.49400  25437708.25800                   6957433.24540  25437710.22640
 96  9  8  2 56 30.0160000  0  7  4 14 18 19 22 25 29
   2981813.23400  29343095.21100                    203537.22840  29343099.26640
   8056710.50100  25303683.64800                   6292234.67840  25303686.96540
  -1595626.53300  26959491.10100                  -1235371.84040  26959494.18340
   -783706.72000  28822775.07000                   -566118.60140  28822779.13740
    929958.54200  25758490.93700                    782601.59140  25758493.80840
  43433551.63600  29295438.75800                  33897879.43540  29295440.17640
   8932112.58300  25449512.60900                   7005769.94640  25449514.61340
 96  9  8  2 57  0.0160000  0  7  4 14 18 19 22 25 29
   3045782.50900  29355268.37500                    253383.40140  29355272.25440
   8167439.97600  25324755.09400                   6378517.38440  25324758.19940
  -1599171.06800  26958816.50000                  -1238133.80240  26958819.23040
   -800496.60300  28819579.94500                   -579201.56940  28819584.08240
    999651.05400  25771752.96100                    836907.45840  25771755.71540
  43593114.89600  29325803.48400                  34022214.48140  29325801.08240
   8994380.32900  25461361.78100                   7054290.27540  25461363.73840
 96  9  8  2 57 30.0160000  0  7  4 14 18 19 22 25 29
   3110250.07300  29367536.21900                    303617.89940  29367539.14840
   8278700.11300  25345927.11700                   6465213.59040  25345930.36340
  -1602664.25000  26958151.98400                  -1240855.73540  26958154.78540
   -817131.09300  28816414.51600                   -592163.47140  28816418.93340
   1069970.61400  25785134.29700                    891701.93640  25785137.02740
  43752693.97500  29356170.46100                  34146561.81940  29356167.43740
   9056852.53700  25473249.67200                   7102969.92340  25473251.69940
 96  9  8  2 58  0.0160000  0  7  4 14 18 19 22 25 29
   3175234.52500  29379902.12500                    354255.08940  29379906.09840
   8390505.30700  25367202.78900                   6552334.50540  25367205.98840
  -1606086.59800  26957500.91400                  -1243522.48040  26957503.69140
   -833586.34900  28813282.70300                   -604985.73340  28813287.18040
   1140898.55400  25798631.60900                    946970.47340  25798634.51640
  43912285.10400  29386539.04700                  34270918.60640  29386538.78940
   9119535.40700  25485177.96100                   7151813.72740  25485179.93040
 96  9  8  2 58 30.0160000  0  7  4 14 18 19 22 25 29
   3240757.10000  29392370.22600                    405311.67540  29392375.13740
   8502857.60300  25388582.77300                   6639881.73240  25388586.00840
  -1609432.04300  26956864.18000                  -1246129.31040  26956867.12140
   -849864.16600  28810185.75000                   -617669.73240  28810190.64840
   1212430.05900  25812243.76600                   1002709.31940  25812246.57840
  44071865.10900  29416906.58600                  34395266.59140  29416907.67640
   9182448.56800  25497149.89800                   7200836.97840  25497151.75040
 96  9  8  2 59  0.0160000  0  7  4 14 18 19 22 25 29
   3306808.05600  29404939.49200                    456779.92540  29404944.00440
   8615742.73200  25410064.17200                   6727844.16640  25410067.44140
  -1612679.95600  26956246.09400                  -1248660.13540  26956248.89440
   -865978.06000  28807119.57000                   -630225.95640  28807122.94540
   1284549.06200  25825967.23400                   1058905.95340  25825970.02340
  44231392.69500  29447263.17200                  34519573.82740  29447270.74640
   9245598.07800  25509166.86700                   7250044.39340  25509168.87140
 96  9  8  2 59 30.0160000  0  7  4 14 18 19 22 25 29
   3373359.36900  29417604.10100                    508638.07840  29417607.87540
   8729158.18300  25431646.28900                   6816219.83840  25431649.51240
  -1615810.04400  26955650.36700                  -1251099.13440  26955653.08640
   -881937.15900  28804082.25000                   -642661.57340  28804088.40240
   1357248.38800  25839801.21100                   1115554.79540  25839803.95340
  44390850.95400  29477607.53900                  34643827.00340  29477614.18340
   9308997.37100  25521231.43700                   7299446.44940  25521233.39440
 96  9  8  3  0  0.0160000  0  7  4 14 18 19 22 25 29
   3440415.92400  29430364.42200                    560889.94240  29430365.89840
   8843111.37300  25453331.05500                   6905014.52440  25453334.23040
  -1618800.29700  26955081.50800                  -1253429.18240  26955084.56640
   -897736.59400  28801075.05500                   -654972.79340  28801079.80140
   1430552.07100  25853750.70300                   1172674.56640  25853753.43340
  44550254.32400  29507941.38300                  34768037.44640  29507945.81240
   9372685.29100  25533350.79700                   7349073.41340  25533352.73040
 96  9  8  3  0 30.0160000  0  6  4 14 18 19 22 29
   3507957.88700  29443217.35900                    613519.99540  29443220.74640
   8957592.70700  25475116.18700                   6994220.76140  25475119.38740
  -1621657.96800  26954537.51600                  -1255655.91740  26954540.38740
   -913401.30200  28798094.71100                   -667178.98140  28798099.25840
   1504474.80600  25867817.68000                   1230276.71240  25867820.49240
   9436649.42400  25545522.86700                   7398915.61040  25545524.83640
 96  9  8  3  1  0.0160000  0  6  4 14 18 19 22 29
   3575968.25900  29456159.50800                    666515.10640  29456163.04740
   9072604.52400  25497002.08600                   7083840.36140  25497005.33240
  -1624372.30800  26954021.21900                  -1257770.96740  26954024.07840
   -928920.86300  28795140.82800                   -679272.11040  28795144.73040
   1579028.57500  25882004.50800                   1288370.57640  25882007.26240
   9500885.73400  25557746.33600                   7448969.88540  25557748.25840
 96  9  8  3  1 30.0160000  0  6  4 14 18 19 22 29
   3644448.23500  29469190.68700                    719876.09640  29469193.79340
   9188153.10600  25518990.29700                   7173878.21340  25518993.51940
  -1626966.27000  26953527.23400                  -1259792.20540  26953530.14140
   -944279.78800  28792218.43700                   -691240.05140  28792222.90240
   1654221.89500  25896313.41400                   1346962.79140  25896316.22640
   9565381.85300  25570019.62500                   7499226.61440  25570021.61740
 96  9  8  3  2  0.0160000  0  6  4 14 18 19 22 29
   3713403.01800  29482312.14800                    773607.12640  29482316.84840
   9304239.38100  25541080.58600                   7264335.04840  25541083.83240
  -1629446.61600  26953055.52300                  -1261724.91540  26953057.99640
   -959465.49000  28789328.68700                   -703072.98640  28789331.91040
   1730052.86200  25910743.60100                   1406051.86840  25910746.35540
   9630124.92500  25582339.78100                   7549675.76840  25582341.72640
 96  9  8  3  2 30.0160000  0  6  4 14 18 19 22 29
   3782824.37300  29495522.25800                    827701.64940  29495526.16040
   9420865.33300  25563273.73400                   7355212.41940  25563276.99240
  -1631804.48600  26952606.67200                  -1263562.18640  26952609.47340
   -974463.95300  28786474.64800                   -714760.02840  28786478.53940
   1806506.46500  25925292.28900                   1465626.12040  25925294.83240
   9695107.35700  25594705.59400                   7600311.44340  25594707.64440
 96  9  8  3  3  0.0160000  0  6  4 14 18 19 22 29
   3852722.53300  29508823.58600                    882167.78240  29508827.58240
   9538031.31100  25585569.80500                   7446510.57540  25585572.87540
  -1634032.57700  26952182.66400                  -1265298.34240  26952185.50040
   -989272.17100  28783656.11700                   -726298.82340  28783660.60540
   1883585.95600  25939960.07000                   1525688.07740  25939962.84840
   9760333.29700  25607117.75000                   7651136.85740  25607119.75440
 96  9  8  3  3 30.0160000  0  6  4 14 18 19 22 29
   3923096.91000  29522217.20300                    937004.92640  29522221.43340
   9655724.54500  25607966.13300                   7538219.58440  25607969.26240
  -1636148.23900  26951780.10100                  -1266946.88740  26951783.17240
  -1003913.65000  28780870.45300                   -737707.69740  28780875.79740
   1961267.72100  25954742.20300                   1586219.34140  25954744.96940
   9825784.64700  25619572.63300                   7702137.92140  25619574.64840
 96  9  8  3  4  0.0160000  0  6  4 14 18 19 22 29
   3993959.02100  29535700.74200                    992222.16140  29535704.28140
   9773944.04600  25630462.51600                   7630338.68540  25630465.48040
  -1638125.25900  26951404.00000                  -1268487.39740  26951406.85940
  -1018400.31200  28778113.04700                   -748995.96040  28778115.75440
   2039562.51800  25969641.36700                   1647228.28140  25969644.07440
   9891468.30600  25632071.59400                   7753319.99140  25632073.63340
 96  9  8  3  4 30.0160000  0  6  4 14 18 19 22 29
   4065321.51100  29549280.03900                   1047829.31240  29549282.91040
   9892676.88700  25653056.80500                   7722857.79140  25653059.94540
  -1639956.99700  26951055.17200                  -1269914.70040  26951058.04340
  -1032747.44300  28775383.69500                   -760175.48640  28775387.65640
   2118481.69400  25984659.06200                   1708723.75840  25984661.74640
   9957377.96200  25644613.83600                   7804678.16840  25644615.84040
 96  9  8  3  5  0.0160000  0  6  4 14 18 19 22 29
   4137214.18500  29562960.79700                   1103849.55040  29562966.01240
  10011917.72500  25675747.44500                   7815772.72840  25675750.59840
  -1641652.64100  26950732.89100                  -1271235.96440  26950735.75040
  -1046951.14600  28772680.72600                   -771243.25340  28772684.79340
   2198030.31300  25999796.53900                   1770709.71340  25999799.17640
  10023517.38100  25657199.75800                   7856215.38940  25657201.73840
 96  9  8  3  5 30.0160000  0  6  4 14 18 19 22 29
   4209627.16400  29576740.10900                   1160275.23040  29576743.68340
  10131654.17100  25698532.43700                   7909073.84940  25698535.67240
  -1643226.28800  26950433.39100                  -1272462.15940  26950436.08640
  -1060995.03900  28770007.39800                   -782186.47040  28770011.27740
   2278192.07300  26015050.86700                   1833173.43640  26015053.56240
  10089886.65800  25669829.38300                   7907931.71240  25669831.35140
 96  9  8  3  6  0.0160000  0  6  4 14 18 19 22 29
   4282544.60200  29590615.78900                   1217094.01740  29590619.14140
  10251881.59700  25721410.98400                   8002757.54740  25721414.24240
  -1644683.86600  26950155.90600                  -1273597.91740  26950158.37940
  -1074875.35100  28767366.41400                   -793002.25540  28767371.27740
   2358962.02500  26030420.97600                   1896111.07540  26030423.77740
  10156476.65400  25682501.06200                   7959820.03540  25682502.99640
 96  9  8  3  6 30.0160000  0  6  4 14 18 19 22 29
   4355970.95000  29604588.46900                   1274309.35940  29604592.50040
  10372615.93200  25744385.94500                   8096836.22940  25744389.14440
  -1646032.53200  26949899.14100                  -1274648.79440  26949902.18740
  -1088565.61200  28764761.49200                   -803669.95240  28764765.79340
   2440329.57200  26045904.64100                   1959514.37340  26045907.53540
  10223304.53000  25695217.95300                   8011893.70340  25695219.91040
 96  9  8  3  7  0.0170000  0  6  4 14 18 19 22 29
   4429889.76400  29618654.95800                   1331908.39440  29618660.26640
  10493858.29000  25767457.74700                   8191310.78940  25767460.82940
  -1647288.28100  26949659.83300                  -1275627.27640  26949662.51640
  -1102063.97300  28762192.36400                   -814188.09640  28762196.81740
   2522271.00300  26061497.62200                   2023364.85240  26061500.35240
  10290381.64300  25707982.41100                   8064161.59440  25707984.43840
 96  9  8  3  7 30.0170000  0  6  4 14 18 19 22 29
   4504269.69300  29632809.82500                   1389866.83040  29632812.68440
  10615618.24000  25790627.94200                   8286188.65640  25790631.10640
  -1648431.57000  26949442.32500                  -1276518.12840  26949445.32540
  -1115384.29400  28759657.93400                   -824567.53040  28759661.54440
   2604790.44900  26077200.47400                   2087665.73440  26077203.20440
  10357710.16800  25720794.54400                   8116625.38640  25720796.55940
 96  9  8  3  8  0.0170000  0  6  4 14 18 19 22 29
   4579096.72200  29647049.31700                   1448173.56840  29647052.58740
  10737905.85200  25813898.31700                   8381477.69040  25813901.50540
  -1649457.81700  26949246.98100                  -1277317.77340  26949250.04040
  -1128562.48900  28757150.14500                   -834836.21640  28757153.83740
   2687891.93500  26093014.26300                   2152420.15340  26093017.05240
  10425288.19300  25733654.00500                   8169283.59540  25733655.92740
 96  9  8  3  8 30.0170000  0  6  4 14 18 19 22 29
   4654385.64900  29661376.98100                   1506840.26340  29661380.94240
  10860723.70700  25837270.00500                   8477179.90540  25837273.22740
  -1650345.08300  26949078.44200                  -1278009.12440  26949081.26640
  -1141593.19300  28754670.38800                   -844989.96940  28754674.91140
   2771594.01700  26108942.23900                   2217642.56540  26108945.01640
  10493150.21100  25746567.96600                   8222163.09840  25746569.98140
 96  9  8  3  9  0.0170000  0  6  4 14 18 19 22 29
   4730127.90600  29675789.28600                   1565860.20540  29675791.78240
  10984070.92900  25860741.92700                   8573294.61940  25860745.18440
  -1651069.43800  26948940.23100                  -1278573.53040  26948942.98540
  -1154475.83000  28752218.76300                   -855028.33140  28752223.49740
   2855917.62400  26124988.30200                   2283349.28240  26124991.11440
  10561312.27400  25759538.74700                   8275276.39940  25759540.82140
 96  9  8  3  9 30.0170000  0  6  4 14 18 19 22 29
   4806308.44100  29690286.02800                   1625221.63340  29690288.12640
  11107940.36100  25884313.70800                   8669816.25440  25884316.95440
  -1651637.34600  26948832.20000                  -1279016.03340  26948834.81340
  -1167217.33900  28749793.77800                   -864956.74040  28749798.26640
   2940866.25700  26141153.55200                   2349543.03440  26141156.36440
  10629756.14900  25772563.25500                   8328609.29440  25772565.29440
 96  9  8  3 10  0.0170000  0  6  4 14 18 19 22 29
   4882941.15600  29704868.05200                   1684935.44040  29704871.89540
  11232309.09200  25907980.28600                   8766726.94740  25907983.52040
  -1652060.06400  26948751.86400                  -1279345.39640  26948754.60640
  -1179787.57900  28747401.76300                   -874751.66540  28747405.46640
   3026435.16500  26157436.72400                   2416220.11640  26157439.51340
  10698478.99700  25785640.40300                   8382159.57240  25785642.50140
 96  9  8  3 10 30.0170000  0  6  4 14 18 19 22 29
   4960037.91500  29719539.30200                   1745010.85440  29719543.46240
  11357155.55200  25931737.73100                   8864009.89440  25931740.95440
  -1652354.06600  26948696.23100                  -1279574.46740  26948698.51640
  -1192161.11200  28745047.61400                   -884393.30540  28745051.66940
   3112617.04100  26173836.24700                   2483374.83540  26173838.96640
  10767466.29600  25798768.46600                   8435915.90940  25798770.62240
 96  9  8  3 11  0.0170000  0  6  4 14 18 19 22 29
   5037605.83800  29734299.72400                   1805453.38640  29734303.52040
  11482484.93000  25955587.27000                   8961669.13740  25955590.30640
  -1652537.35000  26948661.09100                  -1279717.25440  26948663.70440
  -1204328.70500  28742732.07500                   -893874.49240  28742735.70840
   3199408.42700  26190352.38000                   2551004.49740  26190355.11040
  10836694.95100  25811942.23100                   8489860.32540  25811944.35240
 96  9  8  3 11 30.0170000  0  6  4 14 18 19 22 29
   5115670.84900  29749154.86400                   1866283.24940  29749158.43840
  11608300.72700  25979529.21600                   9059707.42040  25979532.29840
  -1652622.41100  26948644.75500                  -1279783.51840  26948647.45040
  -1216287.08800  28740456.56700                   -903192.63840  28740459.82540
   3286812.48800  26206984.84900                   2619111.56940  26206987.49740
  10906146.98900  25825158.57500                   8543978.81140  25825160.59140
 96  9  8  3 12  0.0170000  0  6  4 14 18 19 22 29
   5194231.95600  29764103.48900                   1927499.69440  29764108.48140
  11734595.20800  26003562.21600                   9158118.69640  26003565.30940
  -1652611.79600  26948646.95800                  -1279775.22640  26948649.57140
  -1228059.15400  28738215.85600                   -912365.62340  28738219.73540
   3374812.92500  26223730.77800                   2687683.34540  26223733.52040
  10975812.95000  25838415.55900                   8598263.97740  25838417.54040
 96  9  8  3 12 30.0170000  0  6  4 14 18 19 22 29
   5273290.82000  29779149.29400                   1989104.06240  29779154.05240
  11861386.53800  26027689.73100                   9256917.13840  26027692.80240
  -1652486.95000  26948670.45000                  -1279677.92240  26948673.27440
  -1239660.96400  28736008.27800                   -921405.92440  28736012.30940
   3463410.84200  26240590.18400                   2756720.69240  26240592.83340
  11045702.99600  25851715.20000                   8652723.76340  25851717.18140
 96  9  8  3 13  0.0170000  0  6  4 14 18 19 22 29
   5352831.48800  29794285.36400                   2051083.73740  29794289.63040
  11988674.85100  26051911.67700                   9356102.83340  26051914.75940
  -1652234.62400  26948718.80900                  -1279481.29140  26948721.58740
  -1251121.02600  28733827.51300                   -930335.79040  28733831.94240
   3552595.71800  26257561.60600                   2826215.41140  26257564.39540
  11115820.66700  25865057.99700                   8707360.92340  25865059.95440
 96  9  8  3 13 30.0170000  0  6  4 14 18 19 22 29
   5432843.78600  29809510.85600                   2113430.98540  29809515.49740
  12116469.11100  26076230.14500                   9455682.77440  26076233.22740
  -1651819.00300  26948797.59900                  -1279157.42340  26948800.51640
  -1262438.04300  28731673.88000                   -939154.19140  28731679.14140
   3642380.78200  26274647.02000                   2896177.81040  26274649.70440
  11186193.99300  25878449.70000                   8762197.28740  25878451.73940
 96  9  8  3 14  0.0170000  0  6  4 14 18 19 22 29
   5513296.43600  29824820.63800                   2176121.35340  29824823.57940
  12244758.61500  26100643.05900                   9555648.60940  26100646.16540
  -1651225.97900  26948910.98900                  -1278695.31540  26948913.39140
  -1273606.72800  28729547.64500                   -947856.99340  28729551.24340
   3732755.18900  26291844.73900                   2966599.43240  26291847.25940
  11256830.54600  25891891.27800                   8817238.76640  25891893.32940
 96  9  8  3 14 30.0170000  0  6  4 14 18 19 22 29
   5594182.37600  29840212.66900                   2239149.37840  29840216.23140
  12373532.47000  26125147.92700                   9655991.86940  26125151.17340
  -1650462.44400  26949055.60600                  -1278100.33240  26949058.58340
  -1284611.90300  28727454.02800                   -956432.41840  28727458.31740
   3823723.76600  26309155.72400                   3037484.04640  26309158.38440
  11327739.13200  25905384.88800                   8872492.21640  25905386.90340
 96  9  8  3 15  0.0170000  0  6  4 14 18 19 22 29
   5675499.76600  29855686.52800                   2302513.54840  29855689.56340
  12502801.15700  26149747.13800                   9756720.70440  26149750.33740
  -1649526.23300  26949233.97400                  -1277370.81040  26949236.52840
  -1295441.17800  28725393.70000                   -964870.73540  28725397.29840
   3915298.36400  26326581.70000                   3108840.88640  26326584.44240
  11398931.72700  25918932.25500                   8927966.97740  25918934.18840
 96  9  8  3 15 30.0170000  0  6  4 14 18 19 22 29
   5757250.27700  29871243.09900                   2366215.29140  29871247.21240
  12632556.03500  26174438.54400                   9857828.39140  26174441.67340
  -1648430.28600  26949442.60600                  -1276516.80940  26949445.31340
  -1306082.25100  28723368.48100                   -973162.42140  28723372.05640
   4007475.14900  26344122.31700                   3180666.96340  26344125.03640
  11470409.62700  25932534.01300                   8983664.05440  25932536.00540
 96  9  8  3 16  0.0170000  0  6  4 14 18 19 22 29
   5839457.36000  29886886.58300                   2430272.73940  29886890.16940
  12762784.30100  26199219.86400                   9959304.96340  26199223.09940
  -1647195.26800  26949677.46600                  -1275554.44240  26949680.19640
  -1316526.21400  28721381.22400                   -981300.51040  28721385.00940
   4100245.99600  26361775.95800                   3252955.94840  26361778.72440
  11542162.57600  25946188.12200                   9039575.45640  25946189.98540
 96  9  8  3 16 30.0170000  0  6  4 14 18 19 22 29
   5922149.34600  29902622.54400                   2494708.03740  29902624.77040
  12893500.11900  26224094.35600                  10061161.43840  26224097.55640
  -1645822.88500  26949938.63000                  -1274485.03540  26949941.17340
  -1326784.37000  28719428.93400                   -989293.82040  28719433.58740
   4193609.96800  26379542.61400                   3325707.10640  26379545.34540
  11614204.44400  25959897.42700                   9095711.98140  25959899.43140
 96  9  8  3 17  0.0170000  0  6  4 14 18 19 22 29
   6005322.37100  29918449.98100                   2559518.21540  29918453.59140
  13024698.43700  26249060.58300                  10163393.88540  26249063.85240
  -1644298.44300  26950228.45800                  -1273297.14740  26950231.41140
  -1336858.83600  28717511.91900                   -997144.01440  28717517.05240
   4287561.58900  26397420.88000                   3398916.16940  26397423.75140
  11686519.32400  25973658.30900                   9152061.25040  25973660.31340
 96  9  8  3 17 30.0170000  0  6  4 14 18 19 22 29
   6088985.67700  29934370.53600                   2624710.39640  29934376.30240
  13156365.51200  26274116.03600                  10265991.59740  26274119.35240
  -1642615.81100  26950548.89500                  -1271985.98740  26950551.53240
  -1346739.85600  28715631.46600                  -1004843.44540  28715634.94640
   4382104.67000  26415411.85600                   3472586.11640  26415414.68140
  11759097.38500  25987469.38800                   9208615.58440  25987471.41540
 96  9  8  3 18  0.0170000  0  6  4 14 18 19 22 29
   6173135.08800  29950382.70800                   2690281.33340  29950386.31740
  13288511.00200  26299262.42700                  10368962.09740  26299265.74340
  -1640770.89700  26950900.05900                  -1270548.36440  26950902.59140
  -1356441.54200  28713785.34100                  -1012403.15540  28713788.73940
   4477244.81100  26433516.36400                   3546721.30240  26433519.11840
  11831933.31400  26001329.60600                   9265370.85840  26001331.61040
 96  9  8  3 18 30.0180000  0  6  4 14 18 19 22 29
   6257748.63100  29966484.68900                   2756213.97440  29966487.20940
  13421138.65900  26324500.71300                  10472308.31340  26324504.06440
  -1638763.68000  26951281.73600                  -1268984.27940  26951284.18540
  -1365969.77400  28711972.10300                  -1019827.69740  28711976.07640
   4572989.50000  26451735.84600                   3621327.55840  26451738.57640
  11905030.10500  26015239.61900                   9322329.39340  26015241.61140
 96  9  8  3 19  0.0180000  0  6  4 14 18 19 22 29
   6342805.58000  29982671.79900                   2822492.15340  29982674.54140
  13554229.96800  26349826.99400                  10576015.82140  26349830.35740
  -1636596.12000  26951694.76700                  -1267295.25040  26951697.21740
  -1375313.10600  28710193.97800                  -1027108.18740  28710197.79940
   4669348.74800  26470072.45500                   3696412.70540  26470075.31440
  11978374.58100  26029196.49400                   9379480.94240  26029198.69740
 96  9  8  3 19 30.0180000  0  6  4 14 18 19 22 29
   6428311.07100  29998942.71300                   2889119.82540  29998944.99840
  13687797.39900  26375244.22100                  10680094.32940  26375247.42040
  -1634292.33600  26952132.53300                  -1265500.07540  26952135.05340
  -1384485.82100  28708448.18900                  -1034255.70240  28708452.08040
   4766317.90600  26488525.01000                   3771973.09840  26488527.83440
  12051987.26700  26043204.45500                   9436841.47840  26043206.48240
 96  9  8  3 20  0.0180000  0  6  4 14 18 19 22 29
   6514255.30700  30015297.41600                   2956089.35340  30015297.28740
  13821844.13600  26400752.40000                  10784546.33440  26400755.62340
  -1631857.01400  26952596.18900                  -1263602.39840  26952598.65040
  -1393501.97800  28706732.95500                  -1041281.24940  28706736.54140
   4863871.82800  26507088.98600                   3847989.15540  26507091.88140
  12125874.52700  26057264.81400                   9494415.96740  26057266.97140
 96  9  8  3 20 30.0180000  0  6  4 14 18 19 22 29
   6600623.87800  30031732.77500                   3023389.49640  30031734.28740
  13956355.97300  26426349.20500                  10889360.74740  26426352.46340
  -1629286.49000  26953085.08000                  -1261599.37140  26953087.54140
  -1402349.21800  28705049.56400                  -1048175.15140  28705053.80740
   4961989.73200  26525760.15800                   3924444.67640  26525763.04140
  12200035.02900  26071377.09600                   9552203.37940  26071379.08840
 96  9  8  3 21  0.0180000  0  6  4 14 18 19 22 29
   6687434.31500  30048252.05700                   3091033.94540  30048254.68240
  14091349.25100  26452037.50200                  10994550.31140  26452040.77140
  -1626562.05100  26953603.79900                  -1259476.41540  26953606.04940
  -1411019.89900  28703398.98600                  -1054931.48840  28703403.19340
   5060662.16500  26544536.97800                   4001332.29540  26544539.65040
  12274480.13900  26085543.49400                   9610212.55340  26085545.51040
 96  9  8  3 21 30.0180000  0  6  4 14 18 19 22 29
   6774696.67000  30064857.92400                   3159030.57840  30064861.68540
  14226827.42000  26477818.20500                  11100117.71740  26477821.36940
  -1623664.73100  26954155.15800                  -1257218.73840  26954157.68940
  -1419507.29400  28701783.97100                  -1061545.01540  28701787.90840
   5159881.83800  26563417.72800                   4078646.33740  26563420.30740
  12349218.35900  26099765.75200                   9668450.13140  26099767.77940
 96  9  8  3 22  0.0180000  0  6  4 14 18 19 22 29
   6862401.43000  30081547.48600                   3227371.94540  30081552.67840
  14362768.93200  26503687.01000                  11206046.16140  26503690.27940
  -1620584.24500  26954741.09600                  -1254818.33640  26954743.88540
  -1427801.87900  28700205.95500                  -1068008.28640  28700209.44740
   5259648.80900  26582403.00200                   4156386.85240  26582405.80340
  12424228.45600  26114039.77500                   9726899.56340  26114041.75640
 96  9  8  3 22 30.0180000  0  6  4 14 18 19 22 29
   6950554.04400  30098322.14200                   3296062.27940  30098322.70540
  14499176.57100  26529644.43900                  11312337.82140  26529647.77940
  -1617318.35700  26955362.60300                  -1252273.46440  26955364.94740
  -1435898.28500  28698665.34600                  -1074317.14540  28698668.86140
   5359995.40400  26601498.20500                   4234579.01040  26601501.05340
  12499516.90000  26128366.62700                   9785565.88740  26128368.60740
 96  9  8  3 23  0.0180000  0  6  4 14 18 19 22 29
   7039164.07900  30115184.08800                   3365109.03040  30115187.38140
  14636056.29800  26555692.00200                  11418997.35140  26555695.28340
  -1613859.79000  26956020.65800                  -1249578.45540  26956023.31840
  -1443797.44300  28697161.83800                  -1080472.28840  28697164.83840
   5460947.73600  26620708.79100                   4313243.17740  26620711.48640
  12575087.08900  26142747.27500                   9844451.75340  26142749.24440
 96  9  8  3 23 30.0180000  0  6  4 14 18 19 22 29
   7128223.28100  30132131.14200                   3434505.82240  30132133.55740
  14773390.85200  26581825.75200                  11526011.28340  26581829.05740
  -1610215.85000  26956714.15000                  -1246739.00240  26956716.90440
  -1451502.39500  28695695.58800                  -1086476.11440  28695699.60740
   5562508.12700  26640035.06400                   4392381.15840  26640037.85340
  12650930.23900  26157179.58800                   9903550.31440  26157181.58040
 96  9  8  3 24  0.0180000  0  6  4 14 18 19 22 29
   7217713.44800  30149160.49400                   3504238.40840  30149162.14640
  14911171.39500  26608044.52500                  11633372.74040  26608047.86540
  -1606403.92300  26957439.67400                  -1243768.65640  26957442.29940
  -1459024.48400  28694264.38500                  -1092337.43640  28694268.06440
   5664660.89200  26659474.09600                   4471980.72240  26659476.88540
  12727035.30500  26171662.05700                   9962852.97040  26171664.11940
 96  9  8  3 24 30.0180000  0  6  4 14 18 19 22 29
   7307613.52600  30166267.54900                   3574290.36040  30166271.47440
  15049395.22800  26634347.86100                  11741079.61940  26634351.16640
  -1602430.46400  26958195.20500                  -1240672.43740  26958198.19340
  -1466370.73100  28692865.79900                  -1098061.73940  28692869.25640
   5767381.61700  26679021.08800                   4552022.85740  26679023.78340
  12803395.32300  26186192.74400                  10022354.28840  26186194.73640
 96  9  8  3 25  0.0180000  0  6  4 14 18 19 22 29
   7397947.05700  30183457.89200                   3644680.17740  30183460.86940
  15188069.44800  26660736.61100                  11849137.44240  26660739.91640
  -1598276.93600  26958986.15000                  -1237435.90140  26958988.68240
  -1473516.58800  28691506.29100                  -1103629.90940  28691510.17040
   5870672.29900  26698676.47100                   4632509.12040  26698679.26040
  12880030.22600  26200775.91600                  10082069.81040  26200777.81440
 96  9  8  3 25 30.0180000  0  6  4 14 18 19 22 29
   7488710.77700  30200729.68200                   3715405.13740  30200730.93540
  15327193.63000  26687210.93200                  11957545.88340  26687214.20140
  -1593957.40800  26959808.06400                  -1234070.01340  26959810.94740
  -1480473.70700  28690182.35300                  -1109050.98440  28690185.49440
   5974519.81800  26718438.25200                   4713429.27440  26718440.94740
  12956945.04700  26215412.04100                  10142003.43540  26215413.92840
 96  9  8  3 26  0.0180000  0  6  4 14 18 19 22 29
   7579908.73700  30218084.62700                   3786468.44740  30218087.29940
  15466775.59800  26713772.60300                  12066311.04640  26713775.89640
  -1589475.73800  26960660.77500                  -1230577.78940  26960663.37740
  -1487248.70500  28688892.82200                  -1114330.16740  28688896.08040
   6078926.57700  26738306.42400                   4794785.19740  26738309.18940
  13034147.29200  26230103.40800                  10202161.03240  26230105.24840
 96  9  8  3 26 30.0180000  0  6  4 14 18 19 22 29
   7671556.19900  30235524.53300                   3857882.02740  30235527.58040
  15606808.92800  26740419.97100                  12175427.92140  26740423.27540
  -1584829.96000  26961544.88500                  -1226957.68040  26961547.53340
  -1493845.01100  28687637.56400                  -1119470.10240  28687641.23240
   6183908.47400  26758283.54900                   4876589.28340  26758286.39640
  13111651.96800  26244852.13500                  10262554.29440  26244854.01040
 96  9  8  3 27  0.0180000  0  6  4 14 18 19 22 29
   7763668.54400  30253052.36900                   3929657.87640  30253053.91640
  15747284.74800  26767151.75200                  12284889.58840  26767154.99840
  -1580026.98600  26962458.86900                  -1223215.08240  26962461.42440
  -1500276.40300  28686413.82200                  -1124481.53640  28686417.24440
   6289480.91500  26778373.47800                   4958853.53240  26778376.20940
  13189462.25600  26259658.94700                  10323185.69340  26259660.88140
 96  9  8  3 27 30.0180000  0  6  4 14 18 19 22 29
   7856242.97600  30270668.95500                   4001793.78340  30270671.89640
  15888216.00200  26793969.86900                  12394706.14040  26793973.27940
  -1575043.17600  26963407.33000                  -1219331.57640  26963409.92040
  -1506535.41700  28685222.63500                  -1129358.64740  28685225.98640
   6395646.41900  26798576.08800                   5041579.90840  26798578.73640
  13267583.51000  26274524.84600                  10384059.40540  26274526.76740
 96  9  8  3 28  0.0180000  0  6  4 14 18 19 22 29
   7949252.81700  30288367.29900                   4074268.99340  30288370.89640
  16029572.24400  26820869.18200                  12504853.85340  26820872.45140
  -1569874.77200  26964390.55700                  -1215304.22740  26964393.34640
  -1512618.56900  28684065.08000                  -1134098.73140  28684068.66640
   6502381.41300  26818887.14200                   5124750.04140  26818889.92040
  13345996.41500  26289446.36100                  10445160.37840  26289448.36540
 96  9  8  3 28 30.0180000  0  6  4 14 18 19 22 29
   8042668.00400  30306144.61100                   4147060.01740  30306148.91240
  16171331.29800  26847845.09600                  12615315.44440  26847848.29540
  -1564523.58700  26965408.92400                  -1211134.45940  26965411.66640
  -1518531.47800  28682939.35300                  -1138706.16040  28682942.26040
   6609661.63700  26839301.68900                   5208345.02840  26839304.31440
  13424675.93400  26304418.43900                  10506469.09940  26304420.37340
 96  9  8  3 29  0.0180000  0  6  4 14 18 19 22 29
   8136489.05100  30323998.19700                   4220167.31840  30324001.51440
  16313515.30700  26874901.94700                  12726108.16640  26874905.13540
  -1558968.11300  26966466.04100                  -1206805.50340  26966468.56040
  -1524258.12100  28681850.04100                  -1143168.44240  28681853.56840
   6717492.00000  26859821.28300                   5292368.69340  26859823.88540
  13503637.88800  26319444.34600                  10567997.89340  26319446.26740
 96  9  8  3 29 30.0180000  0  6  4 14 18 19 22 29
   8230694.34400  30341924.81400                   4293574.04940  30341927.79140
  16456125.23600  26902039.55700                  12837232.78040  26902042.72140
  -1553202.47700  26967563.31400                  -1202312.78340  26967565.89240
  -1529796.14600  28680796.36100                  -1147483.77240  28680799.63140
   6825861.17600  26880443.06400                   5376812.21940  26880445.63140
  13582881.14000  26334523.98600                  10629745.89140  26334525.97840
 96  9  8  3 30  0.0190000  0  6  4 14 18 19 22 29
   8325294.40100  30359926.51500                   4367288.37840  30359929.99540
  16599160.24600  26929258.09300                  12948688.62240  26929261.22240
  -1547233.11300  26968699.33500                  -1197661.31540  26968701.96040
  -1535149.90200  28679777.64700                  -1151655.50040  28679781.67940
   6934778.58600  26901169.10800                   5461682.93240  26901171.78040
  13662409.55000  26349657.73300                  10691716.08840  26349659.58540
 96  9  8  3 30 30.0190000  0  6  4 14 18 19 22 29
   8420298.12500  30378004.56100                   4441317.21640  30378007.69040
  16742618.19200  26956557.39000                  13060474.02540  26956560.62440
  -1541077.82000  26969870.61600                  -1192864.96940  26969873.18240
  -1540333.94700  28678790.46000                  -1155694.98140  28678794.32740
   7044243.80500  26922000.06900                   5546980.50940  26922002.76540
  13742226.29700  26364846.29600                  10753910.95640  26364848.27640
 96  9  8  3 31  0.0190000  0  6  4 14 18 19 22 29
   8515716.26300  30396162.50700                   4515669.01040  30396165.37840
  16886510.43000  26983939.23300                  13172597.84340  26983942.43240
  -1534728.57400  26971078.81900                  -1187917.48840  26971081.33940
  -1545345.59500  28677837.42900                  -1159600.11040  28677840.97940
   7154276.32600  26942938.52200                   5632720.14440  26942941.19440
  13822344.12400  26380092.26500                  10816340.43640  26380094.22240
 96  9  8  3 31 30.0190000  0  6  4 14 18 19 22 29
   8611556.57700  30414400.65500                   4590349.80040  30414404.17140
  17030842.42600  27011404.63200                  13285064.31540  27011407.93640
  -1528173.62400  26972326.10000                  -1182809.73540  26972328.50340
  -1550164.82600  28676920.64700                  -1163355.30840  28676924.37440
   7264874.92900  26963984.81100                   5718900.88140  26963987.49540
  13902762.52800  26395395.40500                  10879004.13140  26395397.30440
 96  9  8  3 32  0.0190000  0  6  4 14 18 19 22 29
   8707824.11100  30432720.46000                   4665363.43140  30432722.07740
  17175602.81000  27038951.68600                  13397864.60240  27038954.89740
  -1521428.67800  26973609.56900                  -1177553.93240  26973612.03040
  -1554797.55500  28676038.90500                  -1166965.19640  28676042.57340
   7376027.49300  26985136.44400                   5805513.27140  26985139.04640
  13983480.01000  26410755.53800                  10941900.87240  26410757.51840
 96  9  8  3 32 30.0190000  0  6  4 14 18 19 22 29
   8804513.73900  30451119.45200                   4740705.95140  30451124.32740
  17320797.92300  27066581.42100                  13511003.63240  27066584.80740
  -1514496.67100  26974928.81900                  -1172152.35640  26974931.35040
  -1559234.22600  28675194.76500                  -1170422.30040  28675198.43240
   7487740.02900  27006394.65500                   5892562.00540  27006397.18640
  14064494.40300  26426171.76500                  11005028.97740  26426173.65140
 96  9  8  3 33  0.0190000  0  6  4 14 18 19 22 29
   8901616.20300  30469596.48300                   4816370.19840  30469601.58140
  17466418.85700  27094292.26500                  13624474.47740  27094295.62840
  -1507372.26800  26976284.52200                  -1166600.87040  26976286.96040
  -1563468.14800  28674388.05400                  -1173721.42840  28674391.54640
   7600009.37500  27027758.62400                   5980044.61840  27027761.26140
  14145802.30900  26441644.44400                  11068385.79940  26441646.27240
 96  9  8  3 33 30.0190000  0  6  4 14 18 19 22 29
   8999113.49000  30488149.69400                   4892342.09640  30488150.71440
  17612436.62200  27122078.42100                  13738254.54740  27122081.60840
  -1500094.22500  26977669.46000                  -1160929.65740  26977672.06140
  -1567519.50500  28673617.20200                  -1176878.28940  28673620.96440
   7712807.47400  27049223.54600                   6067939.24840  27049226.12440
  14227398.23000  26457171.41300                  11131967.03240  26457173.30040
 96  9  8  3 34  0.0190000  0  6  4 14 18 19 22 29
   9097013.40600  30506778.80400                   4968627.72440  30506783.03440
  17758861.88200  27149942.16300                  13852352.14140  27149945.32740
  -1492644.54000  26979087.14700                  -1155124.69440  26979089.47940
  -1571380.00600  28672883.27200                  -1179886.44840  28672886.80040
   7826160.97100  27070793.98300                   6156266.64940  27070796.69040
  14309288.28500  26472754.56900                  11195777.46140  26472756.45640
 96  9  8  3 34 30.0190000  0  6  4 14 18 19 22 29
   9195319.10300  30525485.93600                   5045229.56740  30525492.37040
  17905709.37600  27177886.30400                  13966778.75540  27177889.64340
  -1485003.44200  26980541.00700                  -1149170.56540  26980543.49140
  -1575032.29600  28672187.56100                  -1182732.35340  28672190.94840
   7940086.07700  27092473.01500                   6245039.46640  27092475.67540
  14391481.79500  26488395.58500                  11259824.35040  26488397.49540
 96  9  8  3 35  0.0190000  0  6  4 14 18 19 22 29
   9294013.11700  30544268.18600                   5122134.00840  30544271.70240
  18052966.89000  27205908.34300                  14081524.85640  27205911.49540
  -1477169.05900  26982031.89700                  -1143065.85140  26982034.35840
  -1578490.44600  28671530.18600                  -1185426.97840  28671533.84340
   8054557.47700  27114256.35000                   6334237.96040  27114258.85840
  14473979.75400  26504094.47500                  11324108.46840  26504096.33940
 96  9  8  3 35 30.0190000  0  6  4 14 18 19 22 29
   9393096.02100  30563122.49100                   5199341.44240  30563124.26140
  18200650.00700  27234011.44400                  14196602.59740  27234014.78440
  -1469123.44200  26983563.09300                  -1136796.52840  26983565.58940
  -1581752.86800  28670909.07700                  -1187969.09540  28670912.47540
   8169577.16100  27136143.85800                   6423863.69640  27136146.61240
  14556777.11700  26519850.14700                  11388625.88740  26519852.06940
 96  9  8  3 36  0.0190000  0  6  4 14 18 19 22 29
   9492564.91300  30582051.11600                   5276849.69440  30582053.65940
  18348754.91600  27262195.07700                  14312009.01540  27262198.30040
  -1460853.79800  26985136.49900                  -1130352.64040  26985139.05440
  -1584832.19900  28670322.58500                  -1190368.53940  28670325.85440
   8285130.89700  27158133.07700                   6513905.57240  27158135.71440
  14639855.67500  26535659.47500                  11453362.41240  26535661.25740
 96  9  8  3 36 30.0190000  0  6  4 14 18 19 22 29
   9592430.49500  30601052.87400                   5354666.96640  30601054.57340
  18497281.28800  27290458.77200                  14427743.84440  27290462.08940
  -1452361.68600  26986752.54600                  -1123735.39840  26986755.27640
  -1587728.03400  28669771.76500                  -1192624.98840  28669775.42140
   8401211.42900  27180222.11600                   6604357.94240  27180225.01140
  14723236.35700  26551526.36600                  11518334.37040  26551528.24140
 96  9  8  3 37  0.0190000  0  6  4 14 18 19 22 29
   9692693.97300  30620133.16300                   5432794.37540  30620137.42940
  18646220.31800  27318800.88200                  14543800.22040  27318804.37440
  -1443650.39100  26988410.29600                  -1116947.35040  26988412.73340
  -1590444.70800  28669254.89700                  -1194741.83740  28669258.37840
   8517813.77800  27202411.28800                   6695216.91840  27202413.74940
  14806915.04400  26567449.86600                  11583538.54640  26567451.76540
 96  9  8  3 37 30.0190000  0  6  4 14 18 19 22 29
   9793354.28600  30639289.03000                   5511230.96040  30639294.96040
  18795560.61300  27347219.73300                  14660169.27240  27347223.02640
  -1434726.67200  26990108.25700                  -1109993.79240  26990110.90540
  -1592982.09400  28668771.80400                  -1196718.99340  28668774.41740
   8634942.29600  27224699.80400                   6786485.89840  27224702.41740
  14890882.93000  26583428.60000                  11648968.06740  26583430.46440
 96  9  8  3 38  0.0190000  0  6  4 14 18 19 22 29
   9894407.46100  30658518.28000                   5589973.65240  30658523.00340
  18945293.57100  27375712.52200                  14776844.29940  27375715.79240
  -1425599.02000  26991845.59300                  -1102881.32440  26991848.03040
  -1595338.44500  28668323.10800                  -1198555.06240  28668327.09340
   8752592.05300  27247087.83500                   6878161.03940  27247090.47240
  14975155.20800  26599465.02200                  11714634.78140  26599466.85040
 96  9  8  3 38 30.0190000  0  6  4 14 18 19 22 29
   9995828.07900  30677818.00700                   5669002.68340  30677821.38240
  19095400.35800  27404277.12400                  14893810.62240  27404280.54640
  -1416292.23700  26993616.42900                  -1095629.26940  26993618.98340
  -1597506.12000  28667910.77200                  -1200244.12840  28667914.07740
   8870754.93900  27269573.66300                   6970236.02140  27269576.34740
  15059729.18400  26615558.74900                  11780536.57840  26615560.51840
 96  9  8  3 39  0.0190000  0  6  4 14 18 19 22 29
  10097602.07600  30697184.49100                   5748307.13740  30697189.20240
  19245876.54900  27432911.80400                  15011064.79240  27432915.20240
  -1406796.26100  26995423.18600                  -1088229.79140  26995425.60040
  -1599493.64100  28667532.51500                  -1201792.81540  28667536.82740
   8989421.97600  27292154.89700                   7062703.84440  27292157.59340
  15144596.05200  26631708.55400                  11846666.60140  26631710.35840
 96  9  8  3 39 30.0190000  0  6  4 14 18 19 22 29
  10199735.42300  30716620.81100                   5827891.54840  30716622.89740
  19396723.54700  27461617.17100                  15128607.89640  27461620.42940
  -1397098.88800  26997268.95200                  -1080673.38440  26997271.51840
  -1601296.85200  28667190.35800                  -1203197.87640  28667193.46440
   9108583.99100  27314830.99900                   7155557.36740  27314833.53040
  15229760.11800  26647914.70200                  11913028.21740  26647916.50740
 96  9  8  3 40  0.0190000  0  6  4 14 18 19 22 29
  10302241.57400  30736127.18600                   5907766.44840  30736129.78840
  19547945.66800  27490393.50700                  15246443.30540  27490397.03440
  -1387180.87700  26999156.06100                  -1072945.04840  26999158.64040
  -1602901.03100  28666883.59300                  -1204447.84540  28666886.42940
   9228243.11700  27337601.19400                   7248798.25140  27337604.01840
  15315225.63700  26664178.21800                  11979624.72740  26664179.99940
 96  9  8  3 40 30.0190000  0  6  4 14 18 19 22 29
  10405119.31800  30755704.44400                   5987930.90240  30755707.31540
  19699534.27200  27519239.85800                  15364564.28640  27519243.03440
  -1377043.60000  27001085.17900                  -1065045.85840  27001087.54640
  -1604313.94200  28666616.03800                  -1205548.76240  28666619.46040
   9348392.95000  27360465.14000                   7342421.50440  27360467.72940
  15400971.00700  26680495.09300                  12046439.30140  26680496.86240
 96  9  8  3 41  0.0190000  0  6  3 14 18 19 22 29
                  30740975.41300
  19851520.21700  27548161.85000                  15482994.88340  27548165.00340
  -1366650.95400  27003062.76500                  -1056947.67640  27003065.21440
  -1605537.10200  28666382.42900                  -1206501.82340  28666386.12040
   9469057.98900  27383426.49900                   7436446.21940  27383429.05440
  15487003.50200  26696866.55400                  12113477.60940  26696868.30040
 96  9  8  3 41 30.0200000  0  6  3 14 18 19 22 29
     -4674.47200  30740054.30800
  20003927.22300  27577163.96500                  15601753.57840  27577167.28140
  -1355993.46500  27005090.88700                  -1048643.12740  27005093.23040
  -1606541.71700  28666190.91800                  -1207284.60740  28666194.71540
   9590278.11100  27406494.34000                   7530903.46040  27406497.05840
  15573356.65500  26713298.94900                  12180765.78040  26713300.77740
 96  9  8  3 42  0.0200000  0  6  3 14 18 19 22 29
     -9399.41500  30739156.53500
  20156741.65300  27606243.51900                  15720829.74940  27606246.87140
  -1345074.07000  27007168.59000                  -1040134.49640  27007170.99240
  -1607337.23100  28666039.58200                  -1207904.45040  28666043.43740
   9712059.11500  27429668.43300                   7625797.75840  27429671.02340
  15660035.05200  26729793.23000                  12248307.38740  26729795.01240
 96  9  8  3 42 30.0200000  0  6  3 14 18 19 22 29
    -14026.40600  30738275.36300                     -1555.14450  30738279.10140
  20309949.35900  27635398.40200                  15840212.36940  27635401.57840
  -1333914.84500  27009292.18300                  -1031438.98440  27009294.62140
  -1607955.53400  28665922.74600                  -1208386.21440  28665926.34440
   9834391.14000  27452947.16000                   7721121.42740  27452949.65640
  15747043.94800  26746350.54300                  12316106.52440  26746352.25440
 96  9  8  3 43  0.0200000  0  6  3 14 18 19 22 29
    -18572.95100  30737410.24600                     -5097.91040  30737412.46140
  20463522.73400  27664622.41800                  15959879.92340  27664625.57040
  -1322522.79900  27011460.01200                  -1022562.05840  27011462.55540
  -1608398.32600  28665838.42600                  -1208731.22840  28665841.82440
   9957259.00600  27476328.24600                   7816862.62640  27476331.01240
  15834389.30600  26762971.66800                  12384167.84140  26762973.47340
 96  9  8  3 43 30.0200000  0  6  3 14 18 19 22 29
    -23031.74700  30736561.37100                     -8572.24340  30736565.40240
  20617445.10900  27693912.57400                  16079819.42940  27693915.78540
  -1310899.21000  27013671.59800                  -1013504.70140  27013674.09440
  -1608648.00800  28665790.68300                  -1208925.77440  28665793.66040
  10080646.30200  27499807.94900                   7913008.57740  27499810.64440
  15922076.45400  26779658.01900                  12452495.48940  26779659.82440
 96  9  8  3 44  0.0200000  0  6  3 14 18 19 22 29
    -27405.38400  30735728.84800                    -11980.17040  30735733.95740
  20771695.81100  27723265.88700                  16200014.77440  27723269.05140
  -1299047.15500  27015927.24600                  -1004269.32140  27015929.67240
  -1608715.02300  28665778.16800                  -1208977.96640  28665781.15640
  10204515.66000  27523379.54300                   8009530.16240  27523382.28540
  16010076.75300  26796403.98000                  12521067.14840  26796405.77340
 96  9  8  3 44 30.0200000  0  6  3 14 18 19 22 29
    -31677.36300  30734916.26200                    -15309.04240  30734919.84840
  20926281.03600  27752682.23800                  16320470.78540  27752685.37940
  -1286966.19700  27018226.12900                   -994855.58640  27018228.60140
  -1608581.05200  28665802.76900                  -1208873.54540  28665805.78140
  10328860.89100  27547041.77700                   8106422.55840  27547044.43740
  16098373.60800  26813206.18300                  12589869.89840  26813207.95340
 96  9  8  3 45  0.0200000  0  6  3 14 18 19 22 29
    -35833.90200  30734125.37100                    -18547.89240  30734128.89840
  21081225.25900  27782166.66000                  16441206.53640  27782169.97640
  -1274636.00000  27020572.41800                   -985247.63740  27020574.84440
  -1608227.39200  28665870.26900                  -1208597.94540  28665873.57440
  10453684.54500  27570794.90200                   8203687.74440  27570797.52740
  16186962.55100  26830064.16800                  12658900.24640  26830065.92640
 96  9  8  3 45 30.0200000  0  6  3 14 18 19 22 29
    -39874.74900  30733357.76200                    -21696.58340  30733358.99240
  21236542.19500  27811723.50400                  16562232.71140  27811726.72640
  -1262057.46600  27022966.23800                   -975446.18140  27022968.69940
  -1607665.21300  28665977.42600                  -1208159.84540  28665980.95340
  10578986.68800  27594638.80800                   8301325.77940  27594641.66840
  16275840.52100  26846977.35500                  12728155.80740  26846979.25440
 96  9  8  3 46  0.0200000  0  6  3 14 18 19 22 29
    -43814.20700  30732606.39400                    -24766.25640  30732609.26540
  21392229.77100  27841349.31600                  16683547.69840  27841352.62140
  -1249232.84800  27025406.72300                   -965452.95840  27025409.12540
  -1606915.67500  28666119.46500                  -1207575.76340  28666122.79340
  10704766.00200  27618574.02700                   8399335.64540  27618576.71140
  16365011.56000  26863945.80800                  12797639.74140  26863947.70740
 96  9  8  3 46 30.0200000  0  6  3 14 18 19 22 29
    -47648.23000  30731877.76900                    -27753.73440  30731882.28140
  21548290.02400  27871046.55100                  16805153.07540  27871049.50440
  -1236171.32700  27027891.98000                   -955275.14540  27027894.33640
  -1605991.55100  28666295.80100                  -1206855.62740  28666298.85940
  10831037.10600  27642602.41000                   8497728.72040  27642605.23440
  16454497.94200  26880974.54300                  12867369.38040  26880976.52340
 96  9  8  3 47  0.0200000  0  6  3 14 18 19 22 29
    -51400.69800  30731162.72300                    -30677.67940  30731171.26940
  21704703.14900  27900811.25400                  16927033.42240  27900814.45340
  -1222884.12400  27030420.40200                   -944921.47640  27030422.86340
  -1604913.16600  28666501.26900                  -1206015.29240  28666504.31640
  10957786.21300  27666721.91000                   8596494.26140  27666724.79340
  16544317.59800  26898066.62900                  12937358.71540  26898068.64440
 96  9  8  3 47 30.0200000  0  6  3 14 18 19 22 29
    -55077.97400  30730464.16800                    -33543.12340  30730465.99640
  21861441.82900  27930637.77700                  17049167.45340  27930641.11740
  -1209381.07400  27032990.20700                   -934399.60640  27032992.72640
  -1603676.13200  28666735.72300                  -1205051.35340  28666738.41840
  11085015.04100  27690933.00400                   8695633.61140  27690935.86340
  16634479.70900  26915223.85500                  13007614.90140  26915225.76540
 96  9  8  3 48  0.0200000  0  6  3 14 18 19 22 29
    -58660.55900  30729781.80100                    -36334.73240  30729785.70340
  22018502.61700  27960525.02700                  17171552.46740  27960528.59040
  -1195657.07900  27035601.86300                   -923705.57240  27035604.32440
  -1602265.34800  28667005.18300                  -1203951.99640  28667008.32440
  11212733.14500  27715236.98800                   8795154.21940  27715239.78940
  16724992.08200  26932447.77700                  13078144.02340  26932449.69940
 96  9  8  3 48 30.0200000  0  6  3 14 18 19 22 29
    -62134.26400  30729120.86300                    -39041.47740  30729125.35140
  22175882.90500  27990473.44100                  17294186.45840  27990476.82840
  -1181714.56500  27038254.89400                   -912841.27340  27038257.43740
  -1600657.79400  28667310.62900                  -1202699.34840  28667314.09840
  11340947.95800  27739635.44900                   8895061.86840  27739638.08640
  16815853.90800  26949738.31600                  13148945.44140  26949740.18040
 96  9  8  3 49  0.0200000  0  6  3 14 18 19 22 29
    -65498.38000  30728478.62100                    -41662.88440  30728483.35540
  22333579.77900  28020482.27700                  17417067.13140  28020485.61740
  -1167549.70200  27040950.26900                   -901803.71440  27040952.76540
  -1598840.03100  28667656.68300                  -1201282.89240  28667659.94140
  11469646.77400  27764125.80800                   8995346.67040  27764128.45740
  16907034.34400  26967089.36300                  13219995.12540  26967091.22640
 96  9  8  3 49 30.0200000  0  6  3 14 18 19 22 29
    -68713.60400  30727868.75400                    -44168.13440  30727873.44140
  22491612.96700  28050554.94900                  17540209.86740  28050558.28940
  -1153138.36100  27043692.69100                   -890574.09340  27043695.16440
  -1596797.70800  28668046.12900                  -1199691.46540  28668049.57440
  11598844.19300  27788711.55100                   9096019.98440  27788714.50440
  16998524.13800  26984499.40200                  13291285.86940  26984501.19540
 96  9  8  3 50  0.0200000  0  6  3 14 18 19 22 29
    -71772.64400  30727285.87100                    -46551.83140  30727288.49640
  22649999.23600  28080694.91000                  17663627.72740  28080698.22640
  -1138479.38400  27046482.14400                   -879151.50240  27046484.66440
  -1594542.12600  28668474.16800                  -1197933.84940  28668477.18040
  11728534.75300  27813390.30100                   9197077.56740  27813393.03140
  17090306.95600  27001964.91000                  13362804.94140  27001966.65640
 96  9  8  3 50 30.0200000  0  7  3 14 18 19 22 28 29
    -74651.52000  30726738.86300                    -48795.06040  30726743.21140
  22808768.69700  28110907.98000                  17787344.18340  28110911.20340
  -1123543.73100  27049324.34800                   -867513.32040  27049326.86740
  -1592057.89900  28668947.26900                  -1195998.07040  28668950.80840
  11858730.13500  27838166.01900                   9298528.51940  27838168.93740
                  30940923.30800
  17182395.99500  27019489.04300                  13434562.63040  27019490.88340
 96  9  8  3 51  0.0200000  0  6  3 14 18 19 22 29
    -77361.22200  30726222.68300                    -50906.52840  30726223.82040
  22967908.09400  28141191.06600                  17911348.89640  28141194.52340
  -1108336.18100  27052218.34800                   -855663.27740  27052220.76240
  -1589373.49400  28669457.86300                  -1193906.30440  28669460.98040
  11989412.34000  27863034.32400                   9400358.80840  27863036.94940
  17274782.32000  27037069.42600                  13506551.97140  27037071.33640
 96  9  8  3 51 30.0200000  0  7  3 14 18 19 22 28 29
    -79925.03100  30725734.45700                    -52904.27840  30725737.78540
  23127396.23900  28171540.41000                  18035625.35540  28171543.57440
  -1092859.57200  27055163.35500                   -843603.58040  27055165.94540
  -1586508.66900  28670003.44900                  -1191673.94740  28670006.05140
  12120571.62200  27887992.52700                   9502560.84840  27887995.43340
                  30957452.66000
  17367469.37900  27054707.29300                  13578775.65240  27054709.13340
 96  9  8  3 52  0.0200000  0  7  3 14 18 19 22 28 29
    -82362.92000  30725270.74600                    -54803.89240  30725273.09040
  23287213.89000  28201952.80100                  18160158.57640  28201956.19940
  -1077126.82400  27058157.25400                   -831344.29240  27058159.75040
  -1583466.78500  28670582.01200                  -1189303.63940  28670585.64440
  12252195.57900  27913039.88700                   9605124.97440  27913042.86340
     42602.92500  30965838.37900                     33197.07210  30965840.46900
  17460451.25800  27072401.04300                  13651229.05940  27072402.97640
 96  9  8  3 52 30.0200000  0  7  3 14 18 19 22 28 29
    -84675.39500  30724831.59800                    -56605.82540  30724834.73840
  23447345.48800  28232425.06600                  18284936.44340  28232428.11340
  -1061127.75700  27061201.88700                   -818877.48440  27061204.38340
  -1580240.39000  28671195.84000                  -1186789.54940  28671198.62940
  12384280.87500  27938174.80100                   9708048.58340  27938177.64840
     87109.85000  30974307.56600                     67877.81300  30974309.89000
  17553740.34600  27090153.24600                  13723921.85140  27090155.18040
 96  9  8  3 53  0.0200000  0  7  3 14 18 19 22 28 29
    -86874.72700  30724412.05800                    -58319.53540  30724415.42240
  23607778.49600  28262954.48000                  18409949.17340  28262957.70340
  -1044872.54100  27064295.04300                   -806211.07740  27064297.57440
  -1576836.85400  28671843.39400                  -1184137.44740  28671846.51240
  12516818.79300  27963395.98800                   9811324.87740  27963398.93040
    132052.70300  30982859.80800                    102898.23100  30982862.07400
  17647333.78600  27107963.46500                  13796851.80540  27107965.34040
 96  9  8  3 53 30.0210000  0  7  3 14 18 19 22 28 29
    -88939.03800  30724019.22700                    -59928.06840  30724021.31340
  23768524.95000  28293543.25900                  18535206.14740  28293546.54040
  -1028352.33000  27067438.72700                   -793338.18140  27067441.04840
  -1573244.75700  28672526.99300                  -1181338.40340  28672529.94640
  12649808.16200  27988703.07100                   9914952.95540  27988705.91940
    177440.67200  30991496.62600                    138265.51200  30991499.40700
  17741235.83200  27125832.56300                  13870022.22640  27125834.50940
 96  9  8  3 54  0.0210000  0  7  3 14 18 19 22 28 29
    -90837.70300  30723657.54000                    -61407.53940  30723660.37640
  23929574.41300  28324190.02400                  18660699.23140  28324193.50540
  -1011574.66700  27070631.36000                   -780264.66040  27070633.82140
  -1569470.41700  28673244.81300                  -1178397.34340  28673247.90740
  12783221.73000  28014091.01600                  10018911.57640  28014093.47740
    223272.40400  31000218.25100                    173978.54100  31000220.74300
  17835447.79500  27143760.47700                  13943434.14240  27143762.44640
 96  9  8  3 54 30.0210000  0  7  3 14 18 19 22 28 29
    -92552.40900  30723333.14100                    -62743.65840  30723335.32140
  24090932.27000  28354895.32100                  18786432.61440  28354898.36840
   -994537.81600  27073873.33700                   -766989.18340  27073875.77440
  -1565511.15300  28673998.93100                  -1175312.18640  28674002.39940
  12917061.97300  28039559.66500                  10123202.67740  28039562.51340
    269553.16000  31009025.48500                    210041.48800  31009027.76300
  17929988.20900  27161750.93100                  14017101.99440  27161752.86440
 96  9  8  3 55  0.0210000  0  7  3 14 18 19 22 28 29
    -94080.41600  30723042.14100                    -63934.28740  30723045.04840
  24252596.20800  28385658.95400                  18912404.50140  28385662.37640
   -977249.68600  27077163.20400                   -753517.90640  27077165.74740
  -1561374.66000  28674785.57100                  -1172088.92740  28674789.26340
  13051322.97000  28065108.56300                  10227821.63740  28065111.42340
    316274.42800  31017916.05600                    246447.68700  31017918.84100
  18024854.23300  27179803.39900                  14091023.56940  27179805.36840
 96  9  8  3 55 30.0210000  0  7  3 14 18 19 22 28 29
    -95418.39400  30722787.96200                    -64976.83040  30722791.16140
  24414557.65000  28416479.29000                  19038608.21540  28416482.84140
   -959705.13800  27080501.75900                   -739846.82440  27080504.18440
  -1557051.30800  28675608.68100                  -1168720.06240  28675611.77440
  13186011.96000  28090739.41500                  10332774.09840  28090741.93440
    363439.09800  31026890.97700                    283199.41500  31026893.47300
  18120061.64200  27197920.79800                  14165211.15740  27197922.74340
 96  9  8  3 56  0.0210000  0  7  3 14 18 19 22 28 29
    -96581.03800  30722564.38400                    -65882.77340  30722568.91940
  24576821.07500  28447356.82100                  19165047.25040  28447360.27840
   -941899.72000  27083890.00100                   -725972.46140  27083892.35640
  -1552524.48000  28676470.50900                  -1165192.64340  28676473.66140
  13321150.03900  28116455.32100                  10438076.50440  28116457.99340
    411058.74600  31035952.86000                    320305.62000  31035955.49300
  18215631.97200  27216107.36800                  14239681.54140  27216109.24340
 96  9  8  3 56 30.0210000  0  7  3 14 18 19 22 28 29
    -97595.24700  30722372.61000                    -66673.03240  30722375.85640
  24739375.32500  28478290.13400                  19291712.88740  28478293.38040
   -923829.85600  27087328.57100                   -711892.04040  27087330.90340
  -1547789.90700  28677371.01600                  -1161503.35540  28677374.25140
  13456748.56500  28142259.17300                  10543737.68940  28142261.73940
    459133.52000  31045101.07100                    357766.52400  31045103.63000
  18311565.02300  27234362.48500                  14314434.56340  27234364.27840
 96  9  8  3 57  0.0210000  0  7  3 14 18 19 22 28 29
    -98469.07800  30722206.47000                    -67353.91340  30722208.28640
  24902224.17600  28509279.26600                  19418608.08540  28509282.67740
   -905482.55900  27090819.87600                   -697595.43140  27090822.27840
  -1542847.54400  28678311.36800                  -1157652.14440  28678314.54440
  13592810.53200  28168150.68100                  10649760.00340  28168152.98940
    507667.00000  31054336.76600                    395584.82100  31054339.38000
  18407863.33600  27252687.62600                  14389472.21140  27252689.45440
 96  9  8  3 57 30.0210000  0  7  3 14 18 19 22 28 29
    -99201.81700  30722066.30600                    -67924.86140  30722069.45840
  25065358.09900  28540322.63400                  19545725.41640  28540326.05640
   -886861.84200  27094363.36800                   -683085.77640  27094365.65340
  -1537702.14600  28679291.00100                  -1153642.72540  28679294.21240
  13729325.02900  28194128.83700                  10756134.93340  28194131.35640
    556656.53400  31063658.95400                    433758.49700  31063661.11800
  18504521.73600  27271080.96200                  14464790.44140  27271082.89540
 96  9  8  3 58  0.0210000  0  7  3 14 18 19 22 28 29
    -99777.25600  30721956.82100                    -68373.24740  30721958.95440
  25228766.89200  28571418.57100                  19673056.92440  28571421.97040
   -867963.11200  27097959.57900                   -668359.48540  27097961.99340
  -1532367.18300  28680306.00900                  -1149485.57740  28680309.07940
  13866278.84900  28220190.24300                  10862852.19940  28220192.82140
    606100.63100  31073068.01600                    472286.37700  31073070.53600
  18601521.59900  27289539.46200                  14540374.74540  27289541.32540
 96  9  8  3 58 30.0210000  0  7  3 14 18 19 22 28 29
   -100164.55900  30721883.28200                    -68674.98540  30721887.48940
  25392460.79800  28602568.17300                  19800610.60940  28602571.44240
   -848768.07400  27101612.29000                   -653402.30740  27101614.64540
  -1526841.87300  28681357.53200                  -1145180.12340  28681360.54440
  14003682.31500  28246336.81300                  10969919.83440  28246339.32140
    656004.89100  31082564.23500                    511172.85200  31082566.95400
  18698856.03300  27308061.59500                  14616219.76240  27308063.47040
 96  9  8  3 59  0.0210000  0  7  3 14 18 19 22 28 29
   -100334.38700  30721850.18800                    -68807.32240  30721853.25940
  25556461.36400  28633776.64100                  19928403.24740  28633779.92340
   -829269.67100  27105322.83700                   -638208.73940  27105325.19240
  -1521120.98200  28682445.82100                  -1140722.26740  28682448.98540
  14141540.60600  28272570.40700                  11077341.88440  28272572.59840
    706378.75600  31092150.31300                    550425.22600  31092153.00500
  18796516.37500  27326645.84500                  14692318.73040  27326647.62640
 96  9  8  3 59 30.0210000  0  7  3 14 18 19 22 28 29
   -100295.17300  30721859.11000                    -68776.73840  30721861.92340
  25720756.63900  28665041.02400                  20056425.53740  28665044.78640
   -809484.59000  27109087.85200                   -622791.78840  27109090.13840
  -1515225.54000  28683567.81300                  -1136128.38940  28683570.89540
  14279834.32900  28298887.10200                  11185103.22140  28298889.69240
    757207.56300  31101822.72000                    590032.07800  31101824.90700
  18894472.20600  27345286.25900                  14768647.94440  27345288.11040
 96  9  8  4  0  0.0210000  0  7  3 14 18 19 22 28 29
   -100043.52100  30721905.34500                    -68580.60840  30721909.63440
  25885357.08200  28696363.42300                  20184685.61640  28696366.63440
   -789403.19400  27112909.20400                   -607143.94240  27112911.59540
  -1509137.06500  28684726.43800                  -1131384.10240  28684729.08740
  14418580.92200  28325289.70400                  11293217.45340  28325292.00140
    808500.74200  31111583.82900                    630000.81400  31111585.78200
  18992722.12800  27363982.62600                  14845206.31640  27363984.48940
 96  9  8  4  0 30.0210000  0  7  3 14 18 19 22 28 29
    -99586.73400  30721993.37600                    -68224.70340  30721995.91940
  26050291.05600  28727749.36800                  20313205.58840  28727752.63840
   -769025.77200  27116786.82900                   -591265.42640  27116789.13840
  -1502844.44800  28685923.50100                  -1126480.73640  28685926.54840
  14557787.70000  28351779.74300                  11401690.26040  28351781.95840
    860269.97500  31121435.04800                    670340.50400  31121437.25100
  19091277.06600  27382736.83700                  14922002.36940  27382738.67740
 96  9  8  4  1  0.0210000  0  7  3 14 18 19 22 28 29
    -98947.51800  30722114.54800                    -67726.58640  30722117.75940
  26215531.08300  28759193.45400                  20441964.04340  28759196.85240
   -748373.76000  27120716.79000                   -575172.94140  27120719.05240
  -1496356.52600  28687158.21200                  -1121425.18840  28687160.55640
  14697413.06000  28378349.61000                  11510489.24540  28378352.13040
    912501.99300  31131374.11800                    711040.78800  31131376.41500
  19190129.52400  27401547.95400                  14999030.25840  27401549.81740
 96  9  8  4  1 30.0210000  0  7  3 14 18 19 22 28 29
    -98116.83100  30722273.43800                    -67079.24640  30722276.73140
  26381066.16900  28790693.70400                  20570952.41740  28790697.02040
   -727434.47300  27124701.26600                   -558856.60740  27124703.63440
  -1489661.06200  28688432.51600                  -1116207.91940  28688435.54040
  14837458.13200  28404999.29800                  11619615.27740  28405001.44240
    965205.71500  31141403.49300                    752108.62300  31141405.30900
  19289301.89500  27420419.82100                  15076307.42840  27420421.76640
 96  9  8  4  2  0.0210000  0  7  3 14 18 19 22 28 29
    -97093.04300  30722466.93800                    -66281.48940  30722470.67740
  26546879.00300  28822246.75900                  20700157.20640  28822250.34540
   -706210.13800  27128740.48500                   -542318.16340  27128742.71240
  -1482756.83700  28689746.10200                  -1110827.98240  28689748.78640
  14977907.95100  28431725.89900                  11729056.69440  28431728.29040
   1018375.79500  31151521.72700                    793539.86500  31151523.27000
  19388806.31600  27439354.67300                  15153843.34240  27439356.59540
 96  9  8  4  2 30.0210000  0  7  3 14 18 19 22 28 29
    -95861.68000  30722702.82900                    -65321.98240  30722705.31340
  26712953.04300  28853849.62600                  20829565.54740  28853852.81340
   -684691.53100  27132834.96200                   -525550.41640  27132837.17740
  -1475658.21500  28691097.25900                  -1105296.55940  28691100.43440
  15118743.77700  28458526.22000                  11838798.90140  28458528.43440
   1072013.56500  31161728.18100                    835335.53900  31161730.57500
  19488653.86400  27458355.22000                  15231646.62640  27458357.08340
 96  9  8  4  3  0.0210000  0  7  3 14 18 19 22 28 29
    -94391.08200  30722981.35200                    -64176.03340  30722985.13840
  26879275.04800  28885499.68100                  20959167.09640  28885502.97340
   -662855.03500  27136990.34500                   -508534.96140  27136992.58340
  -1468353.59400  28692487.17300                  -1099604.64240  28692490.20840
  15259966.42000  28485399.89900                  11948842.52140  28485402.55940
   1126130.68400  31172026.44600                    877504.74000  31172028.94600
  19588853.97400  27477422.51600                  15309724.63440  27477424.45040
 96  9  8  4  3 30.0210000  0  7  3 14 18 19 22 28 29
    -92670.29900  30723310.30600                    -62835.16240  30723312.77840
  27045838.66800  28917195.47700                  21088956.92140  28917199.12240
   -640694.91900  27141207.50900                   -491267.33640  27141209.77040
  -1460860.09200  28693912.98500                  -1093765.53940  28693915.72740
  15401584.53700  28512349.21200                  12059194.29940  28512351.38040
   1180723.53300  31182415.07100                    920044.60300  31182417.21200
  19689399.11500  27496555.71200                  15388071.48640  27496557.61040
 96  9  8  4  4  0.0210000  0  7  3 14 18 19 22 28 29
    -90709.16600  30723682.79800                    -61306.91340  30723685.50540
  27212635.53400  28948935.70400                  21218928.51040  28948939.41940
   -618210.40200  27145485.99300                   -473746.92340  27145488.24340
  -1453181.08400  28695374.37600                  -1087781.88540  28695377.49340
  15543596.97000  28539372.80600                  12169853.33540  28539374.89140
   1235792.98300  31192894.39900                    962955.85400  31192896.94200
  19790279.33500  27515752.65700                  15466679.44140  27515754.49740
 96  9  8  4  4 30.0210000  0  7  3 14 18 19 22 28 29
    -88517.51400  30724099.85200                    -59599.12740  30724103.72040
  27379666.87400  28980720.79000                  21349082.80140  28980724.16540
   -595405.53600  27149825.69600                   -455976.89640  27149827.91140
  -1445322.83400  28696869.93100                  -1081658.56240  28696873.14140
  15686004.09000  28566472.08700                  12280819.93540  28566474.50140
   1291339.61500  31203464.60200                   1006238.95500  31203466.58700
  19891482.91000  27535010.92300                  15545539.36040  27535012.95040
 96  9  8  4  5  0.0220000  0  7  3 14 18 19 22 28 29
    -86109.93200  30724558.63100                    -57723.09640  30724559.60340
  27546946.36500  29012553.40400                  21479430.44840  29012556.72140
   -572287.91700  27154224.95900                   -437963.16040  27154227.13940
  -1437276.24700  28698400.92000                  -1075388.47540  28698404.28340
  15828823.97100  28593649.67000                  12392108.13840  28593652.15440
   1347366.25700  31214125.93500                   1049896.06200  31214128.40000
  19993013.26400  27554331.50600                  15624653.91240  27554333.56840
 96  9  8  4  5 30.0220000  0  7  3 14 18 19 22 28 29
    -83504.59100  30725054.02100                    -55692.97940  30725057.01040
  27714475.55700  29044433.22400                  21609972.66440  29044436.48240
   -548863.53100  27158682.46700                   -419710.38940  27158684.59940
  -1429029.54800  28699970.20900                  -1068962.44640  28699973.34940
  15972065.46700  28620907.84200                  12503724.89440  28620910.31440
   1403871.97700  31224878.74800                   1093926.50400  31224881.41600
  20094883.21000  27573716.70900                  15704033.07640  27573718.66640
 96  9  8  4  6  0.0220000  0  7  3 14 18 19 22 28 29
    -80720.23200  30725582.63100                    -53523.31540  30725586.49840
  27882269.23100  29076362.91200                  21740720.97340  29076366.07640
   -525140.76200  27163196.68500                   -401225.10340  27163198.97140
  -1420574.95200  28701578.81800                  -1062374.42940  28701581.88940
  16115722.67600  28648244.56000                  12615665.57140  28648246.82240
   1460861.12300  31235723.55300                   1138333.63600  31235725.59600
  20197104.25700  27593168.84200                  15783685.84140  27593170.77540
 96  9  8  4  6 30.0220000  0  7  3 14 18 19 22 28 29
    -77755.44500  30726145.59200                    -51213.07440  30726149.61140
  28050328.43300  29108343.81000                  21871676.18740  29108347.15040
   -501134.54200  27167764.64600                   -382518.95640  27167766.89640
  -1411913.64700  28703227.22400                  -1055625.33940  28703230.42440
  16259785.46300  28675658.84200                  12727922.28940  28675661.23240
   1518327.19400  31246658.72400                   1183112.39000  31246661.53700
  20299682.45000  27612688.77100                  15863616.88340  27612690.81040
 96  9  8  4  7  0.0220000  0  7  3 14 18 19 22 28 29
    -74587.76900  30726750.48200                    -48744.69540  30726753.31840
  28218648.55700  29140373.98200                  22002834.72540  29140377.31040
   -476832.33400  27172389.37300                   -363582.16640  27172391.68140
  -1403029.60800  28704917.47400                  -1048702.67940  28704920.73240
  16404266.74200  28703152.55300                  12840505.10240  28703155.04940
   1576279.00800  31257686.34900                   1228269.66400  31257689.33400
  20402633.67700  27632279.70900                  15943838.60740  27632281.72440
 96  9  8  4  7 30.0220000  0  7  3 14 18 19 22 28 29
    -71199.36800  30727395.21700                    -46104.35240  30727397.85340
  28387226.54300  29172453.48200                  22134194.19640  29172456.52940
   -452225.18100  27177071.94300                   -344407.76440  27177074.15840
  -1393918.95100  28706651.44300                  -1041603.44640  28706654.44340
  16549152.39400  28730723.70900                  12953403.01340  28730726.21740
   1634719.99300  31268807.09200                   1273808.12100  31268810.13500
  20505968.73100  27651943.75600                  16024359.42840  27651945.83040
 96  9  8  4  8  0.0220000  0  7  3 14 18 19 22 28 29
    -67567.11300  30728085.78700                    -43274.06340  30728087.39240
  28556040.75800  29204577.71700                  22265737.73740  29204580.88140
   -427308.29800  27181813.51400                   -324992.01240  27181815.83440
  -1384598.22000  28708424.65400                  -1034340.53040  28708427.92440
  16694426.12000  28758368.67000                  13066603.32140  28758371.21340
   1693648.14600  31280020.84200                   1319726.17600  31280023.83400
  20609671.91700  27671677.99000                  16105167.10440  27671679.95940
 96  9  8  4  8 30.0220000  0  7  3 14 18 19 22 28 29
    -63656.90900  30728829.99000                    -40227.12440  30728834.38540
  28725080.73300  29236744.52100                  22397457.20040  29236747.81440
   -402066.19400  27186616.84200                   -305322.83240  27186619.12740
  -1375066.61400  28710238.84200                  -1026913.27540  28710242.42840
  16840099.99300  28786089.22400                  13180115.42840  28786091.95540
   1753066.89800  31291327.72400                   1366026.51900  31291330.54100
  20713730.34600  27691479.44300                  16186251.59640  27691481.44740
 96  9  8  4  9  0.0220000  0  7  3 14 18 19 22 28 29
    -59471.62500  30729627.06800                    -36965.83340  30729630.77140
  28894337.75500  29268953.38900                  22529345.77640  29268956.71740
   -376496.11100  27191482.55300                   -285398.08940  27191484.82640
  -1365348.26600  28712088.42000                  -1019340.52140  28712091.79540
  16986159.74400  28813883.12300                  13293928.22440  28813885.53740
   1812966.36900  31302726.75600                   1412701.48400  31302729.27900
  20818118.26300  27711343.80300                  16267592.81840  27711345.79540
 96  9  8  4  9 30.0220000  0  7  3 14 18 19 22 28 29
    -55011.99600  30730475.93500                    -33490.71940  30730480.57640
  29063820.40000  29301204.65400                  22661410.17340  29301208.41640
   -350595.12300  27196411.69300                   -265215.49640  27196414.02540
  -1355449.83100  28713971.74800                  -1011627.45040  28713974.81840
  17132603.42200  28841750.56800                  13408040.18240  28841753.11140
   1873354.00900  31314217.99800                   1459756.80100  31314220.72800
  20922829.09900  27731269.66200                  16349185.67240  27731271.53740
 96  9  8  4 10  0.0220000  0  7  3 14 18 19 22 28 29
    -50276.84900  30731376.37300                    -29801.01540  30731378.81040
  29233531.34900  29333499.77100                  22793652.47240  29333503.17040
   -324370.19000  27201402.02900                   -244780.47740  27201404.31440
  -1345378.83300  28715888.03700                  -1003779.90640  28715891.37740
  17279433.89100  28869691.54500                  13522453.54340  28869694.19340
   1934234.78200  31325803.13100                   1507196.35500  31325805.76400
  21027840.39900  27751252.83400                  16431012.64540  27751254.74440
 96  9  8  4 10 30.0220000  0  7  3 14 18 19 22 28 29
    -45285.63300  30732326.63100                    -25911.73140  30732330.59240
  29403481.13500  29365840.06000                  22926080.85740  29365843.64640
   -297828.49500  27206452.65400                   -224098.62440  27206454.97440
  -1335132.23100  28717837.72400                   -995795.52040  28717840.79540
  17426643.88400  28897704.42000                  13637162.62240  28897706.47140
   1995605.05100  31337481.59900                   1555017.36100  31337484.07200
  21133145.18400  27771291.56000                  16513068.31440  27771293.52940
 96  9  8  4 11  0.0220000  0  7  3 14 18 19 22 28 29
    -40054.72300  30733319.46700                    -21835.72540  30733322.11540
  29573662.45400  29398224.42800                  23058689.66940  29398227.90840
   -270977.72800  27211562.31800                   -203175.94340  27211564.56840
  -1324705.74600  28719821.88900                   -987670.97140  28719824.78340
  17574222.17200  28925787.59900                  13752158.68840  28925790.42440
   2057467.57200  31349254.00600                   1603221.95000  31349256.27100
  21238758.93000  27791389.07600                  16595364.72540  27791391.06840
 96  9  8  4 11 30.0220000  0  8  3 14 18 19 22 27 28 29
    -34587.76900  30734362.05300                    -17575.73340  30734365.73240
  29744063.66500  29430650.66200                  23191469.83340  29430654.15440
   -243827.65800  27216728.59900                   -182020.03840  27216731.01440
  -1314093.19100  28721841.34900                   -979401.42440  28721844.42040
  17722164.42100  28953940.43500                  13867438.36740  28953942.61540
        -0.37010  31758421.20900
   2119822.44900  31361119.42000                   1651810.16100  31361122.05600
  21344694.81500  27811548.14600                  16677912.16340  27811550.04540
 96  9  8  4 12  0.0220000  0  9  3 14 18 19 22 27 28 29 31
    -28863.87800  30735451.72400                    -13115.51640  30735455.31040
  29914690.13400  29463119.73200                  23324425.50440  29463123.24840
   -216361.64300  27221955.27900                   -160617.93640  27221957.69340
  -1303288.37100  28723897.47400                   -970982.07640  28723900.39240
  17870467.54000  28982161.33400                  13982999.23240  28982164.05340
    -13604.78400  31755832.33400                     -4587.87450  31755838.95540
   2182670.37000  31373079.26400                   1700782.57800  31373081.65800
  21450968.94900  27831771.38900                  16760723.17640  27831773.32240
                  31413492.42000
 96  9  8  4 12 30.0220000  0  9  3 14 18 19 22 27 28 29 31
    -22877.08800  30736590.85700                     -8450.46840  30736592.72140
  30085531.70600  29495630.08400                  23457548.80240  29495634.19740
   -188554.27000  27227246.81800                   -138949.85040  27227249.13940
  -1292290.71500  28725990.74000                   -962412.45240  28725993.67040
  18019123.60000  29010449.69300                  14098835.12740  29010452.65840
    -27163.80800  31753249.80300                    -15153.28940  31753255.36940
   2246008.00200  31385131.70100                   1750136.58800  31385134.24800
  21557603.25700  27852063.23200                  16843814.83640  27852065.27140
    -23151.84100  31408938.88900
 96  9  8  4 13  0.0220000  0  9  3 14 18 19 22 27 28 29 31
    -16625.42400  30737780.49000                     -3578.98240  30737782.42440
  30256569.23500  29528177.65400                  23590824.78940  29528180.64240
   -160409.91400  27232602.68500                   -117019.17740  27232604.92440
  -1281114.22300  28728117.39600                   -953703.47940  28728120.45540
  18168108.43400  29038800.82600                  14214927.20340  29038803.42840
    -40702.84500  31750675.50600                    -25703.18140  31750683.12740
   2309830.48000  31397277.08400                   1799868.39200  31397279.35300
  21664601.09900  27872424.31800                  16927189.76340  27872426.36940
    -47144.52800  31404373.70100                      -623.65150  31404374.83840
 96  9  8  4 13 30.0220000  0  9  3 14 18 19 22 27 28 29 31
    -10082.19600  30739025.24000                      1519.58940  30739026.04940
  30427826.77700  29560767.13900                  23724272.21740  29560771.11140
   -131910.07200  27238025.95900                    -94811.50140  27238028.23240
  -1269755.55000  28730278.61500                   -944852.55940  28730281.54540
  18317418.07900  29067212.96700                  14331272.37940  29067215.70940
    -54213.06800  31748105.13900                    -36230.51140  31748108.39640
   2374145.88300  31409515.49000                   1849984.30700  31409518.04900
  21771962.88000  27892854.55300                  17010848.29140  27892856.58040
    -71186.51800  31399798.22400                    -19357.64240  31399801.47140
 96  9  8  4 14  0.0220000  0  9  3 14 18 19 22 27 28 29 31
     -3241.72100  30740327.10700                      6849.83340  30740330.71740
  30599308.16100  29593398.61500                  23857894.07840  29593402.07240
   -103047.39100  27243518.19300                    -72321.09540  27243520.52540
  -1258212.20300  28732475.37300                   -935857.71940  28732478.43140
  18467048.50900  29095687.21700                  14447867.51140  29095689.85340
    -67703.76700  31745536.14600                    -46742.70640  31745538.56040
   2438954.72700  31421848.48200                   1900484.70300  31421850.69300
  21879678.27700  27913352.13100                  17094782.35540  27913354.15840
    -95272.53600  31395215.01400                    -38125.97640  31395218.69340
 96  9  8  4 14 30.0220000  0  9  3 14 18 19 22 27 28 29 31
      3883.67900  30741681.09200                     12402.13540  30741685.61540
  30771003.28500  29626070.54500                  23991682.47440  29626073.73240
    -73829.88900  27249078.11500                    -49554.21640  27249080.42440
  -1246475.24000  28734709.07600                   -926712.02740  28734712.04140
  18617002.10800  29124222.36500                  14564714.47540  29124224.65040
    -81164.00400  31742975.04500                    -57231.14040  31742981.01040
   2504262.33400  31434276.05300                   1951373.74100  31434278.35700
  21987749.35800  27933917.34200                  17178993.58840  27933919.27540
   -119397.55500  31390623.72400                    -56924.67740  31390627.06440
 96  9  8  4 15  0.0220000  0  9  3 14 18 19 22 27 28 29 31
     11294.95700  30743092.64600                     18177.17740  30743097.70940
  30942909.92500  29658783.97400                  24125635.68140  29658786.97440
    -44285.23000  27254700.32600                    -26532.39540  27254702.55340
  -1234537.68600  28736980.54500                   -917410.04240  28736983.46340
  18767295.51000  29152822.30300                  14681826.22540  29152825.44340
    -94573.27600  31740423.99800                    -67679.84740  31740430.32640
   2570067.77500  31446798.27900                   2002650.71500  31446800.78300
  22096161.48200  27954547.54500                  17263470.56540  27954549.36140
   -143565.16400  31386025.06000                    -75756.59740  31386025.99840
 96  9  8  4 15 30.0220000  0  9  3 14 18 19 22 27 28 29 31
     18997.31000  30744558.80300                     24179.04240  30744561.62740
  31115017.71100  29691534.90400                  24259745.63640  29691538.08040
    -14415.30100  27260384.37300                     -3257.12040  27260386.68140
  -1222389.07200  28739292.34200                   -907943.57940  28739295.48240
  18917947.56600  29181490.38100                  14799217.43340  29181492.86540
   -107917.83500  31737884.13100                    -78078.17040  31737886.13540
   2636364.70600  31459414.13100                   2054310.66100  31459416.67000
  22204910.00300  27975241.62300                  17348209.66140  27975243.49840
   -167776.96500  31381417.42800                    -94622.91340  31381420.18140
 96  9  8  4 16  0.0220000  0  9  3 14 18 19 22 27 28 29 31
     26985.08500  30746079.10700                     30403.25040  30746082.51740
  31287312.08700  29724320.79500                  24394000.99540  29724323.87740
     15784.60200  27266131.15400                     20275.27840  27266133.40440
  -1210016.00300  28741646.88900                   -898302.21240  28741649.71340
  19068982.57900  29210231.34200                  14916907.05640  29210234.27140
   -121186.31200  31735358.27100                    -88417.15840  31735365.04540
   2703163.53400  31472125.56000                   2106361.70800  31472127.91200
  22314012.14900  27996003.17000                  17433224.31440  27996004.99840
   -192016.47500  31376805.58400                   -113510.81940  31376809.00640
 96  9  8  4 16 30.0220000  0  9  3 14 18 19 22 27 28 29 31
     35261.68900  30747653.88100                     36852.58440  30747656.33040
  31459780.53600  29757140.27100                  24528391.99440  29757143.69340
     46305.95900  27271939.34200                     44058.15240  27271941.59240
  -1197418.52600  28744043.85700                   -888485.98440  28744047.01040
  19220397.08200  29239044.75600                  15034892.37540  29239047.49840
   -134375.70500  31732849.74000                    -98694.54740  31732854.87340
   2770463.52900  31484932.62300                   2158803.27200  31484935.10300
  22423471.08800  28016832.58400                  17518516.98740  28016834.49440
   -216286.73900  31372186.94300                   -132422.68840  31372189.11140
 96  9  8  4 17  0.0230000  0  9  3 14 18 19 22 27 28 29 31
     43845.16100  30749287.32300                     43541.04740  30749290.39340
  31632436.54300  29789995.96400                  24662929.14040  29789999.51440
     77155.74700  27277809.78400                     68096.94640  27277812.01140
  -1184593.58500  28746484.53400                   -878492.51240  28746487.47540
  19372192.68600  29267930.41700                  15153174.66040  29267932.45640
   -147478.82500  31730356.48700                   -108904.69740  31730363.00340
   2838273.48000  31497836.13600                   2211642.21100  31497838.67500
  22533281.08800  28037728.76100                  17604083.21340  28037730.61240
   -240578.18300  31367564.26100                   -151351.09340  31367567.09740
 96  9  8  4 17 30.0230000  0  9  3 14 18 19 22 27 28 29 31
     52718.65500  30750976.25300                     50455.45540  30750978.29240
  31805258.42300  29822883.17500                  24797595.53740  29822886.62040
    108341.70700  27283744.28400                     92397.69840  27283746.62840
  -1171559.12400  28748964.90100                   -868335.76940  28748967.92540
  19524329.59400  29296880.34700                  15271722.91040  29296882.83140
   -160507.88400  31727876.69000                   -119057.21240  31727880.10040
   2906583.24200  31510835.29200                   2264870.59700  31510837.40100
  22643431.37800  28058689.46400                  17689914.60240  28058691.32740
   -264883.60400  31362938.41700                   -170290.37940  31362942.80040
 96  9  8  4 18  0.0230000  0  9  3 14 18 19 22 27 28 29 31
     61875.40700  30752718.41700                     57590.60340  30752720.83140
  31978254.06800  29855803.16700                  24932397.33940  29855806.99940
    139860.02700  27289741.93200                    116957.43940  27289744.22940
  -1158335.00200  28751481.19800                   -858031.23340  28751484.12840
  19676789.85900  29325893.44800                  15390523.11640  29325896.62440
   -173473.81400  31725408.74500                   -129160.47340  31725413.10440
   2975392.25300  31523928.66700                   2318488.01900  31523931.25700
  22753907.53700  28079712.55000                  17775999.91040  28079714.28440
   -289206.15600  31358310.69800                   -189242.98040  31358312.35040
 96  9  8  4 18 30.0230000  0  9  3 14 18 19 22 27 28 29 31
     71352.80800  30754521.17500                     64975.58640  30754524.44440
  32151443.29800  29888760.14300                  25067349.98040  29888764.26840
    171739.07500  27295808.49500                    141798.25540  27295810.69840
  -1144903.98600  28754036.82300                   -847565.48040  28754040.04640
  19829581.89300  29354968.72900                  15509581.83040  29354971.51840
   -186352.14800  31722958.41700                   -139195.50340  31722965.92140
   3044716.54000  31537121.19800                   2372506.96100  31537123.05000
  22864721.14500  28100799.73700                  17862348.17240  28100801.68240
   -313511.89600  31353685.03400                   -208182.48740  31353689.38240
 96  9  8  4 19  0.0230000  0  9  3 14 18 19 22 27 28 29 31
     81140.59300  30756383.77600                     72602.44240  30756387.52640
  32324816.83500  29921752.24500                  25202446.24140  29921755.77240
    203997.40600  27301946.81500                    166934.62340  27301949.03040
  -1131281.43000  28756628.97900                   -836950.50940  28756632.06140
  19982705.75100  29384106.95600                  15628899.13240  29384109.55740
   -199142.25100  31720524.40900                   -149161.74340  31720529.42540
   3114552.29800  31550410.33900                   2426924.44400  31550412.49100
  22975869.87400  28121950.72900                  17948957.57540  28121952.49940
   -337793.64800  31349064.49500                   -227103.30540  31349067.50740
 96  9  8  4 19 30.0230000  0  9  3 14 18 19 22 27 28 29 31
     91244.11200  30758306.52600                     80475.34340  30758309.44440
  32498369.82400  29954777.79200                  25337682.32940  29954780.60440
    236638.40200  27308158.30700                    192369.17140  27308160.60440
  -1117476.33800  28759256.58900                   -826193.26440  28759259.83540
  20136156.80200  29413307.30000                  15748471.38440  29413309.90140
   -211863.27700  31718103.13600                   -159074.23640  31718107.94040
   3184895.41600  31563796.15100                   2481737.26000  31563798.35800
  23087368.04800  28143168.09700                  18035839.26140  28143169.86640
   -362064.39200  31344446.53400                   -246015.51840  31344449.68640
 96  9  8  4 20  0.0230000  0  9  3 14 18 19 22 27 28 29 31
    101688.34100  30760293.83900                     88613.73940  30760297.33140
  32672115.30500  29987840.85400                  25473068.40040  29987843.90140
    269663.45800  27314442.76100                    218102.99040  27314445.12840
  -1103478.68500  28761920.15100                   -815286.02540  28761923.06940
  20289946.52100  29442573.08100                  15868307.51640  29442575.72940
   -224507.01500  31715698.41700                   -168926.37540  31715701.89740
   3255758.98600  31577280.98700                   2536955.64000  31577283.10000
  23199233.76700  28164455.35400                  18123007.34540  28164457.30040
   -386318.46700  31339830.38600                   -264914.82340  31339832.97540
 96  9  8  4 20 30.0230000  0  9  3 14 18 19 22 27 28 29 31
    112457.21000  30762344.06500                     97005.06440  30762346.50340
  32846030.64000  30020935.73700                  25608586.81940  30020938.44440
    303070.89900  27320799.90100                    244134.76940  27320802.25740
  -1089298.68800  28764618.21400                   -804236.67840  28764621.27240
  20444070.11800  29471902.25300                  15988403.82040  29471904.72540
   -237079.32300  31713303.97200                   -178722.96040  31713309.31540
   3327134.04300  31590863.08100                   2592572.59600  31590865.46000
  23311468.21600  28185812.69800                  18210462.75140  28185814.47940
   -410567.50600  31335215.90900                   -283810.07740  31335218.83940
 96  9  8  4 21  0.0230000  0  9  3 14 18 19 22 27 28 29 31
    123523.53400  30764449.81500                    105628.16740  30764452.52240
  33020104.94000  30054060.89300                  25744229.14740  30054064.09340
    336830.06000  27327224.05700                    270440.61040  27327226.26140
  -1074956.80800  28767347.69000                   -793061.17540  28767350.67940
  20598497.53400  29501288.37000                  16108736.88040  29501291.07740
   -249608.83300  31710921.87800                   -188486.21640  31710921.96040
   3399005.24300  31604539.69800                   2648576.12100  31604541.94000
  23424047.51200  28207236.04200                  18298186.86640  28207237.91740
   -434854.93500  31330595.58100                   -302735.38040  31330598.74540
 96  9  8  4 21 30.0230000  0  9  3 14 18 19 22 27 28 29 31
    134921.76100  30766617.05700                    114509.92440  30766620.94840
  33194372.06800  30087222.86200                  25880021.71040  30087226.87040
    370947.77300  27333716.51100                    297025.84540  27333718.81940
  -1060420.99000  28770113.74500                   -781734.53640  28770116.80440
  20753251.86400  29530737.16700                  16229324.67640  29530740.00340
   -262076.05500  31708547.94000                   -198200.87140  31708551.28040
   3471398.86300  31618315.79200                   2704986.74000  31618318.25300
  23536997.36500  28228729.61200                  18386199.72940  28228731.37040
   -459156.45200  31325970.58900                   -321671.59840  31325972.99140
 96  9  8  4 22  0.0230000  0  9  3 14 18 19 22 27 28 29 31
    146625.48900  30768844.85400                    123629.76040  30768847.84340
  33368805.99500  30120415.75300                  26015944.23740  30120420.21840
    405410.42300  27340274.46400                    323879.86640  27340276.79640
  -1045703.34800  28772914.33100                   -770266.24340  28772917.40140
  20908322.11400  29560246.06500                  16350158.63140  29560248.59740
   -274481.85500  31706186.64300                   -207867.67340  31706189.35040
   3544297.95800  31632188.01800                   2761791.24300  31632190.55400
  23650281.00100  28250286.81500                  18474472.68240  28250288.74940
   -483467.89300  31321343.71400                   -340615.57040  31321345.78840
 96  9  8  4 22 30.0230000  0  9  3 14 18 19 22 27 28 29 31
    158641.13800  30771131.58100                    132992.59540  30771133.22240
  33543408.01500  30153641.70600                  26151997.74940  30153645.49140
    440241.98000  27346902.76100                    351021.34240  27346905.01140
  -1030779.46500  28775754.39300                   -758637.21640  28775757.53440
  21063712.23700  29589815.90100                  16471241.85040  29589818.83140
   -286827.81400  31703838.85400                   -217487.86740  31703842.38240
   3617707.40100  31646157.26800                   2818993.39400  31646159.78400
  23763890.17300  28271905.97200                  18562999.30040  28271907.74140
   -507769.72700  31316719.64300                   -359552.05540  31316722.74940
 96  9  8  4 23  0.0230000  0  9  3 14 18 19 22 27 28 29 31
    170982.97000  30773481.42500                    142609.60840  30773484.91740
  33718188.11900  30186902.21400                  26288190.02940  30186905.90540
    475436.09800  27353599.60400                    378445.33640  27353601.84340
  -1015632.91900  28778636.46400                   -746834.70940  28778639.48740
  21219420.75100  29619445.47200                  16592573.15740  29619447.78040
   -299116.15800  31701498.91700                   -227063.16940  31701502.58540
   3691631.32800  31660225.00300                   2876596.48100  31660226.86200
  23877827.52300  28293587.59700                  18651781.64540  28293589.40140
   -532047.22300  31312100.20600                   -378469.54840  31312103.19440
 96  9  8  4 23 30.0230000  0  9  3 14 18 19 22 27 28 29 31
    183662.19400  30775891.51100                    152489.57540  30775895.69440
  33893144.97900  30220195.24500                  26424520.03540  30220198.22240
    511012.47000  27360369.83100                    406167.18340  27360372.13940
  -1000245.35300  28781564.58100                   -734844.39840  28781567.47540
  21375458.67100  29649139.12000                  16714161.15740  29649141.97940
   -311337.57700  31699174.82300                   -236586.30440  31699178.11640
   3766073.94300  31674390.63600                   2934603.70600  31674392.54200
  23992100.49600  28315332.98700                  18740825.50640  28315334.99140
   -556269.72200  31307489.45600                   -397344.20940  31307491.03840
